Darstellungsparameter: Aktuell verwendete Einstellungen:
Skalierung der Graphiken ... ?
xyx+y,   Skalierungsfaktor:      Skalierung: Modus: x, Faktor: 1
Darstellungszeitraum ... ?
Vom - - bis: - -   Zeitraum: 11.03.2020 - 17.03.2020
Min/Max/Avg-Anzeige ... ?
Zeige MMA aktuell
Zeige MMA Monat
Zeige MMA alles
Zeige --A aktuell
Zeige --A Monat
Zeige --A alles
Keine MMA-Anzeige
MMA:
Minimum Maximum Average (ber die Originaldaten)
MMA-Basis: 23.02.2003 - 18.03.2020
Quicknavigation für Darstellung... ?
Tage:      1T, 2T, 3T, 5T -1T -2T -3T -5T +1T +2T +3T +5T
Wochen: 1W, 2W, 3W -1W -2W -3W +1W +2W +3W
Monate: 1M, 3M, 6M -1M -3M -6M +1M +3M +6M
Jahre:    1J, 3J, 5J, 10J -1J -3J -5J -10J +1J +3J +5J +10J
Nutze für die Darstellung ... ?
Originaldaten oder Mittelwerte auf ...
Stundenbasis Tagesbasis Wochenbasis
Monatsbasis Jahresbasis      Datenbasis: Original-Daten
Darstellen als:
Statistik (Auto) Statistik J:M      Darstellung:
Zur Graphik,    zurück zur Übersicht aller Sensoren.
 
Tabellarische Datenbersicht: ?
 
Sensor: Nr:Datum:Temp:Abs-Feuchte:Windchill:Wind:
Aussen-T/F 1 11-03-2020 00:00:00 13.3 C 10.4 g/m*3 13.3 C 17.7 km/h
2 11-03-2020 00:05:00 13.4 C 10.46 g/m*3 13.4 C 11.3 km/h
3 11-03-2020 00:10:00 13.5 C 10.41 g/m*3 13.5 C 16.1 km/h
4 11-03-2020 00:15:00 13.5 C 10.29 g/m*3 13.5 C 14.5 km/h
5 11-03-2020 00:20:00 13.6 C 10.36 g/m*3 13.6 C 17.7 km/h
6 11-03-2020 00:25:00 13.7 C 10.3 g/m*3 13.7 C 22.5 km/h
7 11-03-2020 00:30:00 13.8 C 10.37 g/m*3 13.8 C 17.7 km/h
8 11-03-2020 00:35:00 13.8 C 10.37 g/m*3 13.8 C 14.5 km/h
9 11-03-2020 00:40:00 13.8 C 10.25 g/m*3 13.8 C 17.7 km/h
10 11-03-2020 00:45:00 13.8 C 10.25 g/m*3 13.8 C 17.7 km/h
11 11-03-2020 00:50:00 13.9 C 10.31 g/m*3 13.9 C 12.9 km/h
12 11-03-2020 00:55:00 13.8 C 10.25 g/m*3 13.8 C 12.9 km/h
13 11-03-2020 01:00:00 13.8 C 10.37 g/m*3 13.8 C 17.7 km/h
14 11-03-2020 01:05:00 13.8 C 10.37 g/m*3 13.8 C 17.7 km/h
15 11-03-2020 01:10:00 13.8 C 10.37 g/m*3 13.8 C 12.9 km/h
16 11-03-2020 01:15:00 13.8 C 10.48 g/m*3 13.8 C 16.1 km/h
17 11-03-2020 01:20:00 13.7 C 10.42 g/m*3 13.7 C 19.3 km/h
18 11-03-2020 01:25:00 13.6 C 10.47 g/m*3 13.6 C 20.9 km/h
19 11-03-2020 01:30:00 13.6 C 10.47 g/m*3 13.6 C 14.5 km/h
20 11-03-2020 01:35:00 13.5 C 10.53 g/m*3 13.5 C 19.3 km/h
21 11-03-2020 01:40:00 13.6 C 10.59 g/m*3 13.6 C 24.1 km/h
22 11-03-2020 01:45:00 13.6 C 10.59 g/m*3 13.6 C 24.1 km/h
23 11-03-2020 01:50:00 13.6 C 10.59 g/m*3 13.6 C 19.3 km/h
24 11-03-2020 01:55:00 13.5 C 10.53 g/m*3 13.5 C 20.9 km/h
25 11-03-2020 02:00:00 13.4 C 10.46 g/m*3 13.4 C 14.5 km/h
Sensor: Nr:Datum:Temp:Abs-Feuchte:Windchill:Wind:
Aussen-T/F 26 11-03-2020 02:05:00 13.4 C 10.46 g/m*3 13.4 C 16.1 km/h
27 11-03-2020 02:10:00 13.4 C 10.58 g/m*3 13.4 C 12.9 km/h
28 11-03-2020 02:15:00 13.4 C 10.58 g/m*3 13.4 C 17.7 km/h
29 11-03-2020 02:20:00 13.4 C 10.58 g/m*3 13.4 C 11.3 km/h
30 11-03-2020 02:25:00 13.5 C 10.64 g/m*3 13.5 C 16.1 km/h
31 11-03-2020 02:30:00 13.4 C 10.58 g/m*3 13.4 C 12.9 km/h
32 11-03-2020 02:35:00 13.4 C 10.58 g/m*3 13.4 C 11.3 km/h
33 11-03-2020 02:40:00 13.4 C 10.46 g/m*3 13.4 C 11.3 km/h
34 11-03-2020 02:45:00 13.5 C 10.53 g/m*3 13.5 C 17.7 km/h
35 11-03-2020 02:50:00 13.6 C 10.59 g/m*3 13.6 C 11.3 km/h
36 11-03-2020 02:55:00 13.6 C 10.59 g/m*3 13.6 C 20.9 km/h
37 11-03-2020 03:00:00 13.7 C 10.54 g/m*3 13.7 C 17.7 km/h
38 11-03-2020 03:05:00 13.7 C 10.54 g/m*3 13.7 C 17.7 km/h
39 11-03-2020 03:10:00 13.7 C 10.66 g/m*3 13.7 C 14.5 km/h
40 11-03-2020 03:15:00 13.7 C 10.66 g/m*3 13.7 C 24.1 km/h
41 11-03-2020 03:20:00 13.6 C 10.59 g/m*3 13.6 C 12.9 km/h
42 11-03-2020 03:25:00 13.6 C 10.59 g/m*3 13.6 C 20.9 km/h
43 11-03-2020 03:30:00 13.6 C 10.59 g/m*3 13.6 C 16.1 km/h
44 11-03-2020 03:35:00 13.6 C 10.59 g/m*3 13.6 C 20.9 km/h
45 11-03-2020 03:40:00 13.6 C 10.47 g/m*3 13.6 C 25.7 km/h
46 11-03-2020 03:45:00 13.7 C 10.54 g/m*3 13.7 C 25.7 km/h
47 11-03-2020 03:50:00 13.7 C 10.54 g/m*3 13.7 C 16.1 km/h
48 11-03-2020 03:55:00 13.7 C 10.54 g/m*3 13.7 C 20.9 km/h
49 11-03-2020 04:00:00 13.8 C 10.48 g/m*3 13.8 C 20.9 km/h
50 11-03-2020 04:05:00 13.7 C 10.54 g/m*3 13.7 C 14.5 km/h
Sensor: Nr:Datum:Temp:Abs-Feuchte:Windchill:Wind:
Aussen-T/F 51 11-03-2020 04:10:00 13.7 C 10.54 g/m*3 13.7 C 14.5 km/h
52 11-03-2020 04:15:00 13.6 C 10.47 g/m*3 13.6 C 16.1 km/h
53 11-03-2020 04:20:00 13.6 C 10.47 g/m*3 13.6 C 22.5 km/h
54 11-03-2020 04:25:00 13.7 C 10.54 g/m*3 13.7 C 20.9 km/h
55 11-03-2020 04:30:00 13.6 C 10.47 g/m*3 13.6 C 22.5 km/h
56 11-03-2020 04:35:00 13.6 C 10.47 g/m*3 13.6 C 20.9 km/h
57 11-03-2020 04:40:00 13.6 C 10.47 g/m*3 13.6 C 25.7 km/h
58 11-03-2020 04:45:00 13.6 C 10.47 g/m*3 13.6 C 20.9 km/h
59 11-03-2020 04:50:00 13.6 C 10.47 g/m*3 13.6 C 19.3 km/h
60 11-03-2020 04:55:00 13.7 C 10.42 g/m*3 13.7 C 17.7 km/h
61 11-03-2020 05:00:00 13.7 C 10.42 g/m*3 13.7 C 20.9 km/h
62 11-03-2020 05:05:00 13.7 C 10.42 g/m*3 13.7 C 22.5 km/h
63 11-03-2020 05:10:00 13.6 C 10.47 g/m*3 13.6 C 22.5 km/h
64 11-03-2020 05:15:00 13.6 C 10.47 g/m*3 13.6 C 11.3 km/h
65 11-03-2020 05:20:00 13.5 C 10.41 g/m*3 13.5 C 14.5 km/h
66 11-03-2020 05:25:00 13.5 C 10.41 g/m*3 13.5 C 11.3 km/h
67 11-03-2020 05:30:00 13.6 C 10.47 g/m*3 13.6 C 19.3 km/h
68 11-03-2020 05:35:00 13.5 C 10.41 g/m*3 13.5 C 19.3 km/h
69 11-03-2020 05:40:00 13.5 C 10.41 g/m*3 13.5 C 20.9 km/h
70 11-03-2020 05:45:00 13.4 C 10.35 g/m*3 13.4 C 16.1 km/h
71 11-03-2020 05:50:00 13.4 C 10.46 g/m*3 13.4 C 17.7 km/h
72 11-03-2020 05:55:00 13.4 C 10.46 g/m*3 13.4 C 16.1 km/h
73 11-03-2020 06:00:00 13.3 C 10.4 g/m*3 13.3 C 20.9 km/h
74 11-03-2020 06:05:00 13.3 C 10.4 g/m*3 13.3 C 16.1 km/h
75 11-03-2020 06:10:00 13.3 C 10.28 g/m*3 13.3 C 16.1 km/h
Sensor: Nr:Datum:Temp:Abs-Feuchte:Windchill:Wind:
Aussen-T/F 76 11-03-2020 06:15:00 13.4 C 10.35 g/m*3 13.4 C 17.7 km/h
77 11-03-2020 06:20:00 13.4 C 10.35 g/m*3 13.4 C 19.3 km/h
78 11-03-2020 06:25:00 13.4 C 10.35 g/m*3 13.4 C 12.9 km/h
79 11-03-2020 06:30:00 13.4 C 10.35 g/m*3 13.4 C 14.5 km/h
80 11-03-2020 06:35:00 13.4 C 10.23 g/m*3 13.4 C 24.1 km/h
81 11-03-2020 06:40:00 13.5 C 10.18 g/m*3 13.5 C 16.1 km/h
82 11-03-2020 06:45:00 13.6 C 10.24 g/m*3 13.6 C 17.7 km/h
83 11-03-2020 06:50:00 13.6 C 10.24 g/m*3 13.6 C 14.5 km/h
84 11-03-2020 06:55:00 13.6 C 10.24 g/m*3 13.6 C 11.3 km/h
85 11-03-2020 07:00:00 13.6 C 10.24 g/m*3 13.6 C 11.3 km/h
86 11-03-2020 07:05:00 13.6 C 10.24 g/m*3 13.6 C 17.7 km/h
87 11-03-2020 07:10:00 13.6 C 10.24 g/m*3 13.6 C 19.3 km/h
88 11-03-2020 07:15:00 13.5 C 10.29 g/m*3 13.5 C 17.7 km/h
89 11-03-2020 07:20:00 13.4 C 10.23 g/m*3 13.4 C 17.7 km/h
90 11-03-2020 07:25:00 13.4 C 10.23 g/m*3 13.4 C 14.5 km/h
91 11-03-2020 07:30:00 13.3 C 10.17 g/m*3 13.3 C 17.7 km/h
92 11-03-2020 07:35:00 13.3 C 10.05 g/m*3 13.3 C 17.7 km/h
93 11-03-2020 07:40:00 13.3 C 10.05 g/m*3 13.3 C 14.5 km/h
94 11-03-2020 07:45:00 13.3 C 10.05 g/m*3 13.3 C 24.1 km/h
95 11-03-2020 07:50:00 13.3 C 9.94 g/m*3 13.3 C 16.1 km/h
96 11-03-2020 07:55:00 13.3 C 9.94 g/m*3 13.3 C 17.7 km/h
97 11-03-2020 08:00:00 13.3 C 9.94 g/m*3 13.3 C 17.7 km/h
98 11-03-2020 08:05:00 13.2 C 9.99 g/m*3 13.2 C 14.5 km/h
99 11-03-2020 08:10:00 13.2 C 9.99 g/m*3 13.2 C 19.3 km/h
100 11-03-2020 08:15:00 13.1 C 9.93 g/m*3 13.1 C 20.9 km/h
Sensor: Nr:Datum:Temp:Abs-Feuchte:Windchill:Wind:
Aussen-T/F 101 11-03-2020 08:20:00 13.1 C 9.93 g/m*3 13.1 C 16.1 km/h
102 11-03-2020 08:25:00 13.1 C 9.93 g/m*3 13.1 C 17.7 km/h
103 11-03-2020 08:30:00 13.1 C 10.04 g/m*3 13.1 C 17.7 km/h
104 11-03-2020 08:35:00 13.1 C 10.04 g/m*3 13.1 C 17.7 km/h
105 11-03-2020 08:40:00 13 C 9.98 g/m*3 13 C 19.3 km/h
106 11-03-2020 08:45:00 13 C 9.98 g/m*3 13 C 20.9 km/h
107 11-03-2020 08:50:00 13 C 9.98 g/m*3 13 C 22.5 km/h
108 11-03-2020 08:55:00 13 C 9.98 g/m*3 13 C 16.1 km/h
109 11-03-2020 09:00:00 13 C 10.09 g/m*3 13 C 12.9 km/h
110 11-03-2020 09:05:00 13.1 C 10.16 g/m*3 13.1 C 11.3 km/h
111 11-03-2020 09:10:00 13.1 C 10.04 g/m*3 13.1 C 14.5 km/h
112 11-03-2020 09:15:00 13.2 C 10.1 g/m*3 13.2 C 16.1 km/h
113 11-03-2020 09:20:00 13.2 C 10.1 g/m*3 13.2 C 14.5 km/h
114 11-03-2020 09:25:00 13.3 C 10.17 g/m*3 13.3 C 24.1 km/h
115 11-03-2020 09:30:00 13.5 C 10.29 g/m*3 13.5 C 17.7 km/h
116 11-03-2020 09:35:00 13.6 C 10.36 g/m*3 13.6 C 17.7 km/h
117 11-03-2020 09:40:00 13.7 C 10.42 g/m*3 13.7 C 27.4 km/h
118 11-03-2020 09:45:00 13.7 C 10.3 g/m*3 13.7 C 27.4 km/h
119 11-03-2020 09:50:00 13.9 C 10.43 g/m*3 13.9 C 20.9 km/h
120 11-03-2020 09:55:00 13.9 C 10.43 g/m*3 13.9 C 19.3 km/h
121 11-03-2020 10:00:00 13.9 C 10.31 g/m*3 13.9 C 17.7 km/h
122 11-03-2020 10:05:00 13.9 C 10.31 g/m*3 13.9 C 22.5 km/h
123 11-03-2020 10:10:00 13.9 C 10.31 g/m*3 13.9 C 20.9 km/h
124 11-03-2020 10:15:00 13.8 C 10.37 g/m*3 13.8 C 12.9 km/h
125 11-03-2020 10:20:00 13.8 C 10.37 g/m*3 13.8 C 17.7 km/h
Sensor: Nr:Datum:Temp:Abs-Feuchte:Windchill:Wind:
Aussen-T/F 126 11-03-2020 10:25:00 13.8 C 10.37 g/m*3 13.8 C 25.7 km/h
127 11-03-2020 10:30:00 13.9 C 10.43 g/m*3 13.9 C 19.3 km/h
128 11-03-2020 10:35:00 13.9 C 10.43 g/m*3 13.9 C 16.1 km/h
129 11-03-2020 10:40:00 14.1 C 10.56 g/m*3 14.1 C 16.1 km/h
130 11-03-2020 10:45:00 14.2 C 10.62 g/m*3 14.2 C 20.9 km/h
131 11-03-2020 10:50:00 14.3 C 10.69 g/m*3 14.3 C 17.7 km/h
132 11-03-2020 10:55:00 14.3 C 10.57 g/m*3 14.3 C 19.3 km/h
133 11-03-2020 11:00:00 14.3 C 10.69 g/m*3 14.3 C 17.7 km/h
134 11-03-2020 11:05:00 14.3 C 10.57 g/m*3 14.3 C 19.3 km/h
135 11-03-2020 11:10:00 14.4 C 10.63 g/m*3 14.4 C 16.1 km/h
136 11-03-2020 11:15:00 14.5 C 10.7 g/m*3 14.5 C 19.3 km/h
137 11-03-2020 11:20:00 14.6 C 10.64 g/m*3 14.6 C 25.7 km/h
138 11-03-2020 11:25:00 14.7 C 10.7 g/m*3 14.7 C 19.3 km/h
139 11-03-2020 11:30:00 14.9 C 10.83 g/m*3 14.9 C 20.9 km/h
140 11-03-2020 11:35:00 15.1 C 10.84 g/m*3 15.1 C 20.9 km/h
141 11-03-2020 11:40:00 15.3 C 10.97 g/m*3 15.3 C 19.3 km/h
142 11-03-2020 11:45:00 15.3 C 10.84 g/m*3 15.3 C 20.9 km/h
143 11-03-2020 11:50:00 15.3 C 10.84 g/m*3 15.3 C 24.1 km/h
144 11-03-2020 11:55:00 15.3 C 10.84 g/m*3 15.3 C 16.1 km/h
145 11-03-2020 12:00:00 15.3 C 10.71 g/m*3 15.3 C 20.9 km/h
146 11-03-2020 12:05:00 15.3 C 10.84 g/m*3 15.3 C 27.4 km/h
147 11-03-2020 12:10:00 15.3 C 10.84 g/m*3 15.3 C 19.3 km/h
148 11-03-2020 12:15:00 15.4 C 10.77 g/m*3 15.4 C 16.1 km/h
149 11-03-2020 12:20:00 15.5 C 10.84 g/m*3 15.5 C 16.1 km/h
150 11-03-2020 12:25:00 15.6 C 10.91 g/m*3 15.6 C 17.7 km/h
Sensor: Nr:Datum:Temp:Abs-Feuchte:Windchill:Wind:
Aussen-T/F 151 11-03-2020 12:30:00 15.7 C 10.97 g/m*3 15.7 C 17.7 km/h
152 11-03-2020 12:35:00 15.7 C 10.97 g/m*3 15.7 C 20.9 km/h
153 11-03-2020 12:40:00 15.8 C 10.9 g/m*3 15.8 C 24.1 km/h
154 11-03-2020 12:45:00 15.8 C 11.04 g/m*3 15.8 C 22.5 km/h
155 11-03-2020 12:50:00 15.8 C 10.9 g/m*3 15.8 C 16.1 km/h
156 11-03-2020 12:55:00 15.7 C 10.84 g/m*3 15.7 C 22.5 km/h
157 11-03-2020 13:00:00 15.7 C 10.84 g/m*3 15.7 C 19.3 km/h
158 11-03-2020 13:05:00 15.8 C 11.04 g/m*3 15.8 C 16.1 km/h
159 11-03-2020 13:10:00 15.8 C 10.9 g/m*3 15.8 C 24.1 km/h
160 11-03-2020 13:15:00 15.9 C 10.97 g/m*3 15.9 C 19.3 km/h
161 11-03-2020 13:20:00 16 C 11.04 g/m*3 16 C 24.1 km/h
162 11-03-2020 13:25:00 15.9 C 10.83 g/m*3 15.9 C 22.5 km/h
163 11-03-2020 13:30:00 15.9 C 10.97 g/m*3 15.9 C 22.5 km/h
164 11-03-2020 13:35:00 15.8 C 10.9 g/m*3 15.8 C 20.9 km/h
165 11-03-2020 13:40:00 16 C 11.17 g/m*3 16 C 20.9 km/h
166 11-03-2020 13:45:00 15.9 C 10.97 g/m*3 15.9 C 24.1 km/h
167 11-03-2020 13:50:00 15.8 C 10.9 g/m*3 15.8 C 20.9 km/h
168 11-03-2020 13:55:00 15.7 C 10.97 g/m*3 15.7 C 25.7 km/h
169 11-03-2020 14:00:00 15.8 C 10.9 g/m*3 15.8 C 25.7 km/h
170 11-03-2020 14:05:00 15.9 C 10.97 g/m*3 15.9 C 17.7 km/h
171 11-03-2020 14:10:00 15.9 C 10.97 g/m*3 15.9 C 25.7 km/h
172 11-03-2020 14:15:00 16 C 11.04 g/m*3 16 C 19.3 km/h
173 11-03-2020 14:20:00 15.9 C 10.7 g/m*3 15.9 C 22.5 km/h
174 11-03-2020 14:25:00 15.8 C 10.77 g/m*3 15.8 C 19.3 km/h
175 11-03-2020 14:30:00 15.9 C 10.97 g/m*3 15.9 C 19.3 km/h
Sensor: Nr:Datum:Temp:Abs-Feuchte:Windchill:Wind:
Aussen-T/F 176 11-03-2020 14:35:00 15.9 C 10.7 g/m*3 15.9 C 29 km/h
177 11-03-2020 14:40:00 15.8 C 10.63 g/m*3 15.8 C 32.2 km/h
178 11-03-2020 14:45:00 15.7 C 10.57 g/m*3 15.7 C 29 km/h
179 11-03-2020 14:50:00 15.7 C 10.57 g/m*3 15.7 C 24.1 km/h
180 11-03-2020 14:55:00 15.7 C 10.7 g/m*3 15.7 C 25.7 km/h
181 11-03-2020 15:00:00 15.6 C 10.64 g/m*3 15.6 C 25.7 km/h
182 11-03-2020 15:05:00 15.5 C 10.71 g/m*3 15.5 C 24.1 km/h
183 11-03-2020 15:10:00 15.4 C 10.64 g/m*3 15.4 C 25.7 km/h
184 11-03-2020 15:15:00 15.4 C 10.64 g/m*3 15.4 C 24.1 km/h
185 11-03-2020 15:20:00 15.4 C 10.64 g/m*3 15.4 C 17.7 km/h
186 11-03-2020 15:25:00 15.3 C 10.58 g/m*3 15.3 C 17.7 km/h
187 11-03-2020 15:30:00 15.3 C 10.58 g/m*3 15.3 C 11.3 km/h
188 11-03-2020 15:35:00 15.3 C 10.71 g/m*3 15.3 C 17.7 km/h
189 11-03-2020 15:40:00 15.3 C 10.84 g/m*3 15.3 C 19.3 km/h
190 11-03-2020 15:45:00 15.2 C 10.77 g/m*3 15.2 C 17.7 km/h
191 11-03-2020 15:50:00 15 C 10.77 g/m*3 15 C 16.1 km/h
192 11-03-2020 15:55:00 14.9 C 10.83 g/m*3 14.9 C 17.7 km/h
193 11-03-2020 16:00:00 14.9 C 10.83 g/m*3 14.9 C 9.7 km/h
194 11-03-2020 16:05:00 15 C 10.9 g/m*3 15 C 12.9 km/h
195 11-03-2020 16:10:00 15.1 C 10.97 g/m*3 15.1 C 16.1 km/h
196 11-03-2020 16:15:00 14.9 C 10.83 g/m*3 14.9 C 17.7 km/h
197 11-03-2020 16:20:00 14.8 C 10.77 g/m*3 14.8 C 17.7 km/h
198 11-03-2020 16:25:00 14.8 C 11.02 g/m*3 14.8 C 14.5 km/h
199 11-03-2020 16:30:00 14.8 C 11.02 g/m*3 14.8 C 14.5 km/h
200 11-03-2020 16:35:00 14.8 C 10.89 g/m*3 14.8 C 14.5 km/h
Sensor: Nr:Datum:Temp:Abs-Feuchte:Windchill:Wind:
Aussen-T/F 201 11-03-2020 16:40:00 14.7 C 10.7 g/m*3 14.7 C 14.5 km/h
202 11-03-2020 16:45:00 14.6 C 10.64 g/m*3 14.6 C 14.5 km/h
203 11-03-2020 16:50:00 14.6 C 10.64 g/m*3 14.6 C 9.7 km/h
204 11-03-2020 16:55:00 14.6 C 10.64 g/m*3 14.6 C 14.5 km/h
205 11-03-2020 17:00:00 14.6 C 10.64 g/m*3 14.6 C 11.3 km/h
206 11-03-2020 17:05:00 14.5 C 10.57 g/m*3 14.5 C 25.7 km/h
207 11-03-2020 17:10:00 14.4 C 10.63 g/m*3 14.4 C 19.3 km/h
208 11-03-2020 17:15:00 14.3 C 10.69 g/m*3 14.3 C 9.7 km/h
209 11-03-2020 17:20:00 14.2 C 10.62 g/m*3 14.2 C 12.9 km/h
210 11-03-2020 17:25:00 14.1 C 10.68 g/m*3 14.1 C 17.7 km/h
211 11-03-2020 17:30:00 14 C 10.74 g/m*3 14 C 14.5 km/h
212 11-03-2020 17:35:00 13.9 C 10.79 g/m*3 13.9 C 8.1 km/h
213 11-03-2020 17:40:00 13.9 C 10.79 g/m*3 13.9 C 6.4 km/h
214 11-03-2020 17:45:00 13.9 C 10.79 g/m*3 13.9 C 3.2 km/h
215 11-03-2020 17:50:00 13.9 C 10.79 g/m*3 13.9 C 8.1 km/h
216 11-03-2020 17:55:00 13.8 C 10.72 g/m*3 13.8 C 6.4 km/h
217 11-03-2020 18:00:00 13.8 C 10.6 g/m*3 13.8 C 12.9 km/h
218 11-03-2020 18:05:00 13.7 C 10.54 g/m*3 13.7 C 6.4 km/h
219 11-03-2020 18:10:00 13.7 C 10.54 g/m*3 13.7 C 12.9 km/h
220 11-03-2020 18:15:00 13.7 C 10.42 g/m*3 13.7 C 14.5 km/h
221 11-03-2020 18:20:00 13.7 C 10.42 g/m*3 13.7 C 12.9 km/h
222 11-03-2020 18:25:00 13.7 C 10.42 g/m*3 13.7 C 8.1 km/h
223 11-03-2020 18:30:00 13.6 C 10.36 g/m*3 13.6 C 11.3 km/h
224 11-03-2020 18:35:00 13.6 C 10.36 g/m*3 13.6 C 12.9 km/h
225 11-03-2020 18:40:00 13.6 C 10.36 g/m*3 13.6 C 17.7 km/h
Sensor: Nr:Datum:Temp:Abs-Feuchte:Windchill:Wind:
Aussen-T/F 226 11-03-2020 18:45:00 13.6 C 10.36 g/m*3 13.6 C 8.1 km/h
227 11-03-2020 18:50:00 13.6 C 10.36 g/m*3 13.6 C 12.9 km/h
228 11-03-2020 18:55:00 13.7 C 10.42 g/m*3 13.7 C 9.7 km/h
229 11-03-2020 19:00:00 13.7 C 10.42 g/m*3 13.7 C 12.9 km/h
230 11-03-2020 19:05:00 13.7 C 10.42 g/m*3 13.7 C 12.9 km/h
231 11-03-2020 19:10:00 13.7 C 10.42 g/m*3 13.7 C 17.7 km/h
232 11-03-2020 19:15:00 13.7 C 10.42 g/m*3 13.7 C 11.3 km/h
233 11-03-2020 19:20:00 13.6 C 10.36 g/m*3 13.6 C 8.1 km/h
234 11-03-2020 19:25:00 13.6 C 10.36 g/m*3 13.6 C 6.4 km/h
235 11-03-2020 19:30:00 13.5 C 10.41 g/m*3 13.5 C 8.1 km/h
236 11-03-2020 19:35:00 13.5 C 10.41 g/m*3 13.5 C 14.5 km/h
237 11-03-2020 19:40:00 13.6 C 10.36 g/m*3 13.6 C 9.7 km/h
238 11-03-2020 19:45:00 13.6 C 10.36 g/m*3 13.6 C 9.7 km/h
239 11-03-2020 19:50:00 13.6 C 10.36 g/m*3 13.6 C 6.4 km/h
240 11-03-2020 19:55:00 13.6 C 10.36 g/m*3 13.6 C 6.4 km/h
241 11-03-2020 20:00:00 13.6 C 10.36 g/m*3 13.6 C 6.4 km/h
242 11-03-2020 20:05:00 13.6 C 10.36 g/m*3 13.6 C 9.7 km/h
243 11-03-2020 20:10:00 13.6 C 10.36 g/m*3 13.6 C 6.4 km/h
244 11-03-2020 20:15:00 13.7 C 10.42 g/m*3 13.7 C 17.7 km/h
245 11-03-2020 20:20:00 13.7 C 10.42 g/m*3 13.7 C 11.3 km/h
246 11-03-2020 20:25:00 13.7 C 10.3 g/m*3 13.7 C 12.9 km/h
247 11-03-2020 20:30:00 13.8 C 10.37 g/m*3 13.8 C 16.1 km/h
248 11-03-2020 20:35:00 13.8 C 10.37 g/m*3 13.8 C 16.1 km/h
249 11-03-2020 20:40:00 13.8 C 10.37 g/m*3 13.8 C 17.7 km/h
250 11-03-2020 20:45:00 13.8 C 10.37 g/m*3 13.8 C 12.9 km/h
Sensor: Nr:Datum:Temp:Abs-Feuchte:Windchill:Wind:
Aussen-T/F 251 11-03-2020 20:50:00 13.8 C 10.37 g/m*3 13.8 C 14.5 km/h
252 11-03-2020 20:55:00 13.7 C 10.18 g/m*3 13.7 C 17.7 km/h
253 11-03-2020 21:00:00 13.7 C 10.18 g/m*3 13.7 C 20.9 km/h
254 11-03-2020 21:05:00 13.7 C 10.3 g/m*3 13.7 C 19.3 km/h
255 11-03-2020 21:10:00 13.7 C 10.3 g/m*3 13.7 C 17.7 km/h
256 11-03-2020 21:15:00 13.7 C 10.3 g/m*3 13.7 C 16.1 km/h
257 11-03-2020 21:20:00 13.7 C 10.3 g/m*3 13.7 C 22.5 km/h
258 11-03-2020 21:25:00 13.7 C 10.18 g/m*3 13.7 C 14.5 km/h
259 11-03-2020 21:30:00 13.7 C 10.18 g/m*3 13.7 C 16.1 km/h
260 11-03-2020 21:35:00 13.8 C 10.25 g/m*3 13.8 C 17.7 km/h
261 11-03-2020 21:40:00 13.8 C 10.13 g/m*3 13.8 C 22.5 km/h
262 11-03-2020 21:45:00 13.9 C 10.07 g/m*3 13.9 C 27.4 km/h
263 11-03-2020 21:50:00 14 C 10.13 g/m*3 14 C 20.9 km/h
264 11-03-2020 21:55:00 14.1 C 10.07 g/m*3 14.1 C 20.9 km/h
265 11-03-2020 22:00:00 14.1 C 10.07 g/m*3 14.1 C 17.7 km/h
266 11-03-2020 22:05:00 14.1 C 10.07 g/m*3 14.1 C 20.9 km/h
267 11-03-2020 22:10:00 14.1 C 9.95 g/m*3 14.1 C 25.7 km/h
268 11-03-2020 22:15:00 14.2 C 10.01 g/m*3 14.2 C 22.5 km/h
269 11-03-2020 22:20:00 14.2 C 9.89 g/m*3 14.2 C 24.1 km/h
270 11-03-2020 22:25:00 14.2 C 9.89 g/m*3 14.2 C 29 km/h
271 11-03-2020 22:30:00 14.2 C 9.89 g/m*3 14.2 C 16.1 km/h
272 11-03-2020 22:35:00 14.2 C 9.89 g/m*3 14.2 C 27.4 km/h
273 11-03-2020 22:40:00 14.1 C 9.83 g/m*3 14.1 C 27.4 km/h
274 11-03-2020 22:45:00 14.1 C 9.71 g/m*3 14.1 C 32.2 km/h
275 11-03-2020 22:50:00 14.1 C 9.71 g/m*3 14.1 C 19.3 km/h
Sensor: Nr:Datum:Temp:Abs-Feuchte:Windchill:Wind:
Aussen-T/F 276 11-03-2020 22:55:00 14.1 C 9.71 g/m*3 14.1 C 19.3 km/h
277 11-03-2020 23:00:00 14 C 9.65 g/m*3 14 C 35.4 km/h
278 11-03-2020 23:05:00 14.1 C 9.71 g/m*3 14.1 C 35.4 km/h
279 11-03-2020 23:10:00 14 C 9.65 g/m*3 14 C 30.6 km/h
280 11-03-2020 23:15:00 13.9 C 9.59 g/m*3 13.9 C 20.9 km/h
281 11-03-2020 23:20:00 14 C 9.65 g/m*3 14 C 29 km/h
282 11-03-2020 23:25:00 14 C 9.65 g/m*3 14 C 29 km/h
283 11-03-2020 23:30:00 13.9 C 9.59 g/m*3 13.9 C 24.1 km/h
284 11-03-2020 23:35:00 13.9 C 9.59 g/m*3 13.9 C 22.5 km/h
285 11-03-2020 23:40:00 13.9 C 9.59 g/m*3 13.9 C 30.6 km/h
286 11-03-2020 23:45:00 13.9 C 9.59 g/m*3 13.9 C 30.6 km/h
287 11-03-2020 23:50:00 13.9 C 9.59 g/m*3 13.9 C 27.4 km/h
288 11-03-2020 23:55:00 13.9 C 9.59 g/m*3 13.9 C 20.9 km/h
289 12-03-2020 00:00:00 13.9 C 9.59 g/m*3 13.9 C 27.4 km/h
290 12-03-2020 00:05:00 13.9 C 9.59 g/m*3 13.9 C 24.1 km/h
291 12-03-2020 00:10:00 13.9 C 9.59 g/m*3 13.9 C 20.9 km/h
292 12-03-2020 00:15:00 13.8 C 9.53 g/m*3 13.8 C 24.1 km/h
293 12-03-2020 00:20:00 13.8 C 9.53 g/m*3 13.8 C 24.1 km/h
294 12-03-2020 00:25:00 13.8 C 9.53 g/m*3 13.8 C 16.1 km/h
295 12-03-2020 00:30:00 13.8 C 9.53 g/m*3 13.8 C 19.3 km/h
296 12-03-2020 00:35:00 13.8 C 9.53 g/m*3 13.8 C 20.9 km/h
297 12-03-2020 00:40:00 13.8 C 9.53 g/m*3 13.8 C 19.3 km/h
298 12-03-2020 00:45:00 13.8 C 9.41 g/m*3 13.8 C 16.1 km/h
299 12-03-2020 00:50:00 13.9 C 9.47 g/m*3 13.9 C 19.3 km/h
300 12-03-2020 00:55:00 13.9 C 9.47 g/m*3 13.9 C 17.7 km/h
Sensor: Nr:Datum:Temp:Abs-Feuchte:Windchill:Wind:
Aussen-T/F 301 12-03-2020 01:00:00 14 C 9.53 g/m*3 14 C 19.3 km/h
302 12-03-2020 01:05:00 14.1 C 9.59 g/m*3 14.1 C 22.5 km/h
303 12-03-2020 01:10:00 14.1 C 9.59 g/m*3 14.1 C 22.5 km/h
304 12-03-2020 01:15:00 14 C 9.53 g/m*3 14 C 19.3 km/h
305 12-03-2020 01:20:00 14 C 9.53 g/m*3 14 C 22.5 km/h
306 12-03-2020 01:25:00 14 C 9.53 g/m*3 14 C 16.1 km/h
307 12-03-2020 01:30:00 14 C 9.53 g/m*3 14 C 24.1 km/h
308 12-03-2020 01:35:00 14 C 9.53 g/m*3 14 C 16.1 km/h
309 12-03-2020 01:40:00 14 C 9.53 g/m*3 14 C 20.9 km/h
310 12-03-2020 01:45:00 14 C 9.53 g/m*3 14 C 25.7 km/h
311 12-03-2020 01:50:00 14 C 9.53 g/m*3 14 C 16.1 km/h
312 12-03-2020 01:55:00 14 C 9.41 g/m*3 14 C 24.1 km/h
313 12-03-2020 02:00:00 13.9 C 9.47 g/m*3 13.9 C 25.7 km/h
314 12-03-2020 02:05:00 13.9 C 9.35 g/m*3 13.9 C 24.1 km/h
315 12-03-2020 02:10:00 13.9 C 9.47 g/m*3 13.9 C 8.1 km/h
316 12-03-2020 02:15:00 13.9 C 9.47 g/m*3 13.9 C 12.9 km/h
317 12-03-2020 02:20:00 13.8 C 9.41 g/m*3 13.8 C 14.5 km/h
318 12-03-2020 02:25:00 13.9 C 9.47 g/m*3 13.9 C 17.7 km/h
319 12-03-2020 02:30:00 13.8 C 9.41 g/m*3 13.8 C 17.7 km/h
320 12-03-2020 02:35:00 13.8 C 9.41 g/m*3 13.8 C 14.5 km/h
321 12-03-2020 02:40:00 13.8 C 9.41 g/m*3 13.8 C 12.9 km/h
322 12-03-2020 02:45:00 13.8 C 9.29 g/m*3 13.8 C 17.7 km/h
323 12-03-2020 02:50:00 13.7 C 9.24 g/m*3 13.7 C 17.7 km/h
324 12-03-2020 02:55:00 13.7 C 9.12 g/m*3 13.7 C 17.7 km/h
325 12-03-2020 03:00:00 13.7 C 9.12 g/m*3 13.7 C 16.1 km/h
Sensor: Nr:Datum:Temp:Abs-Feuchte:Windchill:Wind:
Aussen-T/F 326 12-03-2020 03:05:00 13.7 C 9.12 g/m*3 13.7 C 17.7 km/h
327 12-03-2020 03:10:00 13.7 C 9.12 g/m*3 13.7 C 20.9 km/h
328 12-03-2020 03:15:00 13.6 C 8.94 g/m*3 13.6 C 16.1 km/h
329 12-03-2020 03:20:00 13.6 C 8.94 g/m*3 13.6 C 25.7 km/h
330 12-03-2020 03:25:00 13.6 C 8.94 g/m*3 13.6 C 22.5 km/h
331 12-03-2020 03:30:00 13.6 C 8.94 g/m*3 13.6 C 22.5 km/h
332 12-03-2020 03:35:00 13.6 C 8.94 g/m*3 13.6 C 12.9 km/h
333 12-03-2020 03:40:00 13.5 C 8.89 g/m*3 13.5 C 16.1 km/h
334 12-03-2020 03:45:00 13.5 C 8.89 g/m*3 13.5 C 16.1 km/h
335 12-03-2020 03:50:00 13.4 C 8.83 g/m*3 13.4 C 14.5 km/h
336 12-03-2020 03:55:00 13.4 C 8.83 g/m*3 13.4 C 11.3 km/h
337 12-03-2020 04:00:00 13.3 C 8.78 g/m*3 13.3 C 9.7 km/h
338 12-03-2020 04:05:00 13.3 C 8.78 g/m*3 13.3 C 8.1 km/h
339 12-03-2020 04:10:00 13.3 C 8.78 g/m*3 13.3 C 14.5 km/h
340 12-03-2020 04:15:00 13.3 C 8.78 g/m*3 13.3 C 19.3 km/h
341 12-03-2020 04:20:00 13.3 C 8.66 g/m*3 13.3 C 14.5 km/h
342 12-03-2020 04:25:00 13.3 C 8.78 g/m*3 13.3 C 16.1 km/h
343 12-03-2020 04:30:00 13.2 C 8.61 g/m*3 13.2 C 16.1 km/h
344 12-03-2020 04:35:00 13.2 C 8.61 g/m*3 13.2 C 19.3 km/h
345 12-03-2020 04:40:00 13.2 C 8.61 g/m*3 13.2 C 20.9 km/h
346 12-03-2020 04:45:00 13.2 C 8.73 g/m*3 13.2 C 16.1 km/h
347 12-03-2020 04:50:00 13.1 C 8.67 g/m*3 13.1 C 12.9 km/h
348 12-03-2020 04:55:00 13.1 C 8.67 g/m*3 13.1 C 17.7 km/h
349 12-03-2020 05:00:00 13.1 C 8.67 g/m*3 13.1 C 11.3 km/h
350 12-03-2020 05:05:00 13 C 8.73 g/m*3 13 C 16.1 km/h
Sensor: Nr:Datum:Temp:Abs-Feuchte:Windchill:Wind:
Aussen-T/F 351 12-03-2020 05:10:00 13 C 8.73 g/m*3 13 C 16.1 km/h
352 12-03-2020 05:15:00 13 C 8.73 g/m*3 13 C 19.3 km/h
353 12-03-2020 05:20:00 12.9 C 8.68 g/m*3 12.9 C 19.3 km/h
354 12-03-2020 05:25:00 12.9 C 8.79 g/m*3 12.9 C 16.1 km/h
355 12-03-2020 05:30:00 12.8 C 8.74 g/m*3 12.8 C 19.3 km/h
356 12-03-2020 05:35:00 12.8 C 8.74 g/m*3 12.8 C 12.9 km/h
357 12-03-2020 05:40:00 12.8 C 8.85 g/m*3 12.8 C 20.9 km/h
358 12-03-2020 05:45:00 12.7 C 8.79 g/m*3 12.7 C 12.9 km/h
359 12-03-2020 05:50:00 12.7 C 8.79 g/m*3 12.7 C 16.1 km/h
360 12-03-2020 05:55:00 12.6 C 8.74 g/m*3 12.6 C 17.7 km/h
361 12-03-2020 06:00:00 12.6 C 8.85 g/m*3 12.6 C 11.3 km/h
362 12-03-2020 06:05:00 12.6 C 8.85 g/m*3 12.6 C 20.9 km/h
363 12-03-2020 06:10:00 12.5 C 8.8 g/m*3 12.5 C 16.1 km/h
364 12-03-2020 06:15:00 12.4 C 8.85 g/m*3 12.4 C 12.9 km/h
365 12-03-2020 06:20:00 12.4 C 8.85 g/m*3 12.4 C 16.1 km/h
366 12-03-2020 06:25:00 12.3 C 8.8 g/m*3 12.3 C 11.3 km/h
367 12-03-2020 06:30:00 12.3 C 8.8 g/m*3 12.3 C 16.1 km/h
368 12-03-2020 06:35:00 12.3 C 8.9 g/m*3 12.3 C 20.9 km/h
369 12-03-2020 06:40:00 12.2 C 8.85 g/m*3 12.2 C 12.9 km/h
370 12-03-2020 06:45:00 12.2 C 8.85 g/m*3 12.2 C 11.3 km/h
371 12-03-2020 06:50:00 12.2 C 8.85 g/m*3 12.2 C 12.9 km/h
372 12-03-2020 06:55:00 12.2 C 8.85 g/m*3 12.2 C 12.9 km/h
373 12-03-2020 07:00:00 12.2 C 8.96 g/m*3 12.2 C 16.1 km/h
374 12-03-2020 07:05:00 12.1 C 8.9 g/m*3 12.1 C 17.7 km/h
375 12-03-2020 07:10:00 12.1 C 8.9 g/m*3 12.1 C 14.5 km/h
Sensor: Nr:Datum:Temp:Abs-Feuchte:Windchill:Wind:
Aussen-T/F 376 12-03-2020 07:15:00 12.1 C 9.01 g/m*3 12.1 C 12.9 km/h
377 12-03-2020 07:20:00 12.1 C 9.01 g/m*3 12.1 C 16.1 km/h
378 12-03-2020 07:25:00 12.1 C 9.01 g/m*3 12.1 C 17.7 km/h
379 12-03-2020 07:30:00 12.2 C 9.06 g/m*3 12.2 C 24.1 km/h
380 12-03-2020 07:35:00 12.2 C 9.17 g/m*3 12.2 C 17.7 km/h
381 12-03-2020 07:40:00 12.2 C 9.17 g/m*3 12.2 C 17.7 km/h
382 12-03-2020 07:45:00 12.3 C 9.23 g/m*3 12.3 C 11.3 km/h
383 12-03-2020 07:50:00 12.2 C 9.39 g/m*3 12.2 C 12.9 km/h
384 12-03-2020 07:55:00 12 C 9.38 g/m*3 12 C 16.1 km/h
385 12-03-2020 08:00:00 11.8 C 9.37 g/m*3 11.8 C 12.9 km/h
386 12-03-2020 08:05:00 11.7 C 9.31 g/m*3 11.7 C 8.1 km/h
387 12-03-2020 08:10:00 11.7 C 9.41 g/m*3 11.7 C 8.1 km/h
388 12-03-2020 08:15:00 11.6 C 9.46 g/m*3 11.6 C 9.7 km/h
389 12-03-2020 08:20:00 11.5 C 9.4 g/m*3 11.5 C 14.5 km/h
390 12-03-2020 08:25:00 11.3 C 9.28 g/m*3 11.3 C 19.3 km/h
391 12-03-2020 08:30:00 11.1 C 9.17 g/m*3 11.1 C 16.1 km/h
392 12-03-2020 08:35:00 10.8 C 8.8 g/m*3 8.78 C 16.1 km/h
393 12-03-2020 08:40:00 10.7 C 8.74 g/m*3 9.04 C 12.9 km/h
394 12-03-2020 08:45:00 10.6 C 8.69 g/m*3 9.14 C 11.3 km/h
395 12-03-2020 08:50:00 10.6 C 8.69 g/m*3 9.4 C 9.7 km/h
396 12-03-2020 08:55:00 10.6 C 8.78 g/m*3 10.06 C 6.4 km/h
397 12-03-2020 09:00:00 10.5 C 8.73 g/m*3 9.02 C 11.3 km/h
398 12-03-2020 09:05:00 10.4 C 8.67 g/m*3 9.16 C 9.7 km/h
399 12-03-2020 09:10:00 10.4 C 8.58 g/m*3 9.46 C 8.1 km/h
400 12-03-2020 09:15:00 10.3 C 8.52 g/m*3 9.04 C 9.7 km/h
Sensor: Nr:Datum:Temp:Abs-Feuchte:Windchill:Wind:
Aussen-T/F 401 12-03-2020 09:20:00 10.4 C 8.58 g/m*3 8.9 C 11.3 km/h
402 12-03-2020 09:25:00 10.4 C 8.48 g/m*3 9.46 C 8.1 km/h
403 12-03-2020 09:30:00 10.5 C 8.53 g/m*3 9.02 C 11.3 km/h
404 12-03-2020 09:35:00 10.6 C 8.49 g/m*3 9.4 C 9.7 km/h
405 12-03-2020 09:40:00 10.7 C 8.55 g/m*3 9.26 C 11.3 km/h
406 12-03-2020 09:45:00 10.8 C 8.5 g/m*3 9.38 C 11.3 km/h
407 12-03-2020 09:50:00 10.9 C 8.55 g/m*3 9.08 C 14.5 km/h
408 12-03-2020 09:55:00 10.9 C 8.36 g/m*3 8.9 C 16.1 km/h
409 12-03-2020 10:00:00 11.1 C 8.26 g/m*3 11.1 C 14.5 km/h
410 12-03-2020 10:05:00 11.3 C 8.36 g/m*3 11.3 C 19.3 km/h
411 12-03-2020 10:10:00 11.4 C 8.21 g/m*3 11.4 C 16.1 km/h
412 12-03-2020 10:15:00 11.6 C 8.21 g/m*3 11.6 C 16.1 km/h
413 12-03-2020 10:20:00 11.6 C 8.21 g/m*3 11.6 C 16.1 km/h
414 12-03-2020 10:25:00 11.6 C 8.21 g/m*3 11.6 C 11.3 km/h
415 12-03-2020 10:30:00 11.6 C 8.11 g/m*3 11.6 C 24.1 km/h
416 12-03-2020 10:35:00 11.6 C 8.11 g/m*3 11.6 C 16.1 km/h
417 12-03-2020 10:40:00 11.7 C 7.95 g/m*3 11.7 C 20.9 km/h
418 12-03-2020 10:45:00 11.7 C 7.84 g/m*3 11.7 C 22.5 km/h
419 12-03-2020 10:50:00 11.6 C 7.8 g/m*3 11.6 C 19.3 km/h
420 12-03-2020 10:55:00 11.3 C 7.75 g/m*3 11.3 C 12.9 km/h
421 12-03-2020 11:00:00 11.2 C 7.8 g/m*3 11.2 C 9.7 km/h
422 12-03-2020 11:05:00 11.1 C 7.35 g/m*3 11.1 C 29 km/h
423 12-03-2020 11:10:00 11.1 C 6.95 g/m*3 11.1 C 19.3 km/h
424 12-03-2020 11:15:00 11.2 C 6.89 g/m*3 11.2 C 24.1 km/h
425 12-03-2020 11:20:00 11.3 C 6.73 g/m*3 11.3 C 29 km/h
Sensor: Nr:Datum:Temp:Abs-Feuchte:Windchill:Wind:
Aussen-T/F 426 12-03-2020 11:25:00 11.3 C 6.63 g/m*3 11.3 C 20.9 km/h
427 12-03-2020 11:30:00 11.4 C 6.57 g/m*3 11.4 C 19.3 km/h
428 12-03-2020 11:35:00 11.5 C 6.3 g/m*3 11.5 C 20.9 km/h
429 12-03-2020 11:40:00 11.6 C 6.24 g/m*3 11.6 C 19.3 km/h
430 12-03-2020 11:45:00 11.6 C 5.92 g/m*3 11.6 C 22.5 km/h
431 12-03-2020 11:50:00 11.7 C 5.54 g/m*3 11.7 C 29 km/h
432 12-03-2020 11:55:00 11.7 C 5.54 g/m*3 11.7 C 16.1 km/h
433 12-03-2020 12:00:00 11.8 C 5.47 g/m*3 11.8 C 22.5 km/h
434 12-03-2020 12:05:00 11.8 C 5.47 g/m*3 11.8 C 14.5 km/h
435 12-03-2020 12:10:00 11.9 C 5.4 g/m*3 11.9 C 19.3 km/h
436 12-03-2020 12:15:00 12 C 5.44 g/m*3 12 C 19.3 km/h
437 12-03-2020 12:20:00 12.1 C 5.36 g/m*3 12.1 C 19.3 km/h
438 12-03-2020 12:25:00 12.1 C 5.58 g/m*3 12.1 C 22.5 km/h
439 12-03-2020 12:30:00 12.2 C 5.72 g/m*3 12.2 C 20.9 km/h
440 12-03-2020 12:35:00 12.3 C 5.43 g/m*3 12.3 C 16.1 km/h
441 12-03-2020 12:40:00 12.3 C 5.54 g/m*3 12.3 C 27.4 km/h
442 12-03-2020 12:45:00 12.2 C 5.4 g/m*3 12.2 C 25.7 km/h
443 12-03-2020 12:50:00 12.1 C 5.47 g/m*3 12.1 C 20.9 km/h
444 12-03-2020 12:55:00 11.9 C 5.4 g/m*3 11.9 C 22.5 km/h
445 12-03-2020 13:00:00 11.9 C 5.4 g/m*3 11.9 C 22.5 km/h
446 12-03-2020 13:05:00 11.9 C 5.4 g/m*3 11.9 C 19.3 km/h
447 12-03-2020 13:10:00 11.9 C 5.3 g/m*3 11.9 C 20.9 km/h
448 12-03-2020 13:15:00 11.9 C 5.51 g/m*3 11.9 C 22.5 km/h
449 12-03-2020 13:20:00 11.9 C 5.51 g/m*3 11.9 C 19.3 km/h
450 12-03-2020 13:25:00 12 C 5.54 g/m*3 12 C 17.7 km/h
Sensor: Nr:Datum:Temp:Abs-Feuchte:Windchill:Wind:
Aussen-T/F 451 12-03-2020 13:30:00 12.1 C 5.58 g/m*3 12.1 C 17.7 km/h
452 12-03-2020 13:35:00 12.1 C 5.58 g/m*3 12.1 C 17.7 km/h
453 12-03-2020 13:40:00 12.2 C 5.83 g/m*3 12.2 C 11.3 km/h
454 12-03-2020 13:45:00 12.2 C 5.72 g/m*3 12.2 C 19.3 km/h
455 12-03-2020 13:50:00 12.2 C 5.61 g/m*3 12.2 C 17.7 km/h
456 12-03-2020 13:55:00 12.2 C 5.61 g/m*3 12.2 C 19.3 km/h
457 12-03-2020 14:00:00 12.2 C 5.61 g/m*3 12.2 C 16.1 km/h
458 12-03-2020 14:05:00 12.1 C 5.68 g/m*3 12.1 C 14.5 km/h
459 12-03-2020 14:10:00 12.1 C 5.68 g/m*3 12.1 C 19.3 km/h
460 12-03-2020 14:15:00 11.9 C 5.72 g/m*3 11.9 C 19.3 km/h
461 12-03-2020 14:20:00 11.9 C 5.82 g/m*3 11.9 C 16.1 km/h
462 12-03-2020 14:25:00 11.9 C 6.04 g/m*3 11.9 C 20.9 km/h
463 12-03-2020 14:30:00 12 C 5.86 g/m*3 12 C 20.9 km/h
464 12-03-2020 14:35:00 12.1 C 6.01 g/m*3 12.1 C 25.7 km/h
465 12-03-2020 14:40:00 12.3 C 6.08 g/m*3 12.3 C 22.5 km/h
466 12-03-2020 14:45:00 12.3 C 6.08 g/m*3 12.3 C 32.2 km/h
467 12-03-2020 14:50:00 12.3 C 5.97 g/m*3 12.3 C 24.1 km/h
468 12-03-2020 14:55:00 12.2 C 6.15 g/m*3 12.2 C 19.3 km/h
469 12-03-2020 15:00:00 12.1 C 6.22 g/m*3 12.1 C 19.3 km/h
470 12-03-2020 15:05:00 11.9 C 6.25 g/m*3 11.9 C 16.1 km/h
471 12-03-2020 15:10:00 11.8 C 6.1 g/m*3 11.8 C 19.3 km/h
472 12-03-2020 15:15:00 11.8 C 6.31 g/m*3 11.8 C 12.9 km/h
473 12-03-2020 15:20:00 11.8 C 6.31 g/m*3 11.8 C 19.3 km/h
474 12-03-2020 15:25:00 11.8 C 6.42 g/m*3 11.8 C 11.3 km/h
475 12-03-2020 15:30:00 11.8 C 6.31 g/m*3 11.8 C 14.5 km/h
Sensor: Nr:Datum:Temp:Abs-Feuchte:Windchill:Wind:
Aussen-T/F 476 12-03-2020 15:35:00 11.8 C 6.21 g/m*3 11.8 C 16.1 km/h
477 12-03-2020 15:40:00 11.8 C 6.21 g/m*3 11.8 C 17.7 km/h
478 12-03-2020 15:45:00 11.8 C 6.1 g/m*3 11.8 C 17.7 km/h
479 12-03-2020 15:50:00 11.8 C 6.1 g/m*3 11.8 C 20.9 km/h
480 12-03-2020 15:55:00 11.7 C 5.96 g/m*3 11.7 C 17.7 km/h
481 12-03-2020 16:00:00 11.7 C 5.86 g/m*3 11.7 C 27.4 km/h
482 12-03-2020 16:05:00 11.6 C 5.92 g/m*3 11.6 C 16.1 km/h
483 12-03-2020 16:10:00 11.6 C 5.61 g/m*3 11.6 C 25.7 km/h
484 12-03-2020 16:15:00 11.6 C 5.82 g/m*3 11.6 C 20.9 km/h
485 12-03-2020 16:20:00 11.6 C 5.92 g/m*3 11.6 C 17.7 km/h
486 12-03-2020 16:25:00 11.6 C 5.92 g/m*3 11.6 C 12.9 km/h
487 12-03-2020 16:30:00 11.6 C 6.03 g/m*3 11.6 C 12.9 km/h
488 12-03-2020 16:35:00 11.7 C 5.96 g/m*3 11.7 C 14.5 km/h
489 12-03-2020 16:40:00 11.7 C 6.17 g/m*3 11.7 C 11.3 km/h
490 12-03-2020 16:45:00 11.8 C 6 g/m*3 11.8 C 11.3 km/h
491 12-03-2020 16:50:00 11.8 C 6.1 g/m*3 11.8 C 16.1 km/h
492 12-03-2020 16:55:00 11.8 C 6 g/m*3 11.8 C 12.9 km/h
493 12-03-2020 17:00:00 11.7 C 5.96 g/m*3 11.7 C 12.9 km/h
494 12-03-2020 17:05:00 11.7 C 6.07 g/m*3 11.7 C 11.3 km/h
495 12-03-2020 17:10:00 11.6 C 6.03 g/m*3 11.6 C 9.7 km/h
496 12-03-2020 17:15:00 11.6 C 5.92 g/m*3 11.6 C 12.9 km/h
497 12-03-2020 17:20:00 11.6 C 5.92 g/m*3 11.6 C 16.1 km/h
498 12-03-2020 17:25:00 11.6 C 5.92 g/m*3 11.6 C 14.5 km/h
499 12-03-2020 17:30:00 11.5 C 5.99 g/m*3 11.5 C 8.1 km/h
500 12-03-2020 17:35:00 11.4 C 5.95 g/m*3 11.4 C 12.9 km/h
Sensor: Nr:Datum:Temp:Abs-Feuchte:Windchill:Wind:
Aussen-T/F 501 12-03-2020 17:40:00 11.3 C 5.92 g/m*3 11.3 C 9.7 km/h
502 12-03-2020 17:45:00 11.3 C 5.92 g/m*3 11.3 C 8.1 km/h
503 12-03-2020 17:50:00 11.3 C 6.02 g/m*3 11.3 C 6.4 km/h
504 12-03-2020 17:55:00 11.4 C 5.95 g/m*3 11.4 C 6.4 km/h
505 12-03-2020 18:00:00 11.6 C 6.13 g/m*3 11.6 C 8.1 km/h
506 12-03-2020 18:05:00 11.7 C 6.17 g/m*3 11.7 C 9.7 km/h
507 12-03-2020 18:10:00 11.6 C 6.34 g/m*3 11.6 C 8.1 km/h
508 12-03-2020 18:15:00 11.3 C 6.43 g/m*3 11.3 C 8.1 km/h
509 12-03-2020 18:20:00 11 C 6.51 g/m*3 11 C 4.8 km/h
510 12-03-2020 18:25:00 10.7 C 6.48 g/m*3 10.7 C 3.2 km/h
511 12-03-2020 18:30:00 10.3 C 6.51 g/m*3 10.3 C 4.8 km/h
512 12-03-2020 18:35:00 10 C 6.48 g/m*3 10 C 4.8 km/h
513 12-03-2020 18:40:00 9.8 C 6.49 g/m*3 8.75 C 8.1 km/h
514 12-03-2020 18:45:00 9.5 C 6.46 g/m*3 9.5 C 4.8 km/h
515 12-03-2020 18:50:00 9.3 C 6.47 g/m*3 9.3 C 3.2 km/h
516 12-03-2020 18:55:00 9 C 6.44 g/m*3 9 C 4.8 km/h
517 12-03-2020 19:00:00 8.7 C 6.49 g/m*3 8.7 C 3.2 km/h
518 12-03-2020 19:05:00 8.5 C 6.32 g/m*3 7.22 C 8.1 km/h
519 12-03-2020 19:10:00 8.3 C 6.41 g/m*3 8.3 C 3.2 km/h
520 12-03-2020 19:15:00 8.2 C 6.36 g/m*3 8.2 C 4.8 km/h
521 12-03-2020 19:20:00 8 C 6.28 g/m*3 8 C 3.2 km/h
522 12-03-2020 19:25:00 7.8 C 6.37 g/m*3 7.8 C 3.2 km/h
523 12-03-2020 19:30:00 7.6 C 6.28 g/m*3 7.6 C 3.2 km/h
524 12-03-2020 19:35:00 7.4 C 6.2 g/m*3 7.4 C 4.8 km/h
525 12-03-2020 19:40:00 7.3 C 6.24 g/m*3 7.3 C 4.8 km/h
Sensor: Nr:Datum:Temp:Abs-Feuchte:Windchill:Wind:
Aussen-T/F 526 12-03-2020 19:45:00 7.2 C 6.2 g/m*3 6.13 C 6.4 km/h
527 12-03-2020 19:50:00 7.2 C 6.2 g/m*3 7.2 C 4.8 km/h
528 12-03-2020 19:55:00 7.2 C 6.2 g/m*3 7.2 C 3.2 km/h
529 12-03-2020 20:00:00 7.3 C 6.24 g/m*3 7.3 C 4.8 km/h
530 12-03-2020 20:05:00 7.3 C 6.24 g/m*3 7.3 C 4.8 km/h
531 12-03-2020 20:10:00 7.3 C 6.24 g/m*3 5.81 C 8.1 km/h
532 12-03-2020 20:15:00 7.3 C 6.24 g/m*3 6.25 C 6.4 km/h
533 12-03-2020 20:20:00 7.4 C 6.28 g/m*3 5.93 C 8.1 km/h
534 12-03-2020 20:25:00 7.4 C 6.36 g/m*3 7.4 C 4.8 km/h
535 12-03-2020 20:30:00 7.3 C 6.24 g/m*3 6.25 C 6.4 km/h
536 12-03-2020 20:35:00 7.3 C 6.24 g/m*3 6.25 C 6.4 km/h
537 12-03-2020 20:40:00 7.2 C 6.2 g/m*3 6.13 C 6.4 km/h
538 12-03-2020 20:45:00 7.2 C 6.28 g/m*3 7.2 C 3.2 km/h
539 12-03-2020 20:50:00 7.2 C 6.28 g/m*3 7.2 C 4.8 km/h
540 12-03-2020 20:55:00 7.1 C 6.24 g/m*3 4.92 C 11.3 km/h
541 12-03-2020 21:00:00 7.1 C 6.24 g/m*3 6.02 C 6.4 km/h
542 12-03-2020 21:05:00 7.2 C 6.28 g/m*3 7.2 C 3.2 km/h
543 12-03-2020 21:10:00 7.2 C 6.36 g/m*3 7.2 C 3.2 km/h
544 12-03-2020 21:15:00 7.1 C 6.24 g/m*3 4.65 C 12.9 km/h
545 12-03-2020 21:20:00 7.2 C 6.28 g/m*3 5.69 C 8.1 km/h
546 12-03-2020 21:25:00 7.3 C 6.32 g/m*3 6.25 C 6.4 km/h
547 12-03-2020 21:30:00 7.4 C 6.36 g/m*3 5.58 C 9.7 km/h
548 12-03-2020 21:35:00 7.6 C 6.36 g/m*3 5.82 C 9.7 km/h
549 12-03-2020 21:40:00 7.7 C 6.41 g/m*3 6.71 C 6.4 km/h
550 12-03-2020 21:45:00 7.7 C 6.41 g/m*3 7.7 C 4.8 km/h
Sensor: Nr:Datum:Temp:Abs-Feuchte:Windchill:Wind:
Aussen-T/F 551 12-03-2020 21:50:00 7.7 C 6.41 g/m*3 5.65 C 11.3 km/h
552 12-03-2020 21:55:00 7.8 C 6.45 g/m*3 6.4 C 8.1 km/h
553 12-03-2020 22:00:00 7.8 C 6.45 g/m*3 6.4 C 8.1 km/h
554 12-03-2020 22:05:00 7.8 C 6.45 g/m*3 6.4 C 8.1 km/h
555 12-03-2020 22:10:00 7.8 C 6.45 g/m*3 7.8 C 4.8 km/h
556 12-03-2020 22:15:00 7.8 C 6.45 g/m*3 6.4 C 8.1 km/h
557 12-03-2020 22:20:00 7.7 C 6.49 g/m*3 5.94 C 9.7 km/h
558 12-03-2020 22:25:00 7.7 C 6.49 g/m*3 7.7 C 3.2 km/h
559 12-03-2020 22:30:00 7.6 C 6.53 g/m*3 7.6 C 3.2 km/h
560 12-03-2020 22:35:00 7.6 C 6.53 g/m*3 5.53 C 11.3 km/h
561 12-03-2020 22:40:00 7.7 C 6.57 g/m*3 5.65 C 11.3 km/h
562 12-03-2020 22:45:00 7.8 C 6.53 g/m*3 5.06 C 16.1 km/h
563 12-03-2020 22:50:00 7.9 C 6.49 g/m*3 5.39 C 14.5 km/h
564 12-03-2020 22:55:00 7.9 C 6.32 g/m*3 6.52 C 8.1 km/h
565 12-03-2020 23:00:00 7.9 C 6.32 g/m*3 5.63 C 12.9 km/h
566 12-03-2020 23:05:00 7.9 C 6.32 g/m*3 6.52 C 8.1 km/h
567 12-03-2020 23:10:00 7.8 C 6.28 g/m*3 7.8 C 3.2 km/h
568 12-03-2020 23:15:00 7.8 C 6.28 g/m*3 7.8 C 4.8 km/h
569 12-03-2020 23:20:00 7.7 C 6.24 g/m*3 6.71 C 6.4 km/h
570 12-03-2020 23:25:00 7.6 C 6.2 g/m*3 6.6 C 6.4 km/h
571 12-03-2020 23:30:00 7.4 C 6.2 g/m*3 7.4 C 4.8 km/h
572 12-03-2020 23:35:00 7.2 C 6.04 g/m*3 4.53 C 14.5 km/h
573 12-03-2020 23:40:00 7.1 C 5.85 g/m*3 5.23 C 9.7 km/h
574 12-03-2020 23:45:00 7.1 C 5.85 g/m*3 4.65 C 12.9 km/h
575 12-03-2020 23:50:00 7.1 C 5.85 g/m*3 4.92 C 11.3 km/h
Sensor: Nr:Datum:Temp:Abs-Feuchte:Windchill:Wind:
Aussen-T/F 576 12-03-2020 23:55:00 7.1 C 5.69 g/m*3 3.8 C 19.3 km/h
577 13-03-2020 00:00:00 7 C 5.58 g/m*3 5.11 C 9.7 km/h
578 13-03-2020 00:05:00 6.9 C 5.39 g/m*3 4.16 C 14.5 km/h
579 13-03-2020 00:10:00 6.9 C 5.39 g/m*3 4.68 C 11.3 km/h
580 13-03-2020 00:15:00 6.9 C 5.39 g/m*3 3.54 C 19.3 km/h
581 13-03-2020 00:20:00 6.9 C 5.39 g/m*3 4.16 C 14.5 km/h
582 13-03-2020 00:25:00 6.9 C 5.39 g/m*3 4.16 C 14.5 km/h
583 13-03-2020 00:30:00 6.8 C 5.43 g/m*3 4.87 C 9.7 km/h
584 13-03-2020 00:35:00 6.7 C 5.47 g/m*3 4.75 C 9.7 km/h
585 13-03-2020 00:40:00 6.6 C 5.44 g/m*3 4.32 C 11.3 km/h
586 13-03-2020 00:45:00 6.4 C 5.44 g/m*3 3.8 C 12.9 km/h
587 13-03-2020 00:50:00 6.4 C 5.44 g/m*3 3.8 C 12.9 km/h
588 13-03-2020 00:55:00 6.3 C 5.4 g/m*3 3.96 C 11.3 km/h
589 13-03-2020 01:00:00 6.2 C 5.44 g/m*3 3.3 C 14.5 km/h
590 13-03-2020 01:05:00 6.1 C 5.41 g/m*3 4.4 C 8.1 km/h
591 13-03-2020 01:10:00 6.1 C 5.41 g/m*3 2.73 C 17.7 km/h
592 13-03-2020 01:15:00 6 C 5.37 g/m*3 3.6 C 11.3 km/h
593 13-03-2020 01:20:00 5.9 C 5.34 g/m*3 3.19 C 12.9 km/h
594 13-03-2020 01:25:00 5.8 C 5.37 g/m*3 2.81 C 14.5 km/h
595 13-03-2020 01:30:00 5.8 C 5.37 g/m*3 3.68 C 9.7 km/h
596 13-03-2020 01:35:00 5.7 C 5.34 g/m*3 3.23 C 11.3 km/h
597 13-03-2020 01:40:00 5.7 C 5.34 g/m*3 2.69 C 14.5 km/h
598 13-03-2020 01:45:00 5.7 C 5.34 g/m*3 3.23 C 11.3 km/h
599 13-03-2020 01:50:00 5.7 C 5.34 g/m*3 3.56 C 9.7 km/h
600 13-03-2020 01:55:00 5.6 C 5.37 g/m*3 2.83 C 12.9 km/h
Sensor: Nr:Datum:Temp:Abs-Feuchte:Windchill:Wind:
Aussen-T/F 601 13-03-2020 02:00:00 5.5 C 5.34 g/m*3 3.32 C 9.7 km/h
602 13-03-2020 02:05:00 5.4 C 5.37 g/m*3 4.06 C 6.4 km/h
603 13-03-2020 02:10:00 5.3 C 5.34 g/m*3 3.46 C 8.1 km/h
604 13-03-2020 02:15:00 5.3 C 5.41 g/m*3 3.94 C 6.4 km/h
605 13-03-2020 02:20:00 5.3 C 5.41 g/m*3 3.46 C 8.1 km/h
606 13-03-2020 02:25:00 5.3 C 5.41 g/m*3 2.75 C 11.3 km/h
607 13-03-2020 02:30:00 5.3 C 5.41 g/m*3 2.2 C 14.5 km/h
608 13-03-2020 02:35:00 5.3 C 5.41 g/m*3 2.2 C 14.5 km/h
609 13-03-2020 02:40:00 5.3 C 5.41 g/m*3 2.75 C 11.3 km/h
610 13-03-2020 02:45:00 5.4 C 5.44 g/m*3 2.32 C 14.5 km/h
611 13-03-2020 02:50:00 5.4 C 5.44 g/m*3 2.32 C 14.5 km/h
612 13-03-2020 02:55:00 5.5 C 5.48 g/m*3 2.7 C 12.9 km/h
613 13-03-2020 03:00:00 5.5 C 5.41 g/m*3 2.44 C 14.5 km/h
614 13-03-2020 03:05:00 5.5 C 5.41 g/m*3 2.99 C 11.3 km/h
615 13-03-2020 03:10:00 5.5 C 5.41 g/m*3 2.7 C 12.9 km/h
616 13-03-2020 03:15:00 5.5 C 5.41 g/m*3 1.99 C 17.7 km/h
617 13-03-2020 03:20:00 5.6 C 5.44 g/m*3 1.22 C 25.7 km/h
618 13-03-2020 03:25:00 5.6 C 5.44 g/m*3 2.83 C 12.9 km/h
619 13-03-2020 03:30:00 5.6 C 5.44 g/m*3 2.33 C 16.1 km/h
620 13-03-2020 03:35:00 5.6 C 5.44 g/m*3 2.57 C 14.5 km/h
621 13-03-2020 03:40:00 5.7 C 5.48 g/m*3 2.24 C 17.7 km/h
622 13-03-2020 03:45:00 5.7 C 5.41 g/m*3 1.05 C 29 km/h
623 13-03-2020 03:50:00 5.8 C 5.44 g/m*3 1.8 C 22.5 km/h
624 13-03-2020 03:55:00 5.8 C 5.44 g/m*3 1.8 C 22.5 km/h
625 13-03-2020 04:00:00 5.8 C 5.52 g/m*3 2.81 C 14.5 km/h
Sensor: Nr:Datum:Temp:Abs-Feuchte:Windchill:Wind:
Aussen-T/F 626 13-03-2020 04:05:00 5.7 C 5.48 g/m*3 3.93 C 8.1 km/h
627 13-03-2020 04:10:00 5.6 C 5.44 g/m*3 3.44 C 9.7 km/h
628 13-03-2020 04:15:00 5.6 C 5.51 g/m*3 2.57 C 14.5 km/h
629 13-03-2020 04:20:00 5.6 C 5.51 g/m*3 3.11 C 11.3 km/h
630 13-03-2020 04:25:00 5.6 C 5.51 g/m*3 3.11 C 11.3 km/h
631 13-03-2020 04:30:00 5.5 C 5.48 g/m*3 2.44 C 14.5 km/h
632 13-03-2020 04:35:00 5.5 C 5.48 g/m*3 2.7 C 12.9 km/h
633 13-03-2020 04:40:00 5.5 C 5.48 g/m*3 2.44 C 14.5 km/h
634 13-03-2020 04:45:00 5.5 C 5.48 g/m*3 2.7 C 12.9 km/h
635 13-03-2020 04:50:00 5.5 C 5.41 g/m*3 2.7 C 12.9 km/h
636 13-03-2020 04:55:00 5.5 C 5.41 g/m*3 1.42 C 22.5 km/h
637 13-03-2020 05:00:00 5.6 C 5.44 g/m*3 1.72 C 20.9 km/h
638 13-03-2020 05:05:00 5.6 C 5.44 g/m*3 2.33 C 16.1 km/h
639 13-03-2020 05:10:00 5.6 C 5.44 g/m*3 3.44 C 9.7 km/h
640 13-03-2020 05:15:00 5.7 C 5.41 g/m*3 2.45 C 16.1 km/h
641 13-03-2020 05:20:00 5.8 C 5.44 g/m*3 2.81 C 14.5 km/h
642 13-03-2020 05:25:00 5.8 C 5.44 g/m*3 3.07 C 12.9 km/h
643 13-03-2020 05:30:00 5.8 C 5.44 g/m*3 3.36 C 11.3 km/h
644 13-03-2020 05:35:00 5.8 C 5.44 g/m*3 3.36 C 11.3 km/h
645 13-03-2020 05:40:00 5.8 C 5.44 g/m*3 3.07 C 12.9 km/h
646 13-03-2020 05:45:00 5.8 C 5.44 g/m*3 3.36 C 11.3 km/h
647 13-03-2020 05:50:00 5.8 C 5.44 g/m*3 3.07 C 12.9 km/h
648 13-03-2020 05:55:00 5.8 C 5.52 g/m*3 4.05 C 8.1 km/h
649 13-03-2020 06:00:00 5.8 C 5.52 g/m*3 3.07 C 12.9 km/h
650 13-03-2020 06:05:00 5.8 C 5.52 g/m*3 4.05 C 8.1 km/h
Sensor: Nr:Datum:Temp:Abs-Feuchte:Windchill:Wind:
Aussen-T/F 651 13-03-2020 06:10:00 5.8 C 5.52 g/m*3 3.68 C 9.7 km/h
652 13-03-2020 06:15:00 5.8 C 5.52 g/m*3 3.36 C 11.3 km/h
653 13-03-2020 06:20:00 5.9 C 5.55 g/m*3 2.93 C 14.5 km/h
654 13-03-2020 06:25:00 6 C 5.59 g/m*3 3.92 C 9.7 km/h
655 13-03-2020 06:30:00 6 C 5.59 g/m*3 4.28 C 8.1 km/h
656 13-03-2020 06:35:00 5.9 C 5.55 g/m*3 2.93 C 14.5 km/h
657 13-03-2020 06:40:00 5.9 C 5.55 g/m*3 2.93 C 14.5 km/h
658 13-03-2020 06:45:00 5.9 C 5.55 g/m*3 3.19 C 12.9 km/h
659 13-03-2020 06:50:00 5.9 C 5.55 g/m*3 1.76 C 24.1 km/h
660 13-03-2020 06:55:00 5.8 C 5.52 g/m*3 3.36 C 11.3 km/h
661 13-03-2020 07:00:00 5.8 C 5.59 g/m*3 2.81 C 14.5 km/h
662 13-03-2020 07:05:00 5.8 C 5.59 g/m*3 2.81 C 14.5 km/h
663 13-03-2020 07:10:00 5.8 C 5.59 g/m*3 3.36 C 11.3 km/h
664 13-03-2020 07:15:00 5.8 C 5.59 g/m*3 3.07 C 12.9 km/h
665 13-03-2020 07:20:00 5.8 C 5.59 g/m*3 2.81 C 14.5 km/h
666 13-03-2020 07:25:00 5.9 C 5.62 g/m*3 2.29 C 19.3 km/h
667 13-03-2020 07:30:00 6 C 5.66 g/m*3 3.6 C 11.3 km/h
668 13-03-2020 07:35:00 6.1 C 5.7 g/m*3 3.72 C 11.3 km/h
669 13-03-2020 07:40:00 6.1 C 5.77 g/m*3 4.4 C 8.1 km/h
670 13-03-2020 07:45:00 6.1 C 5.77 g/m*3 3.72 C 11.3 km/h
671 13-03-2020 07:50:00 6.1 C 5.77 g/m*3 4.04 C 9.7 km/h
672 13-03-2020 07:55:00 6.2 C 5.81 g/m*3 4.52 C 8.1 km/h
673 13-03-2020 08:00:00 6.2 C 5.81 g/m*3 4.52 C 8.1 km/h
674 13-03-2020 08:05:00 6.2 C 5.81 g/m*3 4.15 C 9.7 km/h
675 13-03-2020 08:10:00 6.2 C 5.88 g/m*3 3.84 C 11.3 km/h
Sensor: Nr:Datum:Temp:Abs-Feuchte:Windchill:Wind:
Aussen-T/F 676 13-03-2020 08:15:00 6.3 C 5.92 g/m*3 3.43 C 14.5 km/h
677 13-03-2020 08:20:00 6.3 C 5.85 g/m*3 3.68 C 12.9 km/h
678 13-03-2020 08:25:00 6.3 C 5.92 g/m*3 4.27 C 9.7 km/h
679 13-03-2020 08:30:00 6.3 C 5.92 g/m*3 5.1 C 6.4 km/h
680 13-03-2020 08:35:00 6.4 C 5.89 g/m*3 3.8 C 12.9 km/h
681 13-03-2020 08:40:00 6.4 C 5.89 g/m*3 4.39 C 9.7 km/h
682 13-03-2020 08:45:00 6.4 C 5.89 g/m*3 3.55 C 14.5 km/h
683 13-03-2020 08:50:00 6.5 C 6 g/m*3 4.2 C 11.3 km/h
684 13-03-2020 08:55:00 6.6 C 5.96 g/m*3 4.32 C 11.3 km/h
685 13-03-2020 09:00:00 6.7 C 6.08 g/m*3 5.11 C 8.1 km/h
686 13-03-2020 09:05:00 6.7 C 6 g/m*3 5.11 C 8.1 km/h
687 13-03-2020 09:10:00 6.8 C 6.04 g/m*3 4.87 C 9.7 km/h
688 13-03-2020 09:15:00 6.9 C 6.08 g/m*3 4.99 C 9.7 km/h
689 13-03-2020 09:20:00 7 C 6.12 g/m*3 5.11 C 9.7 km/h
690 13-03-2020 09:25:00 7.2 C 6.12 g/m*3 4.77 C 12.9 km/h
691 13-03-2020 09:30:00 7.3 C 6.16 g/m*3 5.81 C 8.1 km/h
692 13-03-2020 09:35:00 7.4 C 6.04 g/m*3 4.56 C 16.1 km/h
693 13-03-2020 09:40:00 7.4 C 6.12 g/m*3 4.56 C 16.1 km/h
694 13-03-2020 09:45:00 7.4 C 6.04 g/m*3 4.78 C 14.5 km/h
695 13-03-2020 09:50:00 7.4 C 6.12 g/m*3 5.02 C 12.9 km/h
696 13-03-2020 09:55:00 7.4 C 6.12 g/m*3 4.36 C 17.7 km/h
697 13-03-2020 10:00:00 7.4 C 6.12 g/m*3 4.17 C 19.3 km/h
698 13-03-2020 10:05:00 7.5 C 6.08 g/m*3 4.68 C 16.1 km/h
699 13-03-2020 10:10:00 7.6 C 6.12 g/m*3 5.02 C 14.5 km/h
700 13-03-2020 10:15:00 7.8 C 6.2 g/m*3 4.68 C 19.3 km/h
Sensor: Nr:Datum:Temp:Abs-Feuchte:Windchill:Wind:
Aussen-T/F 701 13-03-2020 10:20:00 8.1 C 6.24 g/m*3 6.13 C 11.3 km/h
702 13-03-2020 10:25:00 8.3 C 6.24 g/m*3 5.48 C 17.7 km/h
703 13-03-2020 10:30:00 8.3 C 6.15 g/m*3 5.68 C 16.1 km/h
704 13-03-2020 10:35:00 8.4 C 6.28 g/m*3 6.24 C 12.9 km/h
705 13-03-2020 10:40:00 8.3 C 6.24 g/m*3 6.37 C 11.3 km/h
706 13-03-2020 10:45:00 8.3 C 6.41 g/m*3 5.68 C 16.1 km/h
707 13-03-2020 10:50:00 8.2 C 6.45 g/m*3 5.76 C 14.5 km/h
708 13-03-2020 10:55:00 8.2 C 6.62 g/m*3 5.76 C 14.5 km/h
709 13-03-2020 11:00:00 8.1 C 6.66 g/m*3 5.64 C 14.5 km/h
710 13-03-2020 11:05:00 8.3 C 6.74 g/m*3 6.37 C 11.3 km/h
711 13-03-2020 11:10:00 8.6 C 6.62 g/m*3 6.05 C 16.1 km/h
712 13-03-2020 11:15:00 8.8 C 6.44 g/m*3 6.5 C 14.5 km/h
713 13-03-2020 11:20:00 9.1 C 6.48 g/m*3 6.31 C 19.3 km/h
714 13-03-2020 11:25:00 9.1 C 6.57 g/m*3 6.48 C 17.7 km/h
715 13-03-2020 11:30:00 8.9 C 6.57 g/m*3 6.42 C 16.1 km/h
716 13-03-2020 11:35:00 8.6 C 6.7 g/m*3 5.68 C 19.3 km/h
717 13-03-2020 11:40:00 8.3 C 6.66 g/m*3 5.14 C 20.9 km/h
718 13-03-2020 11:45:00 8.1 C 6.49 g/m*3 5.64 C 14.5 km/h
719 13-03-2020 11:50:00 8.1 C 6.49 g/m*3 5.23 C 17.7 km/h
720 13-03-2020 11:55:00 8.2 C 6.53 g/m*3 5.18 C 19.3 km/h
721 13-03-2020 12:00:00 8.2 C 6.53 g/m*3 5.01 C 20.9 km/h
722 13-03-2020 12:05:00 8.3 C 6.41 g/m*3 5.31 C 19.3 km/h
723 13-03-2020 12:10:00 8.5 C 6.4 g/m*3 6.13 C 14.5 km/h
724 13-03-2020 12:15:00 8.7 C 6.4 g/m*3 7.13 C 9.7 km/h
725 13-03-2020 12:20:00 9.1 C 6.3 g/m*3 6.48 C 17.7 km/h
Sensor: Nr:Datum:Temp:Abs-Feuchte:Windchill:Wind:
Aussen-T/F 726 13-03-2020 12:25:00 9.3 C 6.38 g/m*3 6.92 C 16.1 km/h
727 13-03-2020 12:30:00 9.3 C 6.29 g/m*3 6.56 C 19.3 km/h
728 13-03-2020 12:35:00 9.2 C 6.25 g/m*3 6.13 C 22.5 km/h
729 13-03-2020 12:40:00 9.3 C 6.29 g/m*3 6.26 C 22.5 km/h
730 13-03-2020 12:45:00 9.4 C 6.42 g/m*3 7.04 C 16.1 km/h
731 13-03-2020 12:50:00 9.4 C 6.6 g/m*3 7.7 C 11.3 km/h
732 13-03-2020 12:55:00 9.3 C 6.56 g/m*3 7.58 C 11.3 km/h
733 13-03-2020 13:00:00 9.4 C 6.6 g/m*3 6.53 C 20.9 km/h
734 13-03-2020 13:05:00 9.3 C 6.56 g/m*3 6.92 C 16.1 km/h
735 13-03-2020 13:10:00 9.2 C 6.61 g/m*3 6.99 C 14.5 km/h
736 13-03-2020 13:15:00 9.1 C 6.74 g/m*3 7.33 C 11.3 km/h
737 13-03-2020 13:20:00 9 C 6.79 g/m*3 7.21 C 11.3 km/h
738 13-03-2020 13:25:00 9 C 6.88 g/m*3 6.97 C 12.9 km/h
739 13-03-2020 13:30:00 9.1 C 6.57 g/m*3 6.48 C 17.7 km/h
740 13-03-2020 13:35:00 9.3 C 6.56 g/m*3 7.33 C 12.9 km/h
741 13-03-2020 13:40:00 9.4 C 6.6 g/m*3 7.7 C 11.3 km/h
742 13-03-2020 13:45:00 9.6 C 6.5 g/m*3 6.79 C 20.9 km/h
743 13-03-2020 13:50:00 9.7 C 6.55 g/m*3 6.91 C 20.9 km/h
744 13-03-2020 13:55:00 9.8 C 6.59 g/m*3 7.54 C 16.1 km/h
745 13-03-2020 14:00:00 9.8 C 6.68 g/m*3 7.94 C 12.9 km/h
746 13-03-2020 14:05:00 9.7 C 6.64 g/m*3 8.06 C 11.3 km/h
747 13-03-2020 14:10:00 9.7 C 6.64 g/m*3 8.06 C 11.3 km/h
748 13-03-2020 14:15:00 9.7 C 6.45 g/m*3 6.5 C 25.7 km/h
749 13-03-2020 14:20:00 9.6 C 6.41 g/m*3 7.11 C 17.7 km/h
750 13-03-2020 14:25:00 9.6 C 6.5 g/m*3 7.94 C 11.3 km/h
Sensor: Nr:Datum:Temp:Abs-Feuchte:Windchill:Wind:
Aussen-T/F 751 13-03-2020 14:30:00 9.7 C 6.82 g/m*3 8.06 C 11.3 km/h
752 13-03-2020 14:35:00 9.6 C 6.78 g/m*3 7.94 C 11.3 km/h
753 13-03-2020 14:40:00 9.7 C 6.64 g/m*3 7.61 C 14.5 km/h
754 13-03-2020 14:45:00 9.8 C 6.59 g/m*3 7.73 C 14.5 km/h
755 13-03-2020 14:50:00 9.9 C 6.54 g/m*3 8.3 C 11.3 km/h
756 13-03-2020 14:55:00 10.1 C 6.24 g/m*3 8.54 C 11.3 km/h
757 13-03-2020 15:00:00 10.2 C 6.38 g/m*3 8.92 C 9.7 km/h
758 13-03-2020 15:05:00 10.1 C 6.24 g/m*3 8.31 C 12.9 km/h
759 13-03-2020 15:10:00 10 C 6.2 g/m*3 7.61 C 17.7 km/h
760 13-03-2020 15:15:00 10 C 6.3 g/m*3 8.42 C 11.3 km/h
761 13-03-2020 15:20:00 9.9 C 6.16 g/m*3 8.56 C 9.7 km/h
762 13-03-2020 15:25:00 9.9 C 6.16 g/m*3 8.3 C 11.3 km/h
763 13-03-2020 15:30:00 10 C 6.11 g/m*3 8.68 C 9.7 km/h
764 13-03-2020 15:35:00 10.1 C 6.05 g/m*3 8.8 C 9.7 km/h
765 13-03-2020 15:40:00 10.2 C 6.09 g/m*3 8.66 C 11.3 km/h
766 13-03-2020 15:45:00 10.3 C 6.22 g/m*3 8.55 C 12.9 km/h
767 13-03-2020 15:50:00 10.3 C 6.32 g/m*3 8.55 C 12.9 km/h
768 13-03-2020 15:55:00 10.4 C 6.26 g/m*3 8.47 C 14.5 km/h
769 13-03-2020 16:00:00 10.3 C 6.22 g/m*3 8.55 C 12.9 km/h
770 13-03-2020 16:05:00 10.3 C 6.22 g/m*3 8.78 C 11.3 km/h
771 13-03-2020 16:10:00 10.2 C 6.09 g/m*3 8.92 C 9.7 km/h
772 13-03-2020 16:15:00 10.2 C 6 g/m*3 7.86 C 17.7 km/h
773 13-03-2020 16:20:00 10.1 C 5.96 g/m*3 7.57 C 19.3 km/h
774 13-03-2020 16:25:00 10.1 C 5.96 g/m*3 7.91 C 16.1 km/h
775 13-03-2020 16:30:00 10 C 6.3 g/m*3 7.98 C 14.5 km/h
Sensor: Nr:Datum:Temp:Abs-Feuchte:Windchill:Wind:
Aussen-T/F 776 13-03-2020 16:35:00 9.9 C 6.44 g/m*3 8.56 C 9.7 km/h
777 13-03-2020 16:40:00 9.8 C 6.4 g/m*3 8.45 C 9.7 km/h
778 13-03-2020 16:45:00 9.6 C 6.32 g/m*3 8.21 C 9.7 km/h
779 13-03-2020 16:50:00 9.7 C 6.36 g/m*3 7.41 C 16.1 km/h
780 13-03-2020 16:55:00 9.7 C 6.36 g/m*3 8.63 C 8.1 km/h
781 13-03-2020 17:00:00 9.7 C 6.45 g/m*3 7.41 C 16.1 km/h
782 13-03-2020 17:05:00 9.6 C 6.5 g/m*3 8.52 C 8.1 km/h
783 13-03-2020 17:10:00 9.4 C 6.33 g/m*3 8.68 C 6.4 km/h
784 13-03-2020 17:15:00 9.4 C 6.42 g/m*3 7.97 C 9.7 km/h
785 13-03-2020 17:20:00 9.4 C 6.42 g/m*3 7.97 C 9.7 km/h
786 13-03-2020 17:25:00 9.4 C 6.42 g/m*3 7.97 C 9.7 km/h
787 13-03-2020 17:30:00 9.4 C 6.42 g/m*3 7.7 C 11.3 km/h
788 13-03-2020 17:35:00 9.4 C 6.42 g/m*3 9.4 C 4.8 km/h
789 13-03-2020 17:40:00 9.6 C 6.32 g/m*3 7.94 C 11.3 km/h
790 13-03-2020 17:45:00 9.6 C 6.41 g/m*3 8.91 C 6.4 km/h
791 13-03-2020 17:50:00 9.8 C 6.59 g/m*3 8.45 C 9.7 km/h
792 13-03-2020 17:55:00 9.8 C 6.59 g/m*3 8.18 C 11.3 km/h
793 13-03-2020 18:00:00 9.8 C 6.68 g/m*3 9.8 C 4.8 km/h
794 13-03-2020 18:05:00 9.6 C 6.6 g/m*3 7.7 C 12.9 km/h
795 13-03-2020 18:10:00 9.3 C 6.56 g/m*3 7.33 C 12.9 km/h
796 13-03-2020 18:15:00 9.2 C 6.52 g/m*3 8.45 C 6.4 km/h
797 13-03-2020 18:20:00 9.1 C 6.48 g/m*3 7.93 C 8.1 km/h
798 13-03-2020 18:25:00 8.9 C 6.48 g/m*3 7.09 C 11.3 km/h
799 13-03-2020 18:30:00 8.8 C 6.44 g/m*3 6.72 C 12.9 km/h
800 13-03-2020 18:35:00 8.7 C 6.4 g/m*3 8.7 C 4.8 km/h
Sensor: Nr:Datum:Temp:Abs-Feuchte:Windchill:Wind:
Aussen-T/F 801 13-03-2020 18:40:00 8.6 C 6.36 g/m*3 8.6 C 4.8 km/h
802 13-03-2020 18:45:00 8.5 C 6.32 g/m*3 6.9 C 9.7 km/h
803 13-03-2020 18:50:00 8.4 C 6.36 g/m*3 7.52 C 6.4 km/h
804 13-03-2020 18:55:00 8.3 C 6.24 g/m*3 7.41 C 6.4 km/h
805 13-03-2020 19:00:00 8.3 C 6.32 g/m*3 8.3 C 3.2 km/h
806 13-03-2020 19:05:00 8.3 C 6.32 g/m*3 7.41 C 6.4 km/h
807 13-03-2020 19:10:00 8.2 C 6.45 g/m*3 8.2 C 4.8 km/h
808 13-03-2020 19:15:00 8.2 C 6.45 g/m*3 8.2 C 4.8 km/h
809 13-03-2020 19:20:00 8.1 C 6.57 g/m*3 8.1 C 4.8 km/h
810 13-03-2020 19:25:00 8 C 6.53 g/m*3 8 C 4.8 km/h
811 13-03-2020 19:30:00 7.9 C 6.49 g/m*3 6.94 C 6.4 km/h
812 13-03-2020 19:35:00 7.8 C 6.37 g/m*3 6.83 C 6.4 km/h
813 13-03-2020 19:40:00 7.8 C 6.37 g/m*3 7.8 C 4.8 km/h
814 13-03-2020 19:45:00 7.7 C 6.41 g/m*3 7.7 C 0 km/h
815 13-03-2020 19:50:00 7.7 C 6.41 g/m*3 7.7 C 3.2 km/h
816 13-03-2020 19:55:00 7.7 C 6.49 g/m*3 7.7 C 3.2 km/h
817 13-03-2020 20:00:00 7.7 C 6.49 g/m*3 7.7 C 3.2 km/h
818 13-03-2020 20:05:00 7.6 C 6.44 g/m*3 7.6 C 3.2 km/h
819 13-03-2020 20:10:00 7.4 C 6.44 g/m*3 7.4 C 4.8 km/h
820 13-03-2020 20:15:00 7.4 C 6.44 g/m*3 7.4 C 3.2 km/h
821 13-03-2020 20:20:00 7.3 C 6.4 g/m*3 5.81 C 8.1 km/h
822 13-03-2020 20:25:00 7.2 C 6.44 g/m*3 7.2 C 4.8 km/h
823 13-03-2020 20:30:00 7.1 C 6.32 g/m*3 6.02 C 6.4 km/h
824 13-03-2020 20:35:00 7.1 C 6.32 g/m*3 6.02 C 6.4 km/h
825 13-03-2020 20:40:00 7.1 C 6.4 g/m*3 7.1 C 3.2 km/h
Sensor: Nr:Datum:Temp:Abs-Feuchte:Windchill:Wind:
Aussen-T/F 826 13-03-2020 20:45:00 7 C 6.43 g/m*3 5.9 C 6.4 km/h
827 13-03-2020 20:50:00 6.9 C 6.39 g/m*3 6.9 C 4.8 km/h
828 13-03-2020 20:55:00 6.9 C 6.39 g/m*3 6.9 C 4.8 km/h
829 13-03-2020 21:00:00 6.8 C 6.35 g/m*3 6.8 C 4.8 km/h
830 13-03-2020 21:05:00 6.8 C 6.35 g/m*3 5.22 C 8.1 km/h
831 13-03-2020 21:10:00 6.7 C 6.38 g/m*3 6.7 C 4.8 km/h
832 13-03-2020 21:15:00 6.6 C 6.34 g/m*3 5.44 C 6.4 km/h
833 13-03-2020 21:20:00 6.5 C 6.3 g/m*3 4.87 C 8.1 km/h
834 13-03-2020 21:25:00 6.4 C 6.26 g/m*3 6.4 C 4.8 km/h
835 13-03-2020 21:30:00 6.4 C 6.26 g/m*3 6.4 C 4.8 km/h
836 13-03-2020 21:35:00 6.4 C 6.33 g/m*3 6.4 C 3.2 km/h
837 13-03-2020 21:40:00 6.3 C 6.29 g/m*3 5.1 C 6.4 km/h
838 13-03-2020 21:45:00 6.3 C 6.29 g/m*3 6.3 C 4.8 km/h
839 13-03-2020 21:50:00 6.3 C 6.29 g/m*3 5.1 C 6.4 km/h
840 13-03-2020 21:55:00 6.2 C 6.32 g/m*3 6.2 C 4.8 km/h
841 13-03-2020 22:00:00 6.2 C 6.25 g/m*3 6.2 C 4.8 km/h
842 13-03-2020 22:05:00 6.1 C 6.28 g/m*3 6.1 C 4.8 km/h
843 13-03-2020 22:10:00 6.1 C 6.28 g/m*3 6.1 C 3.2 km/h
844 13-03-2020 22:15:00 5.9 C 6.27 g/m*3 5.9 C 3.2 km/h
845 13-03-2020 22:20:00 5.9 C 6.27 g/m*3 5.9 C 4.8 km/h
846 13-03-2020 22:25:00 5.9 C 6.27 g/m*3 5.9 C 3.2 km/h
847 13-03-2020 22:30:00 5.9 C 6.27 g/m*3 5.9 C 1.6 km/h
848 13-03-2020 22:35:00 5.8 C 6.23 g/m*3 5.8 C 1.6 km/h
849 13-03-2020 22:40:00 5.8 C 6.23 g/m*3 5.8 C 3.2 km/h
850 13-03-2020 22:45:00 5.8 C 6.3 g/m*3 5.8 C 4.8 km/h
Sensor: Nr:Datum:Temp:Abs-Feuchte:Windchill:Wind:
Aussen-T/F 851 13-03-2020 22:50:00 5.8 C 6.3 g/m*3 5.8 C 1.6 km/h
852 13-03-2020 22:55:00 5.9 C 6.35 g/m*3 5.9 C 3.2 km/h
853 13-03-2020 23:00:00 5.9 C 6.35 g/m*3 5.9 C 1.6 km/h
854 13-03-2020 23:05:00 6 C 6.39 g/m*3 6 C 4.8 km/h
855 13-03-2020 23:10:00 6.1 C 6.36 g/m*3 6.1 C 3.2 km/h
856 13-03-2020 23:15:00 6.1 C 6.36 g/m*3 6.1 C 3.2 km/h
857 13-03-2020 23:20:00 6.2 C 6.4 g/m*3 6.2 C 0 km/h
858 13-03-2020 23:25:00 6.1 C 6.36 g/m*3 6.1 C 0 km/h
859 13-03-2020 23:30:00 6.1 C 6.36 g/m*3 6.1 C 1.6 km/h
860 13-03-2020 23:35:00 6.1 C 6.36 g/m*3 6.1 C 0 km/h
861 13-03-2020 23:40:00 6 C 6.31 g/m*3 6 C 1.6 km/h
862 13-03-2020 23:45:00 6 C 6.39 g/m*3 6 C 0 km/h
863 13-03-2020 23:50:00 5.9 C 6.35 g/m*3 5.9 C 0 km/h
864 13-03-2020 23:55:00 5.9 C 6.35 g/m*3 5.9 C 0 km/h
865 14-03-2020 00:00:00 5.8 C 6.3 g/m*3 5.8 C 0 km/h
866 14-03-2020 00:05:00 5.8 C 6.3 g/m*3 5.8 C 1.6 km/h
867 14-03-2020 00:10:00 5.7 C 6.26 g/m*3 5.7 C 1.6 km/h
868 14-03-2020 00:15:00 5.6 C 6.22 g/m*3 5.6 C 1.6 km/h
869 14-03-2020 00:20:00 5.4 C 6.14 g/m*3 5.4 C 4.8 km/h
870 14-03-2020 00:25:00 5.3 C 6.1 g/m*3 5.3 C 1.6 km/h
871 14-03-2020 00:30:00 5.3 C 6.1 g/m*3 5.3 C 1.6 km/h
872 14-03-2020 00:35:00 5.2 C 6.13 g/m*3 5.2 C 3.2 km/h
873 14-03-2020 00:40:00 5.1 C 6.02 g/m*3 5.1 C 3.2 km/h
874 14-03-2020 00:45:00 4.9 C 6.01 g/m*3 4.9 C 3.2 km/h
875 14-03-2020 00:50:00 4.7 C 5.93 g/m*3 4.7 C 3.2 km/h
Sensor: Nr:Datum:Temp:Abs-Feuchte:Windchill:Wind:
Aussen-T/F 876 14-03-2020 00:55:00 4.6 C 5.89 g/m*3 4.6 C 3.2 km/h
877 14-03-2020 01:00:00 4.4 C 5.81 g/m*3 4.4 C 0 km/h
878 14-03-2020 01:05:00 4.3 C 5.77 g/m*3 4.3 C 0 km/h
879 14-03-2020 01:10:00 4.1 C 5.7 g/m*3 4.1 C 0 km/h
880 14-03-2020 01:15:00 3.9 C 5.68 g/m*3 3.9 C 0 km/h
881 14-03-2020 01:20:00 3.8 C 5.65 g/m*3 3.8 C 0 km/h
882 14-03-2020 01:25:00 3.7 C 5.61 g/m*3 3.7 C 0 km/h
883 14-03-2020 01:30:00 3.6 C 5.63 g/m*3 3.6 C 0 km/h
884 14-03-2020 01:35:00 3.5 C 5.6 g/m*3 3.5 C 0 km/h
885 14-03-2020 01:40:00 3.4 C 5.56 g/m*3 3.4 C 0 km/h
886 14-03-2020 01:45:00 3.4 C 5.62 g/m*3 3.4 C 0 km/h
887 14-03-2020 01:50:00 3.3 C 5.58 g/m*3 3.3 C 0 km/h
888 14-03-2020 01:55:00 3.3 C 5.58 g/m*3 3.3 C 0 km/h
889 14-03-2020 02:00:00 3.4 C 5.68 g/m*3 3.4 C 0 km/h
890 14-03-2020 02:05:00 3.6 C 5.76 g/m*3 3.6 C 0 km/h
891 14-03-2020 02:10:00 3.7 C 5.8 g/m*3 3.7 C 0 km/h
892 14-03-2020 02:15:00 3.8 C 5.83 g/m*3 3.8 C 0 km/h
893 14-03-2020 02:20:00 3.8 C 5.83 g/m*3 3.8 C 3.2 km/h
894 14-03-2020 02:25:00 3.9 C 5.94 g/m*3 3.9 C 0 km/h
895 14-03-2020 02:30:00 3.9 C 5.94 g/m*3 3.9 C 0 km/h
896 14-03-2020 02:35:00 3.9 C 5.87 g/m*3 3.9 C 0 km/h
897 14-03-2020 02:40:00 3.9 C 5.87 g/m*3 3.9 C 4.8 km/h
898 14-03-2020 02:45:00 3.9 C 5.87 g/m*3 3.9 C 1.6 km/h
899 14-03-2020 02:50:00 3.8 C 5.83 g/m*3 3.8 C 0 km/h
900 14-03-2020 02:55:00 3.6 C 5.69 g/m*3 3.6 C 0 km/h
Sensor: Nr:Datum:Temp:Abs-Feuchte:Windchill:Wind:
Aussen-T/F 901 14-03-2020 03:00:00 3.5 C 5.72 g/m*3 3.5 C 1.6 km/h
902 14-03-2020 03:05:00 3.4 C 5.68 g/m*3 3.4 C 0 km/h
903 14-03-2020 03:10:00 3.4 C 5.68 g/m*3 3.4 C 0 km/h
904 14-03-2020 03:15:00 3.2 C 5.54 g/m*3 3.2 C 0 km/h
905 14-03-2020 03:20:00 3 C 5.47 g/m*3 3 C 0 km/h
906 14-03-2020 03:25:00 2.8 C 5.4 g/m*3 2.8 C 0 km/h
907 14-03-2020 03:30:00 2.7 C 5.36 g/m*3 2.7 C 0 km/h
908 14-03-2020 03:35:00 2.5 C 5.29 g/m*3 2.5 C 0 km/h
909 14-03-2020 03:40:00 2.4 C 5.31 g/m*3 2.4 C 0 km/h
910 14-03-2020 03:45:00 2.4 C 5.31 g/m*3 2.4 C 0 km/h
911 14-03-2020 03:50:00 2.4 C 5.31 g/m*3 2.4 C 0 km/h
912 14-03-2020 03:55:00 2.3 C 5.27 g/m*3 2.3 C 0 km/h
913 14-03-2020 04:00:00 2.4 C 5.31 g/m*3 2.4 C 0 km/h
914 14-03-2020 04:05:00 2.5 C 5.4 g/m*3 2.5 C 0 km/h
915 14-03-2020 04:10:00 2.6 C 5.44 g/m*3 2.6 C 0 km/h
916 14-03-2020 04:15:00 2.6 C 5.44 g/m*3 2.6 C 0 km/h
917 14-03-2020 04:20:00 2.6 C 5.44 g/m*3 2.6 C 0 km/h
918 14-03-2020 04:25:00 2.6 C 5.44 g/m*3 2.6 C 0 km/h
919 14-03-2020 04:30:00 2.5 C 5.4 g/m*3 2.5 C 0 km/h
920 14-03-2020 04:35:00 2.5 C 5.4 g/m*3 2.5 C 0 km/h
921 14-03-2020 04:40:00 2.5 C 5.4 g/m*3 2.5 C 0 km/h
922 14-03-2020 04:45:00 2.4 C 5.37 g/m*3 2.4 C 0 km/h
923 14-03-2020 04:50:00 2.3 C 5.33 g/m*3 2.3 C 0 km/h
924 14-03-2020 04:55:00 2.3 C 5.33 g/m*3 2.3 C 0 km/h
925 14-03-2020 05:00:00 2.3 C 5.33 g/m*3 2.3 C 0 km/h
Sensor: Nr:Datum:Temp:Abs-Feuchte:Windchill:Wind:
Aussen-T/F 926 14-03-2020 05:05:00 2.2 C 5.29 g/m*3 2.2 C 0 km/h
927 14-03-2020 05:10:00 2.2 C 5.29 g/m*3 2.2 C 0 km/h
928 14-03-2020 05:15:00 2.2 C 5.29 g/m*3 2.2 C 0 km/h
929 14-03-2020 05:20:00 2.1 C 5.26 g/m*3 2.1 C 0 km/h
930 14-03-2020 05:25:00 2 C 5.22 g/m*3 2 C 0 km/h
931 14-03-2020 05:30:00 1.9 C 5.19 g/m*3 1.9 C 0 km/h
932 14-03-2020 05:35:00 1.8 C 5.15 g/m*3 1.8 C 0 km/h
933 14-03-2020 05:40:00 1.8 C 5.15 g/m*3 1.8 C 0 km/h
934 14-03-2020 05:45:00 1.8 C 5.15 g/m*3 1.8 C 0 km/h
935 14-03-2020 05:50:00 1.8 C 5.21 g/m*3 1.8 C 1.6 km/h
936 14-03-2020 05:55:00 1.8 C 5.21 g/m*3 1.8 C 0 km/h
937 14-03-2020 06:00:00 1.8 C 5.15 g/m*3 1.8 C 0 km/h
938 14-03-2020 06:05:00 1.7 C 5.12 g/m*3 1.7 C 0 km/h
939 14-03-2020 06:10:00 1.6 C 5.08 g/m*3 1.6 C 0 km/h
940 14-03-2020 06:15:00 1.5 C 5.05 g/m*3 1.5 C 0 km/h
941 14-03-2020 06:20:00 1.5 C 5.05 g/m*3 1.5 C 0 km/h
942 14-03-2020 06:25:00 1.5 C 5.1 g/m*3 1.5 C 0 km/h
943 14-03-2020 06:30:00 1.5 C 5.1 g/m*3 1.5 C 0 km/h
944 14-03-2020 06:35:00 1.4 C 5.07 g/m*3 1.4 C 0 km/h
945 14-03-2020 06:40:00 1.5 C 5.1 g/m*3 1.5 C 0 km/h
946 14-03-2020 06:45:00 1.6 C 5.14 g/m*3 1.6 C 0 km/h
947 14-03-2020 06:50:00 1.7 C 5.17 g/m*3 1.7 C 1.6 km/h
948 14-03-2020 06:55:00 1.8 C 5.21 g/m*3 1.8 C 0 km/h
949 14-03-2020 07:00:00 1.8 C 5.21 g/m*3 1.8 C 0 km/h
950 14-03-2020 07:05:00 1.7 C 5.17 g/m*3 1.7 C 0 km/h
Sensor: Nr:Datum:Temp:Abs-Feuchte:Windchill:Wind:
Aussen-T/F 951 14-03-2020 07:10:00 1.6 C 5.14 g/m*3 1.6 C 0 km/h
952 14-03-2020 07:15:00 1.6 C 5.14 g/m*3 1.6 C 0 km/h
953 14-03-2020 07:20:00 1.5 C 5.1 g/m*3 1.5 C 0 km/h
954 14-03-2020 07:25:00 1.5 C 5.1 g/m*3 1.5 C 0 km/h
955 14-03-2020 07:30:00 1.5 C 5.1 g/m*3 1.5 C 0 km/h
956 14-03-2020 07:35:00 1.5 C 5.1 g/m*3 1.5 C 0 km/h
957 14-03-2020 07:40:00 1.5 C 5.1 g/m*3 1.5 C 0 km/h
958 14-03-2020 07:45:00 1.6 C 5.14 g/m*3 1.6 C 0 km/h
959 14-03-2020 07:50:00 1.6 C 5.14 g/m*3 1.6 C 0 km/h
960 14-03-2020 07:55:00 1.6 C 5.14 g/m*3 1.6 C 0 km/h
961 14-03-2020 08:00:00 1.6 C 5.19 g/m*3 1.6 C 0 km/h
962 14-03-2020 08:05:00 1.7 C 5.17 g/m*3 1.7 C 0 km/h
963 14-03-2020 08:10:00 1.7 C 5.17 g/m*3 1.7 C 0 km/h
964 14-03-2020 08:15:00 1.8 C 5.26 g/m*3 1.8 C 0 km/h
965 14-03-2020 08:20:00 1.9 C 5.3 g/m*3 1.9 C 0 km/h
966 14-03-2020 08:25:00 2 C 5.33 g/m*3 2 C 0 km/h
967 14-03-2020 08:30:00 2.1 C 5.37 g/m*3 2.1 C 0 km/h
968 14-03-2020 08:35:00 2.2 C 5.41 g/m*3 2.2 C 0 km/h
969 14-03-2020 08:40:00 2.3 C 5.44 g/m*3 2.3 C 0 km/h
970 14-03-2020 08:45:00 2.4 C 5.48 g/m*3 2.4 C 0 km/h
971 14-03-2020 08:50:00 2.5 C 5.52 g/m*3 2.5 C 0 km/h
972 14-03-2020 08:55:00 2.6 C 5.56 g/m*3 2.6 C 0 km/h
973 14-03-2020 09:00:00 2.7 C 5.59 g/m*3 2.7 C 0 km/h
974 14-03-2020 09:05:00 2.8 C 5.63 g/m*3 2.8 C 0 km/h
975 14-03-2020 09:10:00 3 C 5.71 g/m*3 3 C 0 km/h
Sensor: Nr:Datum:Temp:Abs-Feuchte:Windchill:Wind:
Aussen-T/F 976 14-03-2020 09:15:00 3.2 C 5.79 g/m*3 3.2 C 0 km/h
977 14-03-2020 09:20:00 3.3 C 5.82 g/m*3 3.3 C 0 km/h
978 14-03-2020 09:25:00 3.4 C 5.86 g/m*3 3.4 C 0 km/h
979 14-03-2020 09:30:00 3.7 C 5.98 g/m*3 3.7 C 0 km/h
980 14-03-2020 09:35:00 3.8 C 6.02 g/m*3 3.8 C 0 km/h
981 14-03-2020 09:40:00 3.9 C 6.06 g/m*3 3.9 C 1.6 km/h
982 14-03-2020 09:45:00 4.2 C 6.19 g/m*3 4.2 C 4.8 km/h
983 14-03-2020 09:50:00 4.3 C 6.23 g/m*3 4.3 C 1.6 km/h
984 14-03-2020 09:55:00 4.4 C 6.27 g/m*3 4.4 C 0 km/h
985 14-03-2020 10:00:00 4.6 C 6.35 g/m*3 4.6 C 0 km/h
986 14-03-2020 10:05:00 4.8 C 6.44 g/m*3 4.8 C 0 km/h
987 14-03-2020 10:10:00 4.9 C 6.41 g/m*3 4.9 C 0 km/h
988 14-03-2020 10:15:00 5.1 C 6.43 g/m*3 5.1 C 0 km/h
989 14-03-2020 10:20:00 5.2 C 6.4 g/m*3 5.2 C 0 km/h
990 14-03-2020 10:25:00 5.4 C 6.49 g/m*3 5.4 C 0 km/h
991 14-03-2020 10:30:00 5.6 C 6.57 g/m*3 5.6 C 0 km/h
992 14-03-2020 10:35:00 5.8 C 6.59 g/m*3 5.8 C 0 km/h
993 14-03-2020 10:40:00 6.2 C 6.77 g/m*3 6.2 C 0 km/h
994 14-03-2020 10:45:00 6.6 C 6.87 g/m*3 6.6 C 3.2 km/h
995 14-03-2020 10:50:00 6.9 C 6.93 g/m*3 6.9 C 0 km/h
996 14-03-2020 10:55:00 7.1 C 6.86 g/m*3 7.1 C 3.2 km/h
997 14-03-2020 11:00:00 7.3 C 6.87 g/m*3 7.3 C 3.2 km/h
998 14-03-2020 11:05:00 7.5 C 6.96 g/m*3 7.5 C 1.6 km/h
999 14-03-2020 11:10:00 7.8 C 6.94 g/m*3 7.8 C 1.6 km/h
1000 14-03-2020 11:15:00 8.1 C 6.99 g/m*3 8.1 C 0 km/h
Sensor: Nr:Datum:Temp:Abs-Feuchte:Windchill:Wind:
Aussen-T/F 1001 14-03-2020 11:20:00 8.3 C 7 g/m*3 8.3 C 1.6 km/h
1002 14-03-2020 11:25:00 8.5 C 7 g/m*3 8.5 C 1.6 km/h
1003 14-03-2020 11:30:00 8.7 C 7.09 g/m*3 8.7 C 0 km/h
1004 14-03-2020 11:35:00 8.8 C 6.96 g/m*3 8.8 C 3.2 km/h
1005 14-03-2020 11:40:00 8.9 C 6.83 g/m*3 8.9 C 0 km/h
1006 14-03-2020 11:45:00 8.9 C 6.92 g/m*3 8.9 C 3.2 km/h
1007 14-03-2020 11:50:00 8.9 C 6.92 g/m*3 8.9 C 3.2 km/h
1008 14-03-2020 11:55:00 8.9 C 6.83 g/m*3 8.9 C 3.2 km/h
1009 14-03-2020 12:00:00 9.1 C 6.92 g/m*3 9.1 C 1.6 km/h
1010 14-03-2020 12:05:00 9.2 C 6.97 g/m*3 9.2 C 0 km/h
1011 14-03-2020 12:10:00 9.6 C 7.05 g/m*3 9.6 C 0 km/h
1012 14-03-2020 12:15:00 9.8 C 7.05 g/m*3 9.8 C 1.6 km/h
1013 14-03-2020 12:20:00 10.1 C 7 g/m*3 9.48 C 6.4 km/h
1014 14-03-2020 12:25:00 10.3 C 6.9 g/m*3 10.3 C 4.8 km/h
1015 14-03-2020 12:30:00 10.5 C 6.89 g/m*3 9.95 C 6.4 km/h
1016 14-03-2020 12:35:00 10.7 C 6.88 g/m*3 10.7 C 4.8 km/h
1017 14-03-2020 12:40:00 10.8 C 6.72 g/m*3 10.29 C 6.4 km/h
1018 14-03-2020 12:45:00 10.7 C 6.68 g/m*3 9.81 C 8.1 km/h
1019 14-03-2020 12:50:00 10.6 C 6.73 g/m*3 10.6 C 4.8 km/h
1020 14-03-2020 12:55:00 10.5 C 6.79 g/m*3 10.5 C 0 km/h
1021 14-03-2020 13:00:00 10.6 C 6.73 g/m*3 9.69 C 8.1 km/h
1022 14-03-2020 13:05:00 10.7 C 6.68 g/m*3 10.18 C 6.4 km/h
1023 14-03-2020 13:10:00 10.9 C 6.66 g/m*3 10.9 C 4.8 km/h
1024 14-03-2020 13:15:00 11 C 6.51 g/m*3 11 C 4.8 km/h
1025 14-03-2020 13:20:00 10.9 C 6.37 g/m*3 10.9 C 3.2 km/h
Sensor: Nr:Datum:Temp:Abs-Feuchte:Windchill:Wind:
Aussen-T/F 1026 14-03-2020 13:25:00 10.8 C 6.42 g/m*3 10.8 C 4.8 km/h
1027 14-03-2020 13:30:00 10.8 C 6.52 g/m*3 10.8 C 3.2 km/h
1028 14-03-2020 13:35:00 11 C 6.61 g/m*3 11 C 4.8 km/h
1029 14-03-2020 13:40:00 11.2 C 6.59 g/m*3 11.2 C 9.7 km/h
1030 14-03-2020 13:45:00 11.1 C 6.45 g/m*3 11.1 C 6.4 km/h
1031 14-03-2020 13:50:00 11 C 6.41 g/m*3 11 C 4.8 km/h
1032 14-03-2020 13:55:00 11.2 C 6.49 g/m*3 11.2 C 4.8 km/h
1033 14-03-2020 14:00:00 11.4 C 6.26 g/m*3 11.4 C 8.1 km/h
1034 14-03-2020 14:05:00 11.4 C 6.26 g/m*3 11.4 C 4.8 km/h
1035 14-03-2020 14:10:00 11.3 C 6.32 g/m*3 11.3 C 9.7 km/h
1036 14-03-2020 14:15:00 11.3 C 6.53 g/m*3 11.3 C 8.1 km/h
1037 14-03-2020 14:20:00 11.4 C 6.36 g/m*3 11.4 C 4.8 km/h
1038 14-03-2020 14:25:00 11.7 C 6.48 g/m*3 11.7 C 8.1 km/h
1039 14-03-2020 14:30:00 12 C 6.61 g/m*3 12 C 8.1 km/h
1040 14-03-2020 14:35:00 12.2 C 6.58 g/m*3 12.2 C 14.5 km/h
1041 14-03-2020 14:40:00 12.3 C 6.41 g/m*3 12.3 C 12.9 km/h
1042 14-03-2020 14:45:00 12.1 C 6.33 g/m*3 12.1 C 12.9 km/h
1043 14-03-2020 14:50:00 11.8 C 6.1 g/m*3 11.8 C 8.1 km/h
1044 14-03-2020 14:55:00 11.6 C 6.03 g/m*3 11.6 C 8.1 km/h
1045 14-03-2020 15:00:00 11.4 C 6.16 g/m*3 11.4 C 8.1 km/h
1046 14-03-2020 15:05:00 11.3 C 6.12 g/m*3 11.3 C 9.7 km/h
1047 14-03-2020 15:10:00 11.2 C 6.08 g/m*3 11.2 C 4.8 km/h
1048 14-03-2020 15:15:00 11.1 C 6.04 g/m*3 11.1 C 3.2 km/h
1049 14-03-2020 15:20:00 11.1 C 6.25 g/m*3 11.1 C 3.2 km/h
1050 14-03-2020 15:25:00 11.2 C 6.08 g/m*3 11.2 C 8.1 km/h
Sensor: Nr:Datum:Temp:Abs-Feuchte:Windchill:Wind:
Aussen-T/F 1051 14-03-2020 15:30:00 11.2 C 5.98 g/m*3 11.2 C 1.6 km/h
1052 14-03-2020 15:35:00 11.2 C 5.98 g/m*3 11.2 C 8.1 km/h
1053 14-03-2020 15:40:00 11.1 C 5.94 g/m*3 11.1 C 6.4 km/h
1054 14-03-2020 15:45:00 11.1 C 5.94 g/m*3 11.1 C 6.4 km/h
1055 14-03-2020 15:50:00 11.2 C 6.08 g/m*3 11.2 C 6.4 km/h
1056 14-03-2020 15:55:00 11.2 C 5.88 g/m*3 11.2 C 6.4 km/h
1057 14-03-2020 16:00:00 11.2 C 5.98 g/m*3 11.2 C 3.2 km/h
1058 14-03-2020 16:05:00 11.2 C 6.08 g/m*3 11.2 C 0 km/h
1059 14-03-2020 16:10:00 11.1 C 5.94 g/m*3 11.1 C 4.8 km/h
1060 14-03-2020 16:15:00 11 C 6.11 g/m*3 11 C 1.6 km/h
1061 14-03-2020 16:20:00 10.9 C 6.27 g/m*3 10.41 C 6.4 km/h
1062 14-03-2020 16:25:00 10.8 C 6.33 g/m*3 10.29 C 6.4 km/h
1063 14-03-2020 16:30:00 10.7 C 6.38 g/m*3 9.26 C 11.3 km/h
1064 14-03-2020 16:35:00 10.6 C 6.25 g/m*3 9.4 C 9.7 km/h
1065 14-03-2020 16:40:00 10.5 C 6.11 g/m*3 9.95 C 6.4 km/h
1066 14-03-2020 16:45:00 10.4 C 6.17 g/m*3 9.46 C 8.1 km/h
1067 14-03-2020 16:50:00 10.3 C 6.13 g/m*3 10.3 C 4.8 km/h
1068 14-03-2020 16:55:00 10.3 C 6.13 g/m*3 10.3 C 1.6 km/h
1069 14-03-2020 17:00:00 10.3 C 6.22 g/m*3 10.3 C 1.6 km/h
1070 14-03-2020 17:05:00 10.3 C 6.22 g/m*3 10.3 C 4.8 km/h
1071 14-03-2020 17:10:00 10.3 C 6.32 g/m*3 10.3 C 4.8 km/h
1072 14-03-2020 17:15:00 10.3 C 6.42 g/m*3 9.72 C 6.4 km/h
1073 14-03-2020 17:20:00 10.3 C 6.32 g/m*3 10.3 C 1.6 km/h
1074 14-03-2020 17:25:00 10.3 C 6.42 g/m*3 10.3 C 0 km/h
1075 14-03-2020 17:30:00 10.6 C 6.44 g/m*3 10.6 C 0 km/h
Sensor: Nr:Datum:Temp:Abs-Feuchte:Windchill:Wind:
Aussen-T/F 1076 14-03-2020 17:35:00 10.7 C 6.29 g/m*3 10.7 C 0 km/h
1077 14-03-2020 17:40:00 10.6 C 6.25 g/m*3 10.6 C 0 km/h
1078 14-03-2020 17:45:00 10.4 C 6.26 g/m*3 10.4 C 3.2 km/h
1079 14-03-2020 17:50:00 10.3 C 6.32 g/m*3 10.3 C 3.2 km/h
1080 14-03-2020 17:55:00 10.2 C 6.19 g/m*3 10.2 C 4.8 km/h
1081 14-03-2020 18:00:00 10 C 6.2 g/m*3 10 C 0 km/h
1082 14-03-2020 18:05:00 9.8 C 6.22 g/m*3 9.8 C 0 km/h
1083 14-03-2020 18:10:00 9.5 C 6.28 g/m*3 9.5 C 3.2 km/h
1084 14-03-2020 18:15:00 9.2 C 6.25 g/m*3 9.2 C 3.2 km/h
1085 14-03-2020 18:20:00 8.8 C 6.18 g/m*3 8.8 C 0 km/h
1086 14-03-2020 18:25:00 8.5 C 6.15 g/m*3 8.5 C 4.8 km/h
1087 14-03-2020 18:30:00 8.4 C 6.19 g/m*3 8.4 C 4.8 km/h
1088 14-03-2020 18:35:00 8.3 C 6.32 g/m*3 8.3 C 0 km/h
1089 14-03-2020 18:40:00 7.9 C 6.16 g/m*3 7.9 C 0 km/h
1090 14-03-2020 18:45:00 7.7 C 6.24 g/m*3 7.7 C 0 km/h
1091 14-03-2020 18:50:00 7.3 C 6.16 g/m*3 7.3 C 0 km/h
1092 14-03-2020 18:55:00 7 C 6.12 g/m*3 7 C 0 km/h
1093 14-03-2020 19:00:00 6.7 C 6.08 g/m*3 6.7 C 4.8 km/h
1094 14-03-2020 19:05:00 6.5 C 6.07 g/m*3 6.5 C 4.8 km/h
1095 14-03-2020 19:10:00 6.3 C 6.07 g/m*3 6.3 C 4.8 km/h
1096 14-03-2020 19:15:00 6.2 C 6.1 g/m*3 6.2 C 1.6 km/h
1097 14-03-2020 19:20:00 6 C 6.02 g/m*3 6 C 4.8 km/h
1098 14-03-2020 19:25:00 5.8 C 6.02 g/m*3 5.8 C 4.8 km/h
1099 14-03-2020 19:30:00 5.8 C 6.02 g/m*3 5.8 C 0 km/h
1100 14-03-2020 19:35:00 5.7 C 6.05 g/m*3 5.7 C 4.8 km/h
Sensor: Nr:Datum:Temp:Abs-Feuchte:Windchill:Wind:
Aussen-T/F 1101 14-03-2020 19:40:00 5.7 C 6.05 g/m*3 5.7 C 4.8 km/h
1102 14-03-2020 19:45:00 5.6 C 6.08 g/m*3 5.6 C 4.8 km/h
1103 14-03-2020 19:50:00 5.6 C 6.08 g/m*3 4.29 C 6.4 km/h
1104 14-03-2020 19:55:00 5.6 C 6.08 g/m*3 4.29 C 6.4 km/h
1105 14-03-2020 20:00:00 5.5 C 6.04 g/m*3 5.5 C 4.8 km/h
1106 14-03-2020 20:05:00 5.4 C 6 g/m*3 4.06 C 6.4 km/h
1107 14-03-2020 20:10:00 5.4 C 6 g/m*3 5.4 C 4.8 km/h
1108 14-03-2020 20:15:00 5.4 C 6.07 g/m*3 5.4 C 3.2 km/h
1109 14-03-2020 20:20:00 5.3 C 6.03 g/m*3 5.3 C 4.8 km/h
1110 14-03-2020 20:25:00 5.3 C 6.03 g/m*3 5.3 C 4.8 km/h
1111 14-03-2020 20:30:00 5.3 C 6.03 g/m*3 5.3 C 4.8 km/h
1112 14-03-2020 20:35:00 5.3 C 6.03 g/m*3 5.3 C 4.8 km/h
1113 14-03-2020 20:40:00 5.4 C 6.07 g/m*3 5.4 C 4.8 km/h
1114 14-03-2020 20:45:00 5.6 C 6.15 g/m*3 5.6 C 1.6 km/h
1115 14-03-2020 20:50:00 5.6 C 6.15 g/m*3 5.6 C 1.6 km/h
1116 14-03-2020 20:55:00 5.7 C 6.19 g/m*3 5.7 C 0 km/h
1117 14-03-2020 21:00:00 5.8 C 6.23 g/m*3 5.8 C 0 km/h
1118 14-03-2020 21:05:00 5.9 C 6.27 g/m*3 5.9 C 0 km/h
1119 14-03-2020 21:10:00 5.9 C 6.27 g/m*3 5.9 C 0 km/h
1120 14-03-2020 21:15:00 6 C 6.24 g/m*3 6 C 0 km/h
1121 14-03-2020 21:20:00 6 C 6.24 g/m*3 6 C 0 km/h
1122 14-03-2020 21:25:00 6.1 C 6.28 g/m*3 6.1 C 0 km/h
1123 14-03-2020 21:30:00 6.1 C 6.28 g/m*3 6.1 C 3.2 km/h
1124 14-03-2020 21:35:00 6 C 6.17 g/m*3 6 C 3.2 km/h
1125 14-03-2020 21:40:00 5.9 C 6.13 g/m*3 5.9 C 3.2 km/h
Sensor: Nr:Datum:Temp:Abs-Feuchte:Windchill:Wind:
Aussen-T/F 1126 14-03-2020 21:45:00 5.8 C 6.09 g/m*3 5.8 C 3.2 km/h
1127 14-03-2020 21:50:00 5.8 C 6.09 g/m*3 5.8 C 4.8 km/h
1128 14-03-2020 21:55:00 5.7 C 6.12 g/m*3 5.7 C 1.6 km/h
1129 14-03-2020 22:00:00 5.6 C 6.08 g/m*3 5.6 C 4.8 km/h
1130 14-03-2020 22:05:00 5.6 C 6.15 g/m*3 5.6 C 4.8 km/h
1131 14-03-2020 22:10:00 5.6 C 6.08 g/m*3 5.6 C 4.8 km/h
1132 14-03-2020 22:15:00 5.6 C 6.15 g/m*3 5.6 C 4.8 km/h
1133 14-03-2020 22:20:00 5.5 C 6.11 g/m*3 5.5 C 3.2 km/h
1134 14-03-2020 22:25:00 5.5 C 6.11 g/m*3 5.5 C 1.6 km/h
1135 14-03-2020 22:30:00 5.5 C 6.11 g/m*3 5.5 C 1.6 km/h
1136 14-03-2020 22:35:00 5.5 C 6.11 g/m*3 5.5 C 0 km/h
1137 14-03-2020 22:40:00 5.5 C 6.11 g/m*3 5.5 C 3.2 km/h
1138 14-03-2020 22:45:00 5.6 C 6.15 g/m*3 5.6 C 4.8 km/h
1139 14-03-2020 22:50:00 5.6 C 6.15 g/m*3 5.6 C 1.6 km/h
1140 14-03-2020 22:55:00 5.5 C 6.11 g/m*3 5.5 C 4.8 km/h
1141 14-03-2020 23:00:00 5.6 C 6.15 g/m*3 5.6 C 3.2 km/h
1142 14-03-2020 23:05:00 5.6 C 6.15 g/m*3 5.6 C 0 km/h
1143 14-03-2020 23:10:00 5.7 C 6.19 g/m*3 5.7 C 0 km/h
1144 14-03-2020 23:15:00 5.8 C 6.23 g/m*3 5.8 C 0 km/h
1145 14-03-2020 23:20:00 5.8 C 6.23 g/m*3 5.8 C 0 km/h
1146 14-03-2020 23:25:00 5.9 C 6.27 g/m*3 5.9 C 1.6 km/h
1147 14-03-2020 23:30:00 6 C 6.31 g/m*3 6 C 0 km/h
1148 14-03-2020 23:35:00 6.1 C 6.36 g/m*3 6.1 C 0 km/h
1149 14-03-2020 23:40:00 6.1 C 6.36 g/m*3 6.1 C 0 km/h
1150 14-03-2020 23:45:00 6.1 C 6.36 g/m*3 6.1 C 0 km/h
Sensor: Nr:Datum:Temp:Abs-Feuchte:Windchill:Wind:
Aussen-T/F 1151 14-03-2020 23:50:00 6.2 C 6.4 g/m*3 6.2 C 0 km/h
1152 14-03-2020 23:55:00 6.2 C 6.4 g/m*3 6.2 C 0 km/h
1153 15-03-2020 00:00:00 6.2 C 6.4 g/m*3 6.2 C 0 km/h
1154 15-03-2020 00:05:00 6.2 C 6.4 g/m*3 6.2 C 1.6 km/h
1155 15-03-2020 00:10:00 6.3 C 6.37 g/m*3 6.3 C 1.6 km/h
1156 15-03-2020 00:15:00 6.3 C 6.37 g/m*3 6.3 C 1.6 km/h
1157 15-03-2020 00:20:00 6.3 C 6.37 g/m*3 6.3 C 0 km/h
1158 15-03-2020 00:25:00 6.3 C 6.29 g/m*3 6.3 C 1.6 km/h
1159 15-03-2020 00:30:00 6.3 C 6.22 g/m*3 6.3 C 0 km/h
1160 15-03-2020 00:35:00 6.4 C 6.26 g/m*3 6.4 C 0 km/h
1161 15-03-2020 00:40:00 6.4 C 6.33 g/m*3 6.4 C 0 km/h
1162 15-03-2020 00:45:00 6.4 C 6.26 g/m*3 6.4 C 0 km/h
1163 15-03-2020 00:50:00 6.4 C 6.26 g/m*3 6.4 C 0 km/h
1164 15-03-2020 00:55:00 6.3 C 6.29 g/m*3 6.3 C 0 km/h
1165 15-03-2020 01:00:00 6.2 C 6.18 g/m*3 6.2 C 0 km/h
1166 15-03-2020 01:05:00 6.2 C 6.25 g/m*3 6.2 C 0 km/h
1167 15-03-2020 01:10:00 6.1 C 6.21 g/m*3 6.1 C 0 km/h
1168 15-03-2020 01:15:00 6.1 C 6.28 g/m*3 6.1 C 0 km/h
1169 15-03-2020 01:20:00 6 C 6.24 g/m*3 6 C 0 km/h
1170 15-03-2020 01:25:00 5.9 C 6.2 g/m*3 5.9 C 0 km/h
1171 15-03-2020 01:30:00 5.8 C 6.16 g/m*3 5.8 C 0 km/h
1172 15-03-2020 01:35:00 5.8 C 6.23 g/m*3 5.8 C 0 km/h
1173 15-03-2020 01:40:00 5.8 C 6.23 g/m*3 5.8 C 0 km/h
1174 15-03-2020 01:45:00 5.7 C 6.19 g/m*3 5.7 C 0 km/h
1175 15-03-2020 01:50:00 5.7 C 6.19 g/m*3 5.7 C 0 km/h
Sensor: Nr:Datum:Temp:Abs-Feuchte:Windchill:Wind:
Aussen-T/F 1176 15-03-2020 01:55:00 5.7 C 6.19 g/m*3 5.7 C 0 km/h
1177 15-03-2020 02:00:00 5.6 C 6.15 g/m*3 5.6 C 0 km/h
1178 15-03-2020 02:05:00 5.6 C 6.22 g/m*3 5.6 C 0 km/h
1179 15-03-2020 02:10:00 5.6 C 6.22 g/m*3 5.6 C 0 km/h
1180 15-03-2020 02:15:00 5.6 C 6.22 g/m*3 5.6 C 0 km/h
1181 15-03-2020 02:20:00 5.6 C 6.22 g/m*3 5.6 C 1.6 km/h
1182 15-03-2020 02:25:00 5.6 C 6.22 g/m*3 5.6 C 0 km/h
1183 15-03-2020 02:30:00 5.6 C 6.22 g/m*3 5.6 C 1.6 km/h
1184 15-03-2020 02:35:00 5.5 C 6.18 g/m*3 5.5 C 3.2 km/h
1185 15-03-2020 02:40:00 5.4 C 6.14 g/m*3 5.4 C 0 km/h
1186 15-03-2020 02:45:00 5.4 C 6.07 g/m*3 5.4 C 3.2 km/h
1187 15-03-2020 02:50:00 5.3 C 6.1 g/m*3 5.3 C 3.2 km/h
1188 15-03-2020 02:55:00 5.3 C 6.1 g/m*3 5.3 C 3.2 km/h
1189 15-03-2020 03:00:00 5.3 C 6.1 g/m*3 5.3 C 3.2 km/h
1190 15-03-2020 03:05:00 5.4 C 6.14 g/m*3 5.4 C 3.2 km/h
1191 15-03-2020 03:10:00 5.3 C 6.1 g/m*3 5.3 C 3.2 km/h
1192 15-03-2020 03:15:00 5.3 C 6.1 g/m*3 5.3 C 3.2 km/h
1193 15-03-2020 03:20:00 5.2 C 5.99 g/m*3 5.2 C 4.8 km/h
1194 15-03-2020 03:25:00 5.1 C 5.95 g/m*3 5.1 C 4.8 km/h
1195 15-03-2020 03:30:00 4.9 C 5.87 g/m*3 4.9 C 3.2 km/h
1196 15-03-2020 03:35:00 4.8 C 5.83 g/m*3 4.8 C 4.8 km/h
1197 15-03-2020 03:40:00 4.7 C 5.8 g/m*3 4.7 C 4.8 km/h
1198 15-03-2020 03:45:00 4.6 C 5.82 g/m*3 3.13 C 6.4 km/h
1199 15-03-2020 03:50:00 4.5 C 5.78 g/m*3 4.5 C 4.8 km/h
1200 15-03-2020 03:55:00 4.4 C 5.75 g/m*3 4.4 C 4.8 km/h
Sensor: Nr:Datum:Temp:Abs-Feuchte:Windchill:Wind:
Aussen-T/F 1201 15-03-2020 04:00:00 4.4 C 5.81 g/m*3 4.4 C 4.8 km/h
1202 15-03-2020 04:05:00 4.3 C 5.77 g/m*3 4.3 C 4.8 km/h
1203 15-03-2020 04:10:00 4.3 C 5.77 g/m*3 4.3 C 4.8 km/h
1204 15-03-2020 04:15:00 4.3 C 5.77 g/m*3 4.3 C 3.2 km/h
1205 15-03-2020 04:20:00 4.3 C 5.77 g/m*3 4.3 C 4.8 km/h
1206 15-03-2020 04:25:00 4.3 C 5.77 g/m*3 4.3 C 4.8 km/h
1207 15-03-2020 04:30:00 4.3 C 5.77 g/m*3 4.3 C 3.2 km/h
1208 15-03-2020 04:35:00 4.2 C 5.73 g/m*3 4.2 C 4.8 km/h
1209 15-03-2020 04:40:00 4.2 C 5.73 g/m*3 2.67 C 6.4 km/h
1210 15-03-2020 04:45:00 4.2 C 5.73 g/m*3 4.2 C 4.8 km/h
1211 15-03-2020 04:50:00 4.2 C 5.73 g/m*3 2.67 C 6.4 km/h
1212 15-03-2020 04:55:00 4.2 C 5.73 g/m*3 4.2 C 3.2 km/h
1213 15-03-2020 05:00:00 4.2 C 5.73 g/m*3 4.2 C 3.2 km/h
1214 15-03-2020 05:05:00 4.2 C 5.73 g/m*3 4.2 C 4.8 km/h
1215 15-03-2020 05:10:00 4.1 C 5.7 g/m*3 4.1 C 3.2 km/h
1216 15-03-2020 05:15:00 4.1 C 5.7 g/m*3 4.1 C 4.8 km/h
1217 15-03-2020 05:20:00 4.1 C 5.7 g/m*3 4.1 C 4.8 km/h
1218 15-03-2020 05:25:00 4.1 C 5.7 g/m*3 4.1 C 1.6 km/h
1219 15-03-2020 05:30:00 4.1 C 5.7 g/m*3 4.1 C 4.8 km/h
1220 15-03-2020 05:35:00 4 C 5.66 g/m*3 4 C 4.8 km/h
1221 15-03-2020 05:40:00 4 C 5.66 g/m*3 4 C 1.6 km/h
1222 15-03-2020 05:45:00 3.9 C 5.62 g/m*3 3.9 C 0 km/h
1223 15-03-2020 05:50:00 3.9 C 5.62 g/m*3 3.9 C 0 km/h
1224 15-03-2020 05:55:00 3.9 C 5.62 g/m*3 3.9 C 0 km/h
1225 15-03-2020 06:00:00 3.9 C 5.62 g/m*3 3.9 C 0 km/h
Sensor: Nr:Datum:Temp:Abs-Feuchte:Windchill:Wind:
Aussen-T/F 1226 15-03-2020 06:05:00 3.8 C 5.58 g/m*3 3.8 C 4.8 km/h
1227 15-03-2020 06:10:00 3.8 C 5.58 g/m*3 3.8 C 3.2 km/h
1228 15-03-2020 06:15:00 3.8 C 5.52 g/m*3 3.8 C 3.2 km/h
1229 15-03-2020 06:20:00 3.7 C 5.55 g/m*3 3.7 C 1.6 km/h
1230 15-03-2020 06:25:00 3.8 C 5.58 g/m*3 3.8 C 4.8 km/h
1231 15-03-2020 06:30:00 3.7 C 5.55 g/m*3 3.7 C 0 km/h
1232 15-03-2020 06:35:00 3.8 C 5.58 g/m*3 3.8 C 3.2 km/h
1233 15-03-2020 06:40:00 4 C 5.59 g/m*3 4 C 3.2 km/h
1234 15-03-2020 06:45:00 4.1 C 5.63 g/m*3 4.1 C 4.8 km/h
1235 15-03-2020 06:50:00 4.1 C 5.63 g/m*3 4.1 C 4.8 km/h
1236 15-03-2020 06:55:00 4.1 C 5.63 g/m*3 4.1 C 3.2 km/h
1237 15-03-2020 07:00:00 4 C 5.59 g/m*3 4 C 3.2 km/h
1238 15-03-2020 07:05:00 3.9 C 5.56 g/m*3 3.9 C 3.2 km/h
1239 15-03-2020 07:10:00 3.8 C 5.52 g/m*3 3.8 C 1.6 km/h
1240 15-03-2020 07:15:00 3.7 C 5.55 g/m*3 3.7 C 4.8 km/h
1241 15-03-2020 07:20:00 3.7 C 5.55 g/m*3 3.7 C 4.8 km/h
1242 15-03-2020 07:25:00 3.7 C 5.55 g/m*3 3.7 C 4.8 km/h
1243 15-03-2020 07:30:00 3.6 C 5.57 g/m*3 3.6 C 4.8 km/h
1244 15-03-2020 07:35:00 3.7 C 5.61 g/m*3 2.09 C 6.4 km/h
1245 15-03-2020 07:40:00 3.8 C 5.65 g/m*3 3.8 C 3.2 km/h
1246 15-03-2020 07:45:00 3.8 C 5.71 g/m*3 3.8 C 3.2 km/h
1247 15-03-2020 07:50:00 3.9 C 5.75 g/m*3 3.9 C 3.2 km/h
1248 15-03-2020 07:55:00 3.9 C 5.75 g/m*3 3.9 C 1.6 km/h
1249 15-03-2020 08:00:00 4.1 C 5.82 g/m*3 4.1 C 0 km/h
1250 15-03-2020 08:05:00 4.2 C 5.86 g/m*3 4.2 C 3.2 km/h
Sensor: Nr:Datum:Temp:Abs-Feuchte:Windchill:Wind:
Aussen-T/F 1251 15-03-2020 08:10:00 4.3 C 5.9 g/m*3 4.3 C 0 km/h
1252 15-03-2020 08:15:00 4.6 C 6.02 g/m*3 4.6 C 0 km/h
1253 15-03-2020 08:20:00 4.7 C 6.06 g/m*3 4.7 C 0 km/h
1254 15-03-2020 08:25:00 5 C 6.18 g/m*3 5 C 0 km/h
1255 15-03-2020 08:30:00 5.2 C 6.27 g/m*3 5.2 C 0 km/h
1256 15-03-2020 08:35:00 5.4 C 6.35 g/m*3 5.4 C 0 km/h
1257 15-03-2020 08:40:00 5.6 C 6.29 g/m*3 5.6 C 0 km/h
1258 15-03-2020 08:45:00 5.8 C 6.3 g/m*3 5.8 C 0 km/h
1259 15-03-2020 08:50:00 5.9 C 6.35 g/m*3 5.9 C 0 km/h
1260 15-03-2020 08:55:00 6.2 C 6.47 g/m*3 6.2 C 0 km/h
1261 15-03-2020 09:00:00 6.4 C 6.56 g/m*3 6.4 C 0 km/h
1262 15-03-2020 09:05:00 6.6 C 6.57 g/m*3 6.6 C 0 km/h
1263 15-03-2020 09:10:00 6.7 C 6.53 g/m*3 6.7 C 0 km/h
1264 15-03-2020 09:15:00 6.9 C 6.62 g/m*3 6.9 C 0 km/h
1265 15-03-2020 09:20:00 7 C 6.66 g/m*3 7 C 0 km/h
1266 15-03-2020 09:25:00 7.1 C 6.71 g/m*3 7.1 C 0 km/h
1267 15-03-2020 09:30:00 7.2 C 6.67 g/m*3 7.2 C 0 km/h
1268 15-03-2020 09:35:00 7.3 C 6.72 g/m*3 7.3 C 0 km/h
1269 15-03-2020 09:40:00 7.5 C 6.72 g/m*3 7.5 C 0 km/h
1270 15-03-2020 09:45:00 7.7 C 6.73 g/m*3 7.7 C 3.2 km/h
1271 15-03-2020 09:50:00 8.1 C 6.66 g/m*3 8.1 C 3.2 km/h
1272 15-03-2020 09:55:00 8.6 C 6.79 g/m*3 8.6 C 3.2 km/h
1273 15-03-2020 10:00:00 9 C 6.7 g/m*3 9 C 1.6 km/h
1274 15-03-2020 10:05:00 9.3 C 6.65 g/m*3 9.3 C 1.6 km/h
1275 15-03-2020 10:10:00 9.5 C 6.64 g/m*3 9.5 C 0 km/h
Sensor: Nr:Datum:Temp:Abs-Feuchte:Windchill:Wind:
Aussen-T/F 1276 15-03-2020 10:15:00 9.6 C 6.78 g/m*3 9.6 C 0 km/h
1277 15-03-2020 10:20:00 9.7 C 6.82 g/m*3 9.7 C 0 km/h
1278 15-03-2020 10:25:00 9.8 C 6.87 g/m*3 9.8 C 0 km/h
1279 15-03-2020 10:30:00 10 C 6.95 g/m*3 10 C 0 km/h
1280 15-03-2020 10:35:00 10.1 C 7 g/m*3 10.1 C 0 km/h
1281 15-03-2020 10:40:00 10.3 C 6.7 g/m*3 10.3 C 4.8 km/h
1282 15-03-2020 10:45:00 10.7 C 6.88 g/m*3 10.7 C 4.8 km/h
1283 15-03-2020 10:50:00 11 C 6.71 g/m*3 10.52 C 6.4 km/h
1284 15-03-2020 10:55:00 11.3 C 6.83 g/m*3 11.3 C 6.4 km/h
1285 15-03-2020 11:00:00 11.6 C 6.86 g/m*3 11.6 C 3.2 km/h
1286 15-03-2020 11:05:00 11.7 C 7.01 g/m*3 11.7 C 4.8 km/h
1287 15-03-2020 11:10:00 12 C 6.71 g/m*3 12 C 4.8 km/h
1288 15-03-2020 11:15:00 12.2 C 6.91 g/m*3 12.2 C 1.6 km/h
1289 15-03-2020 11:20:00 12.6 C 6.75 g/m*3 12.6 C 16.1 km/h
1290 15-03-2020 11:25:00 12.9 C 6.88 g/m*3 12.9 C 16.1 km/h
1291 15-03-2020 11:30:00 13.1 C 6.73 g/m*3 13.1 C 11.3 km/h
1292 15-03-2020 11:35:00 13.4 C 6.97 g/m*3 13.4 C 12.9 km/h
1293 15-03-2020 11:40:00 13.7 C 6.99 g/m*3 13.7 C 12.9 km/h
1294 15-03-2020 11:45:00 13.8 C 7.03 g/m*3 13.8 C 16.1 km/h
1295 15-03-2020 11:50:00 13.9 C 6.83 g/m*3 13.9 C 9.7 km/h
1296 15-03-2020 11:55:00 13.9 C 6.83 g/m*3 13.9 C 9.7 km/h
1297 15-03-2020 12:00:00 13.8 C 6.79 g/m*3 13.8 C 8.1 km/h
1298 15-03-2020 12:05:00 13.8 C 6.91 g/m*3 13.8 C 9.7 km/h
1299 15-03-2020 12:10:00 13.8 C 6.67 g/m*3 13.8 C 8.1 km/h
1300 15-03-2020 12:15:00 13.8 C 6.79 g/m*3 13.8 C 11.3 km/h
Sensor: Nr:Datum:Temp:Abs-Feuchte:Windchill:Wind:
Aussen-T/F 1301 15-03-2020 12:20:00 13.7 C 6.63 g/m*3 13.7 C 16.1 km/h
1302 15-03-2020 12:25:00 13.7 C 6.51 g/m*3 13.7 C 6.4 km/h
1303 15-03-2020 12:30:00 13.9 C 6.83 g/m*3 13.9 C 14.5 km/h
1304 15-03-2020 12:35:00 13.9 C 6.47 g/m*3 13.9 C 19.3 km/h
1305 15-03-2020 12:40:00 14.1 C 6.8 g/m*3 14.1 C 14.5 km/h
1306 15-03-2020 12:45:00 14.1 C 6.67 g/m*3 14.1 C 11.3 km/h
1307 15-03-2020 12:50:00 14.1 C 6.8 g/m*3 14.1 C 4.8 km/h
1308 15-03-2020 12:55:00 14.1 C 6.55 g/m*3 14.1 C 11.3 km/h
1309 15-03-2020 13:00:00 14.1 C 6.55 g/m*3 14.1 C 6.4 km/h
1310 15-03-2020 13:05:00 14.2 C 6.59 g/m*3 14.2 C 11.3 km/h
1311 15-03-2020 13:10:00 14.3 C 6.76 g/m*3 14.3 C 11.3 km/h
1312 15-03-2020 13:15:00 14.3 C 6.63 g/m*3 14.3 C 9.7 km/h
1313 15-03-2020 13:20:00 14.6 C 6.76 g/m*3 14.6 C 14.5 km/h
1314 15-03-2020 13:25:00 14.8 C 6.71 g/m*3 14.8 C 9.7 km/h
1315 15-03-2020 13:30:00 15.2 C 7.01 g/m*3 15.2 C 8.1 km/h
1316 15-03-2020 13:35:00 15.2 C 6.88 g/m*3 15.2 C 12.9 km/h
1317 15-03-2020 13:40:00 15.1 C 6.58 g/m*3 15.1 C 12.9 km/h
1318 15-03-2020 13:45:00 15.1 C 6.71 g/m*3 15.1 C 11.3 km/h
1319 15-03-2020 13:50:00 15.3 C 6.66 g/m*3 15.3 C 12.9 km/h
1320 15-03-2020 13:55:00 15.4 C 6.7 g/m*3 15.4 C 16.1 km/h
1321 15-03-2020 14:00:00 15.4 C 6.7 g/m*3 15.4 C 4.8 km/h
1322 15-03-2020 14:05:00 15.1 C 6.58 g/m*3 15.1 C 9.7 km/h
1323 15-03-2020 14:10:00 15 C 6.67 g/m*3 15 C 8.1 km/h
1324 15-03-2020 14:15:00 14.9 C 6.63 g/m*3 14.9 C 11.3 km/h
1325 15-03-2020 14:20:00 15.1 C 6.58 g/m*3 15.1 C 9.7 km/h
Sensor: Nr:Datum:Temp:Abs-Feuchte:Windchill:Wind:
Aussen-T/F 1326 15-03-2020 14:25:00 15.2 C 6.75 g/m*3 15.2 C 8.1 km/h
1327 15-03-2020 14:30:00 15.2 C 6.75 g/m*3 15.2 C 11.3 km/h
1328 15-03-2020 14:35:00 15.2 C 6.62 g/m*3 15.2 C 12.9 km/h
1329 15-03-2020 14:40:00 15.2 C 6.75 g/m*3 15.2 C 6.4 km/h
1330 15-03-2020 14:45:00 15.3 C 6.66 g/m*3 15.3 C 12.9 km/h
1331 15-03-2020 14:50:00 15.4 C 6.57 g/m*3 15.4 C 17.7 km/h
1332 15-03-2020 14:55:00 15.3 C 6.53 g/m*3 15.3 C 16.1 km/h
1333 15-03-2020 15:00:00 15.3 C 6.53 g/m*3 15.3 C 14.5 km/h
1334 15-03-2020 15:05:00 15.2 C 6.62 g/m*3 15.2 C 6.4 km/h
1335 15-03-2020 15:10:00 15.3 C 6.66 g/m*3 15.3 C 9.7 km/h
1336 15-03-2020 15:15:00 15.4 C 6.44 g/m*3 15.4 C 4.8 km/h
1337 15-03-2020 15:20:00 15.6 C 6.65 g/m*3 15.6 C 9.7 km/h
1338 15-03-2020 15:25:00 15.6 C 6.65 g/m*3 15.6 C 1.6 km/h
1339 15-03-2020 15:30:00 15.8 C 6.6 g/m*3 15.8 C 9.7 km/h
1340 15-03-2020 15:35:00 15.8 C 6.87 g/m*3 15.8 C 9.7 km/h
1341 15-03-2020 15:40:00 15.8 C 6.6 g/m*3 15.8 C 14.5 km/h
1342 15-03-2020 15:45:00 15.8 C 6.6 g/m*3 15.8 C 11.3 km/h
1343 15-03-2020 15:50:00 15.9 C 6.37 g/m*3 15.9 C 11.3 km/h
1344 15-03-2020 15:55:00 16 C 6.54 g/m*3 16 C 8.1 km/h
1345 15-03-2020 16:00:00 16.1 C 6.58 g/m*3 16.1 C 8.1 km/h
1346 15-03-2020 16:05:00 16 C 6.54 g/m*3 16 C 8.1 km/h
1347 15-03-2020 16:10:00 16 C 6.54 g/m*3 16 C 8.1 km/h
1348 15-03-2020 16:15:00 16.1 C 6.31 g/m*3 16.1 C 16.1 km/h
1349 15-03-2020 16:20:00 16.1 C 6.58 g/m*3 16.1 C 8.1 km/h
1350 15-03-2020 16:25:00 16.2 C 6.62 g/m*3 16.2 C 8.1 km/h
Sensor: Nr:Datum:Temp:Abs-Feuchte:Windchill:Wind:
Aussen-T/F 1351 15-03-2020 16:30:00 16.4 C 6.7 g/m*3 16.4 C 8.1 km/h
1352 15-03-2020 16:35:00 16.6 C 6.78 g/m*3 16.6 C 1.6 km/h
1353 15-03-2020 16:40:00 16.7 C 6.54 g/m*3 16.7 C 6.4 km/h
1354 15-03-2020 16:45:00 16.5 C 6.46 g/m*3 16.5 C 9.7 km/h
1355 15-03-2020 16:50:00 16.4 C 6.56 g/m*3 16.4 C 3.2 km/h
1356 15-03-2020 16:55:00 16.4 C 6.42 g/m*3 16.4 C 4.8 km/h
1357 15-03-2020 17:00:00 16.4 C 6.56 g/m*3 16.4 C 4.8 km/h
1358 15-03-2020 17:05:00 16.3 C 6.38 g/m*3 16.3 C 8.1 km/h
1359 15-03-2020 17:10:00 16.2 C 6.48 g/m*3 16.2 C 9.7 km/h
1360 15-03-2020 17:15:00 16.2 C 6.62 g/m*3 16.2 C 3.2 km/h
1361 15-03-2020 17:20:00 16.3 C 6.66 g/m*3 16.3 C 6.4 km/h
1362 15-03-2020 17:25:00 16.3 C 6.66 g/m*3 16.3 C 3.2 km/h
1363 15-03-2020 17:30:00 16.4 C 6.56 g/m*3 16.4 C 8.1 km/h
1364 15-03-2020 17:35:00 16.3 C 6.94 g/m*3 16.3 C 3.2 km/h
1365 15-03-2020 17:40:00 16.1 C 7.26 g/m*3 16.1 C 3.2 km/h
1366 15-03-2020 17:45:00 15.8 C 7 g/m*3 15.8 C 8.1 km/h
1367 15-03-2020 17:50:00 15.4 C 7.23 g/m*3 15.4 C 3.2 km/h
1368 15-03-2020 17:55:00 15.1 C 7.1 g/m*3 15.1 C 0 km/h
1369 15-03-2020 18:00:00 14.6 C 7.13 g/m*3 14.6 C 1.6 km/h
1370 15-03-2020 18:05:00 14.1 C 6.92 g/m*3 14.1 C 3.2 km/h
1371 15-03-2020 18:10:00 13.6 C 6.94 g/m*3 13.6 C 3.2 km/h
1372 15-03-2020 18:15:00 13.2 C 7.12 g/m*3 13.2 C 4.8 km/h
1373 15-03-2020 18:20:00 12.8 C 7.17 g/m*3 12.8 C 4.8 km/h
1374 15-03-2020 18:25:00 12.4 C 6.88 g/m*3 12.4 C 6.4 km/h
1375 15-03-2020 18:30:00 12.1 C 6.97 g/m*3 12.1 C 4.8 km/h
Sensor: Nr:Datum:Temp:Abs-Feuchte:Windchill:Wind:
Aussen-T/F 1376 15-03-2020 18:35:00 11.8 C 7.05 g/m*3 11.8 C 4.8 km/h
1377 15-03-2020 18:40:00 11.4 C 6.88 g/m*3 11.4 C 6.4 km/h
1378 15-03-2020 18:45:00 11.1 C 6.85 g/m*3 11.1 C 4.8 km/h
1379 15-03-2020 18:50:00 10.7 C 6.78 g/m*3 10.7 C 4.8 km/h
1380 15-03-2020 18:55:00 10.4 C 6.75 g/m*3 9.83 C 6.4 km/h
1381 15-03-2020 19:00:00 10.2 C 6.66 g/m*3 9.6 C 6.4 km/h
1382 15-03-2020 19:05:00 10 C 6.67 g/m*3 9.37 C 6.4 km/h
1383 15-03-2020 19:10:00 9.8 C 6.68 g/m*3 9.14 C 6.4 km/h
1384 15-03-2020 19:15:00 9.6 C 6.6 g/m*3 8.91 C 6.4 km/h
1385 15-03-2020 19:20:00 9.4 C 6.6 g/m*3 8.68 C 6.4 km/h
1386 15-03-2020 19:25:00 9.2 C 6.61 g/m*3 8.45 C 6.4 km/h
1387 15-03-2020 19:30:00 9.1 C 6.57 g/m*3 8.33 C 6.4 km/h
1388 15-03-2020 19:35:00 8.9 C 6.57 g/m*3 8.1 C 6.4 km/h
1389 15-03-2020 19:40:00 8.8 C 6.53 g/m*3 7.98 C 6.4 km/h
1390 15-03-2020 19:45:00 8.7 C 6.57 g/m*3 7.87 C 6.4 km/h
1391 15-03-2020 19:50:00 8.6 C 6.53 g/m*3 7.75 C 6.4 km/h
1392 15-03-2020 19:55:00 8.5 C 6.49 g/m*3 7.64 C 6.4 km/h
1393 15-03-2020 20:00:00 8.4 C 6.53 g/m*3 7.52 C 6.4 km/h
1394 15-03-2020 20:05:00 8.4 C 6.53 g/m*3 7.52 C 6.4 km/h
1395 15-03-2020 20:10:00 8.3 C 6.49 g/m*3 7.41 C 6.4 km/h
1396 15-03-2020 20:15:00 8.3 C 6.57 g/m*3 7.41 C 6.4 km/h
1397 15-03-2020 20:20:00 8.2 C 6.53 g/m*3 7.29 C 6.4 km/h
1398 15-03-2020 20:25:00 8.2 C 6.53 g/m*3 7.29 C 6.4 km/h
1399 15-03-2020 20:30:00 8.1 C 6.49 g/m*3 7.17 C 6.4 km/h
1400 15-03-2020 20:35:00 8.1 C 6.49 g/m*3 8.1 C 4.8 km/h
Sensor: Nr:Datum:Temp:Abs-Feuchte:Windchill:Wind:
Aussen-T/F 1401 15-03-2020 20:40:00 8 C 6.45 g/m*3 8 C 4.8 km/h
1402 15-03-2020 20:45:00 7.9 C 6.41 g/m*3 7.9 C 4.8 km/h
1403 15-03-2020 20:50:00 7.8 C 6.37 g/m*3 7.8 C 4.8 km/h
1404 15-03-2020 20:55:00 7.8 C 6.45 g/m*3 7.8 C 4.8 km/h
1405 15-03-2020 21:00:00 7.7 C 6.41 g/m*3 7.7 C 4.8 km/h
1406 15-03-2020 21:05:00 7.6 C 6.36 g/m*3 7.6 C 3.2 km/h
1407 15-03-2020 21:10:00 7.5 C 6.4 g/m*3 7.5 C 4.8 km/h
1408 15-03-2020 21:15:00 7.4 C 6.36 g/m*3 7.4 C 4.8 km/h
1409 15-03-2020 21:20:00 7.3 C 6.4 g/m*3 7.3 C 4.8 km/h
1410 15-03-2020 21:25:00 7.2 C 6.36 g/m*3 7.2 C 4.8 km/h
1411 15-03-2020 21:30:00 7.2 C 6.36 g/m*3 6.13 C 6.4 km/h
1412 15-03-2020 21:35:00 7.1 C 6.32 g/m*3 6.02 C 6.4 km/h
1413 15-03-2020 21:40:00 7.1 C 6.32 g/m*3 6.02 C 6.4 km/h
1414 15-03-2020 21:45:00 7.1 C 6.32 g/m*3 7.1 C 4.8 km/h
1415 15-03-2020 21:50:00 7.1 C 6.32 g/m*3 7.1 C 3.2 km/h
1416 15-03-2020 21:55:00 7.1 C 6.32 g/m*3 7.1 C 3.2 km/h
1417 15-03-2020 22:00:00 6.9 C 6.24 g/m*3 6.9 C 0 km/h
1418 15-03-2020 22:05:00 6.8 C 6.19 g/m*3 6.8 C 0 km/h
1419 15-03-2020 22:10:00 6.7 C 6.15 g/m*3 6.7 C 0 km/h
1420 15-03-2020 22:15:00 6.6 C 6.04 g/m*3 6.6 C 0 km/h
1421 15-03-2020 22:20:00 6.4 C 6.04 g/m*3 6.4 C 0 km/h
1422 15-03-2020 22:25:00 6.2 C 5.96 g/m*3 6.2 C 0 km/h
1423 15-03-2020 22:30:00 6 C 5.95 g/m*3 6 C 0 km/h
1424 15-03-2020 22:35:00 5.8 C 5.95 g/m*3 5.8 C 0 km/h
1425 15-03-2020 22:40:00 5.7 C 5.98 g/m*3 5.7 C 0 km/h
Sensor: Nr:Datum:Temp:Abs-Feuchte:Windchill:Wind:
Aussen-T/F 1426 15-03-2020 22:45:00 5.6 C 5.94 g/m*3 5.6 C 0 km/h
1427 15-03-2020 22:50:00 5.6 C 5.94 g/m*3 5.6 C 0 km/h
1428 15-03-2020 22:55:00 5.5 C 5.9 g/m*3 5.5 C 1.6 km/h
1429 15-03-2020 23:00:00 5.4 C 5.93 g/m*3 5.4 C 1.6 km/h
1430 15-03-2020 23:05:00 5.4 C 5.93 g/m*3 5.4 C 0 km/h
1431 15-03-2020 23:10:00 5.4 C 6 g/m*3 5.4 C 0 km/h
1432 15-03-2020 23:15:00 5.4 C 6 g/m*3 5.4 C 0 km/h
1433 15-03-2020 23:20:00 5.4 C 6.07 g/m*3 5.4 C 0 km/h
1434 15-03-2020 23:25:00 5.4 C 6 g/m*3 5.4 C 0 km/h
1435 15-03-2020 23:30:00 5.3 C 5.96 g/m*3 5.3 C 0 km/h
1436 15-03-2020 23:35:00 5.2 C 5.92 g/m*3 5.2 C 0 km/h
1437 15-03-2020 23:40:00 5.2 C 5.92 g/m*3 5.2 C 0 km/h
1438 15-03-2020 23:45:00 5.1 C 5.88 g/m*3 5.1 C 0 km/h
1439 15-03-2020 23:50:00 5 C 5.84 g/m*3 5 C 0 km/h
1440 15-03-2020 23:55:00 4.9 C 5.87 g/m*3 4.9 C 0 km/h
1441 16-03-2020 00:00:00 4.8 C 5.83 g/m*3 4.8 C 0 km/h
1442 16-03-2020 00:05:00 4.8 C 5.83 g/m*3 4.8 C 0 km/h
1443 16-03-2020 00:10:00 4.8 C 5.83 g/m*3 4.8 C 0 km/h
1444 16-03-2020 00:15:00 4.7 C 5.73 g/m*3 4.7 C 0 km/h
1445 16-03-2020 00:20:00 4.7 C 5.8 g/m*3 4.7 C 0 km/h
1446 16-03-2020 00:25:00 4.6 C 5.69 g/m*3 4.6 C 0 km/h
1447 16-03-2020 00:30:00 4.5 C 5.72 g/m*3 4.5 C 0 km/h
1448 16-03-2020 00:35:00 4.4 C 5.68 g/m*3 4.4 C 0 km/h
1449 16-03-2020 00:40:00 4.3 C 5.71 g/m*3 4.3 C 0 km/h
1450 16-03-2020 00:45:00 4.2 C 5.67 g/m*3 4.2 C 0 km/h
Sensor: Nr:Datum:Temp:Abs-Feuchte:Windchill:Wind:
Aussen-T/F 1451 16-03-2020 00:50:00 4.1 C 5.63 g/m*3 4.1 C 0 km/h
1452 16-03-2020 00:55:00 4.1 C 5.63 g/m*3 4.1 C 0 km/h
1453 16-03-2020 01:00:00 4 C 5.66 g/m*3 4 C 0 km/h
1454 16-03-2020 01:05:00 4 C 5.66 g/m*3 4 C 0 km/h
1455 16-03-2020 01:10:00 3.9 C 5.62 g/m*3 3.9 C 0 km/h
1456 16-03-2020 01:15:00 3.8 C 5.58 g/m*3 3.8 C 0 km/h
1457 16-03-2020 01:20:00 3.8 C 5.58 g/m*3 3.8 C 0 km/h
1458 16-03-2020 01:25:00 3.7 C 5.55 g/m*3 3.7 C 0 km/h
1459 16-03-2020 01:30:00 3.8 C 5.65 g/m*3 3.8 C 0 km/h
1460 16-03-2020 01:35:00 3.8 C 5.65 g/m*3 3.8 C 0 km/h
1461 16-03-2020 01:40:00 3.8 C 5.58 g/m*3 3.8 C 0 km/h
1462 16-03-2020 01:45:00 3.7 C 5.55 g/m*3 3.7 C 0 km/h
1463 16-03-2020 01:50:00 3.7 C 5.55 g/m*3 3.7 C 0 km/h
1464 16-03-2020 01:55:00 3.7 C 5.61 g/m*3 3.7 C 0 km/h
1465 16-03-2020 02:00:00 3.6 C 5.57 g/m*3 3.6 C 0 km/h
1466 16-03-2020 02:05:00 3.6 C 5.57 g/m*3 3.6 C 0 km/h
1467 16-03-2020 02:10:00 3.5 C 5.53 g/m*3 3.5 C 0 km/h
1468 16-03-2020 02:15:00 3.5 C 5.53 g/m*3 3.5 C 0 km/h
1469 16-03-2020 02:20:00 3.6 C 5.63 g/m*3 3.6 C 0 km/h
1470 16-03-2020 02:25:00 3.5 C 5.53 g/m*3 3.5 C 0 km/h
1471 16-03-2020 02:30:00 3.4 C 5.5 g/m*3 3.4 C 0 km/h
1472 16-03-2020 02:35:00 3.3 C 5.46 g/m*3 3.3 C 0 km/h
1473 16-03-2020 02:40:00 3.3 C 5.52 g/m*3 3.3 C 0 km/h
1474 16-03-2020 02:45:00 3.4 C 5.56 g/m*3 3.4 C 0 km/h
1475 16-03-2020 02:50:00 3.6 C 5.63 g/m*3 3.6 C 0 km/h
Sensor: Nr:Datum:Temp:Abs-Feuchte:Windchill:Wind:
Aussen-T/F 1476 16-03-2020 02:55:00 3.8 C 5.71 g/m*3 3.8 C 0 km/h
1477 16-03-2020 03:00:00 3.8 C 5.71 g/m*3 3.8 C 0 km/h
1478 16-03-2020 03:05:00 3.8 C 5.65 g/m*3 3.8 C 0 km/h
1479 16-03-2020 03:10:00 3.6 C 5.51 g/m*3 3.6 C 0 km/h
1480 16-03-2020 03:15:00 3.5 C 5.53 g/m*3 3.5 C 0 km/h
1481 16-03-2020 03:20:00 3.5 C 5.53 g/m*3 3.5 C 0 km/h
1482 16-03-2020 03:25:00 3.4 C 5.5 g/m*3 3.4 C 0 km/h
1483 16-03-2020 03:30:00 3.3 C 5.46 g/m*3 3.3 C 0 km/h
1484 16-03-2020 03:35:00 3.3 C 5.46 g/m*3 3.3 C 0 km/h
1485 16-03-2020 03:40:00 3.2 C 5.42 g/m*3 3.2 C 0 km/h
1486 16-03-2020 03:45:00 3 C 5.35 g/m*3 3 C 0 km/h
1487 16-03-2020 03:50:00 2.8 C 5.28 g/m*3 2.8 C 0 km/h
1488 16-03-2020 03:55:00 2.8 C 5.34 g/m*3 2.8 C 0 km/h
1489 16-03-2020 04:00:00 2.8 C 5.34 g/m*3 2.8 C 0 km/h
1490 16-03-2020 04:05:00 2.8 C 5.34 g/m*3 2.8 C 0 km/h
1491 16-03-2020 04:10:00 2.8 C 5.4 g/m*3 2.8 C 0 km/h
1492 16-03-2020 04:15:00 2.7 C 5.36 g/m*3 2.7 C 0 km/h
1493 16-03-2020 04:20:00 2.7 C 5.36 g/m*3 2.7 C 0 km/h
1494 16-03-2020 04:25:00 2.7 C 5.36 g/m*3 2.7 C 0 km/h
1495 16-03-2020 04:30:00 2.8 C 5.4 g/m*3 2.8 C 0 km/h
1496 16-03-2020 04:35:00 2.8 C 5.4 g/m*3 2.8 C 0 km/h
1497 16-03-2020 04:40:00 2.8 C 5.4 g/m*3 2.8 C 0 km/h
1498 16-03-2020 04:45:00 2.7 C 5.36 g/m*3 2.7 C 0 km/h
1499 16-03-2020 04:50:00 2.7 C 5.36 g/m*3 2.7 C 0 km/h
1500 16-03-2020 04:55:00 2.6 C 5.32 g/m*3 2.6 C 0 km/h
Sensor: Nr:Datum:Temp:Abs-Feuchte:Windchill:Wind:
Aussen-T/F 1501 16-03-2020 05:00:00 2.6 C 5.32 g/m*3 2.6 C 0 km/h
1502 16-03-2020 05:05:00 2.5 C 5.29 g/m*3 2.5 C 0 km/h
1503 16-03-2020 05:10:00 2.4 C 5.25 g/m*3 2.4 C 0 km/h
1504 16-03-2020 05:15:00 2.6 C 5.38 g/m*3 2.6 C 0 km/h
1505 16-03-2020 05:20:00 2.6 C 5.32 g/m*3 2.6 C 0 km/h
1506 16-03-2020 05:25:00 2.6 C 5.32 g/m*3 2.6 C 0 km/h
1507 16-03-2020 05:30:00 2.4 C 5.25 g/m*3 2.4 C 0 km/h
1508 16-03-2020 05:35:00 2.3 C 5.22 g/m*3 2.3 C 0 km/h
1509 16-03-2020 05:40:00 2.3 C 5.22 g/m*3 2.3 C 0 km/h
1510 16-03-2020 05:45:00 2.3 C 5.22 g/m*3 2.3 C 0 km/h
1511 16-03-2020 05:50:00 2.3 C 5.27 g/m*3 2.3 C 0 km/h
1512 16-03-2020 05:55:00 2.2 C 5.24 g/m*3 2.2 C 0 km/h
1513 16-03-2020 06:00:00 2.2 C 5.18 g/m*3 2.2 C 0 km/h
1514 16-03-2020 06:05:00 2.1 C 5.2 g/m*3 2.1 C 0 km/h
1515 16-03-2020 06:10:00 2 C 5.17 g/m*3 2 C 0 km/h
1516 16-03-2020 06:15:00 1.9 C 5.13 g/m*3 1.9 C 0 km/h
1517 16-03-2020 06:20:00 1.9 C 5.13 g/m*3 1.9 C 0 km/h
1518 16-03-2020 06:25:00 1.8 C 5.1 g/m*3 1.8 C 0 km/h
1519 16-03-2020 06:30:00 1.8 C 5.1 g/m*3 1.8 C 0 km/h
1520 16-03-2020 06:35:00 1.8 C 5.1 g/m*3 1.8 C 0 km/h
1521 16-03-2020 06:40:00 1.8 C 5.1 g/m*3 1.8 C 0 km/h
1522 16-03-2020 06:45:00 1.7 C 5.06 g/m*3 1.7 C 0 km/h
1523 16-03-2020 06:50:00 1.7 C 5.06 g/m*3 1.7 C 0 km/h
1524 16-03-2020 06:55:00 1.7 C 5.06 g/m*3 1.7 C 0 km/h
1525 16-03-2020 07:00:00 1.7 C 5.12 g/m*3 1.7 C 0 km/h
Sensor: Nr:Datum:Temp:Abs-Feuchte:Windchill:Wind:
Aussen-T/F 1526 16-03-2020 07:05:00 1.9 C 5.19 g/m*3 1.9 C 0 km/h
1527 16-03-2020 07:10:00 2.2 C 5.29 g/m*3 2.2 C 0 km/h
1528 16-03-2020 07:15:00 2.2 C 5.29 g/m*3 2.2 C 0 km/h
1529 16-03-2020 07:20:00 2.2 C 5.29 g/m*3 2.2 C 0 km/h
1530 16-03-2020 07:25:00 2.1 C 5.26 g/m*3 2.1 C 0 km/h
1531 16-03-2020 07:30:00 2.1 C 5.26 g/m*3 2.1 C 0 km/h
1532 16-03-2020 07:35:00 2 C 5.22 g/m*3 2 C 0 km/h
1533 16-03-2020 07:40:00 2 C 5.22 g/m*3 2 C 0 km/h
1534 16-03-2020 07:45:00 2.1 C 5.26 g/m*3 2.1 C 0 km/h
1535 16-03-2020 07:50:00 2.1 C 5.26 g/m*3 2.1 C 0 km/h
1536 16-03-2020 07:55:00 2.2 C 5.29 g/m*3 2.2 C 0 km/h
1537 16-03-2020 08:00:00 2.3 C 5.39 g/m*3 2.3 C 0 km/h
1538 16-03-2020 08:05:00 2.4 C 5.42 g/m*3 2.4 C 0 km/h
1539 16-03-2020 08:10:00 2.6 C 5.5 g/m*3 2.6 C 0 km/h
1540 16-03-2020 08:15:00 2.6 C 5.5 g/m*3 2.6 C 0 km/h
1541 16-03-2020 08:20:00 2.8 C 5.57 g/m*3 2.8 C 0 km/h
1542 16-03-2020 08:25:00 2.9 C 5.61 g/m*3 2.9 C 0 km/h
1543 16-03-2020 08:30:00 3 C 5.65 g/m*3 3 C 0 km/h
1544 16-03-2020 08:35:00 3.1 C 5.69 g/m*3 3.1 C 0 km/h
1545 16-03-2020 08:40:00 3.1 C 5.63 g/m*3 3.1 C 0 km/h
1546 16-03-2020 08:45:00 3.2 C 5.72 g/m*3 3.2 C 0 km/h
1547 16-03-2020 08:50:00 3.2 C 5.72 g/m*3 3.2 C 0 km/h
1548 16-03-2020 08:55:00 3.2 C 5.72 g/m*3 3.2 C 0 km/h
1549 16-03-2020 09:00:00 3.3 C 5.76 g/m*3 3.3 C 0 km/h
1550 16-03-2020 09:05:00 3.5 C 5.84 g/m*3 3.5 C 0 km/h
Sensor: Nr:Datum:Temp:Abs-Feuchte:Windchill:Wind:
Aussen-T/F 1551 16-03-2020 09:10:00 3.7 C 5.92 g/m*3 3.7 C 0 km/h
1552 16-03-2020 09:15:00 3.8 C 5.96 g/m*3 3.8 C 0 km/h
1553 16-03-2020 09:20:00 3.9 C 6 g/m*3 3.9 C 0 km/h
1554 16-03-2020 09:25:00 4.1 C 6.08 g/m*3 4.1 C 0 km/h
1555 16-03-2020 09:30:00 4.3 C 6.16 g/m*3 4.3 C 0 km/h
1556 16-03-2020 09:35:00 4.4 C 6.2 g/m*3 4.4 C 0 km/h
1557 16-03-2020 09:40:00 4.6 C 6.29 g/m*3 4.6 C 0 km/h
1558 16-03-2020 09:45:00 4.8 C 6.37 g/m*3 4.8 C 0 km/h
1559 16-03-2020 09:50:00 5 C 6.46 g/m*3 5 C 0 km/h
1560 16-03-2020 09:55:00 5.2 C 6.47 g/m*3 5.2 C 0 km/h
1561 16-03-2020 10:00:00 5.5 C 6.67 g/m*3 5.5 C 0 km/h
1562 16-03-2020 10:05:00 5.8 C 6.73 g/m*3 5.8 C 0 km/h
1563 16-03-2020 10:10:00 6 C 6.82 g/m*3 6 C 0 km/h
1564 16-03-2020 10:15:00 6.3 C 6.88 g/m*3 6.3 C 0 km/h
1565 16-03-2020 10:20:00 6.4 C 6.85 g/m*3 6.4 C 0 km/h
1566 16-03-2020 10:25:00 6.7 C 6.99 g/m*3 6.7 C 0 km/h
1567 16-03-2020 10:30:00 7.1 C 7.1 g/m*3 7.1 C 0 km/h
1568 16-03-2020 10:35:00 7.3 C 7.11 g/m*3 7.3 C 0 km/h
1569 16-03-2020 10:40:00 7.8 C 7.26 g/m*3 7.8 C 0 km/h
1570 16-03-2020 10:45:00 8.2 C 7.45 g/m*3 8.2 C 0 km/h
1571 16-03-2020 10:50:00 8.7 C 7.61 g/m*3 8.7 C 0 km/h
1572 16-03-2020 10:55:00 9.1 C 7.63 g/m*3 9.1 C 0 km/h
1573 16-03-2020 11:00:00 9.6 C 7.79 g/m*3 9.6 C 0 km/h
1574 16-03-2020 11:05:00 9.9 C 7.75 g/m*3 9.9 C 0 km/h
1575 16-03-2020 11:10:00 10.4 C 7.9 g/m*3 10.4 C 0 km/h
Sensor: Nr:Datum:Temp:Abs-Feuchte:Windchill:Wind:
Aussen-T/F 1576 16-03-2020 11:15:00 10.9 C 7.96 g/m*3 10.9 C 0 km/h
1577 16-03-2020 11:20:00 11.6 C 8.21 g/m*3 11.6 C 3.2 km/h
1578 16-03-2020 11:25:00 12.1 C 8.26 g/m*3 12.1 C 1.6 km/h
1579 16-03-2020 11:30:00 12.6 C 8.3 g/m*3 12.6 C 3.2 km/h
1580 16-03-2020 11:35:00 13.1 C 8.33 g/m*3 13.1 C 6.4 km/h
1581 16-03-2020 11:40:00 13.4 C 8.25 g/m*3 13.4 C 6.4 km/h
1582 16-03-2020 11:45:00 13.7 C 8.29 g/m*3 13.7 C 6.4 km/h
1583 16-03-2020 11:50:00 13.9 C 8.39 g/m*3 13.9 C 6.4 km/h
1584 16-03-2020 11:55:00 14.1 C 8.37 g/m*3 14.1 C 6.4 km/h
1585 16-03-2020 12:00:00 14.3 C 8.6 g/m*3 14.3 C 4.8 km/h
1586 16-03-2020 12:05:00 14.6 C 8.51 g/m*3 14.6 C 8.1 km/h
1587 16-03-2020 12:10:00 14.7 C 8.31 g/m*3 14.7 C 6.4 km/h
1588 16-03-2020 12:15:00 14.9 C 8.28 g/m*3 14.9 C 6.4 km/h
1589 16-03-2020 12:20:00 15.1 C 8.51 g/m*3 15.1 C 6.4 km/h
1590 16-03-2020 12:25:00 15.2 C 8.44 g/m*3 15.2 C 4.8 km/h
1591 16-03-2020 12:30:00 15.3 C 8.23 g/m*3 15.3 C 4.8 km/h
1592 16-03-2020 12:35:00 15.4 C 8.28 g/m*3 15.4 C 8.1 km/h
1593 16-03-2020 12:40:00 15.6 C 8.38 g/m*3 15.6 C 4.8 km/h
1594 16-03-2020 12:45:00 15.7 C 8.43 g/m*3 15.7 C 3.2 km/h
1595 16-03-2020 12:50:00 15.8 C 8.48 g/m*3 15.8 C 4.8 km/h
1596 16-03-2020 12:55:00 15.8 C 8.62 g/m*3 15.8 C 0 km/h
1597 16-03-2020 13:00:00 15.9 C 8.53 g/m*3 15.9 C 0 km/h
1598 16-03-2020 13:05:00 16.1 C 8.5 g/m*3 16.1 C 3.2 km/h
1599 16-03-2020 13:10:00 16.3 C 8.6 g/m*3 16.3 C 3.2 km/h
1600 16-03-2020 13:15:00 16.4 C 8.65 g/m*3 16.4 C 3.2 km/h
Sensor: Nr:Datum:Temp:Abs-Feuchte:Windchill:Wind:
Aussen-T/F 1601 16-03-2020 13:20:00 16.4 C 8.23 g/m*3 16.4 C 6.4 km/h
1602 16-03-2020 13:25:00 16.3 C 8.46 g/m*3 16.3 C 6.4 km/h
1603 16-03-2020 13:30:00 16.4 C 8.37 g/m*3 16.4 C 1.6 km/h
1604 16-03-2020 13:35:00 16.5 C 8.43 g/m*3 16.5 C 4.8 km/h
1605 16-03-2020 13:40:00 16.7 C 8.67 g/m*3 16.7 C 3.2 km/h
1606 16-03-2020 13:45:00 16.9 C 8.63 g/m*3 16.9 C 1.6 km/h
1607 16-03-2020 13:50:00 17.2 C 8.64 g/m*3 17.2 C 3.2 km/h
1608 16-03-2020 13:55:00 17.2 C 8.64 g/m*3 17.2 C 6.4 km/h
1609 16-03-2020 14:00:00 17.2 C 8.64 g/m*3 17.2 C 4.8 km/h
1610 16-03-2020 14:05:00 17.3 C 8.69 g/m*3 17.3 C 6.4 km/h
1611 16-03-2020 14:10:00 17.4 C 8.6 g/m*3 17.4 C 3.2 km/h
1612 16-03-2020 14:15:00 17.5 C 8.65 g/m*3 17.5 C 6.4 km/h
1613 16-03-2020 14:20:00 17.5 C 8.65 g/m*3 17.5 C 6.4 km/h
1614 16-03-2020 14:25:00 17.3 C 8.69 g/m*3 17.3 C 9.7 km/h
1615 16-03-2020 14:30:00 17.3 C 8.84 g/m*3 17.3 C 6.4 km/h
1616 16-03-2020 14:35:00 17.3 C 8.84 g/m*3 17.3 C 1.6 km/h
1617 16-03-2020 14:40:00 17.3 C 8.69 g/m*3 17.3 C 4.8 km/h
1618 16-03-2020 14:45:00 17.5 C 8.8 g/m*3 17.5 C 8.1 km/h
1619 16-03-2020 14:50:00 17.6 C 8.7 g/m*3 17.6 C 6.4 km/h
1620 16-03-2020 14:55:00 17.6 C 8.85 g/m*3 17.6 C 4.8 km/h
1621 16-03-2020 15:00:00 17.7 C 8.75 g/m*3 17.7 C 6.4 km/h
1622 16-03-2020 15:05:00 17.8 C 8.8 g/m*3 17.8 C 9.7 km/h
1623 16-03-2020 15:10:00 17.8 C 8.8 g/m*3 17.8 C 8.1 km/h
1624 16-03-2020 15:15:00 17.8 C 8.8 g/m*3 17.8 C 9.7 km/h
1625 16-03-2020 15:20:00 17.7 C 8.9 g/m*3 17.7 C 8.1 km/h
Sensor: Nr:Datum:Temp:Abs-Feuchte:Windchill:Wind:
Aussen-T/F 1626 16-03-2020 15:25:00 17.7 C 8.9 g/m*3 17.7 C 6.4 km/h
1627 16-03-2020 15:30:00 17.7 C 8.75 g/m*3 17.7 C 8.1 km/h
1628 16-03-2020 15:35:00 17.8 C 8.95 g/m*3 17.8 C 6.4 km/h
1629 16-03-2020 15:40:00 17.9 C 8.7 g/m*3 17.9 C 9.7 km/h
1630 16-03-2020 15:45:00 17.9 C 8.7 g/m*3 17.9 C 8.1 km/h
1631 16-03-2020 15:50:00 17.9 C 8.7 g/m*3 17.9 C 9.7 km/h
1632 16-03-2020 15:55:00 17.9 C 8.86 g/m*3 17.9 C 6.4 km/h
1633 16-03-2020 16:00:00 17.9 C 8.86 g/m*3 17.9 C 9.7 km/h
1634 16-03-2020 16:05:00 18 C 8.91 g/m*3 18 C 6.4 km/h
1635 16-03-2020 16:10:00 18 C 8.91 g/m*3 18 C 8.1 km/h
1636 16-03-2020 16:15:00 18 C 8.75 g/m*3 18 C 8.1 km/h
1637 16-03-2020 16:20:00 18.1 C 8.65 g/m*3 18.1 C 11.3 km/h
1638 16-03-2020 16:25:00 18.2 C 8.86 g/m*3 18.2 C 8.1 km/h
1639 16-03-2020 16:30:00 18.5 C 9.18 g/m*3 18.5 C 6.4 km/h
1640 16-03-2020 16:35:00 18.7 C 8.81 g/m*3 18.7 C 8.1 km/h
1641 16-03-2020 16:40:00 18.9 C 8.59 g/m*3 18.9 C 6.4 km/h
1642 16-03-2020 16:45:00 19 C 8.8 g/m*3 19 C 6.4 km/h
1643 16-03-2020 16:50:00 19.1 C 8.69 g/m*3 19.1 C 9.7 km/h
1644 16-03-2020 16:55:00 19 C 8.64 g/m*3 19 C 8.1 km/h
1645 16-03-2020 17:00:00 18.9 C 8.75 g/m*3 18.9 C 6.4 km/h
1646 16-03-2020 17:05:00 18.9 C 8.59 g/m*3 18.9 C 9.7 km/h
1647 16-03-2020 17:10:00 18.9 C 8.75 g/m*3 18.9 C 12.9 km/h
1648 16-03-2020 17:15:00 18.9 C 8.75 g/m*3 18.9 C 9.7 km/h
1649 16-03-2020 17:20:00 18.9 C 8.91 g/m*3 18.9 C 8.1 km/h
1650 16-03-2020 17:25:00 18.7 C 8.81 g/m*3 18.7 C 11.3 km/h
Sensor: Nr:Datum:Temp:Abs-Feuchte:Windchill:Wind:
Aussen-T/F 1651 16-03-2020 17:30:00 18.5 C 8.7 g/m*3 18.5 C 8.1 km/h
1652 16-03-2020 17:35:00 18.4 C 8.81 g/m*3 18.4 C 4.8 km/h
1653 16-03-2020 17:40:00 18.2 C 8.7 g/m*3 18.2 C 8.1 km/h
1654 16-03-2020 17:45:00 18 C 8.75 g/m*3 18 C 9.7 km/h
1655 16-03-2020 17:50:00 17.9 C 9.01 g/m*3 17.9 C 6.4 km/h
1656 16-03-2020 17:55:00 17.8 C 8.95 g/m*3 17.8 C 6.4 km/h
1657 16-03-2020 18:00:00 17.7 C 9.05 g/m*3 17.7 C 3.2 km/h
1658 16-03-2020 18:05:00 17.4 C 9.04 g/m*3 17.4 C 4.8 km/h
1659 16-03-2020 18:10:00 16.9 C 8.77 g/m*3 16.9 C 4.8 km/h
1660 16-03-2020 18:15:00 16.5 C 8.99 g/m*3 16.5 C 4.8 km/h
1661 16-03-2020 18:20:00 16.1 C 8.91 g/m*3 16.1 C 4.8 km/h
1662 16-03-2020 18:25:00 15.6 C 8.91 g/m*3 15.6 C 6.4 km/h
1663 16-03-2020 18:30:00 15.1 C 8.77 g/m*3 15.1 C 6.4 km/h
1664 16-03-2020 18:35:00 14.6 C 8.76 g/m*3 14.6 C 6.4 km/h
1665 16-03-2020 18:40:00 14.2 C 8.67 g/m*3 14.2 C 6.4 km/h
1666 16-03-2020 18:45:00 13.9 C 8.63 g/m*3 13.9 C 6.4 km/h
1667 16-03-2020 18:50:00 13.6 C 8.59 g/m*3 13.6 C 6.4 km/h
1668 16-03-2020 18:55:00 13.4 C 8.6 g/m*3 13.4 C 6.4 km/h
1669 16-03-2020 19:00:00 13.2 C 8.61 g/m*3 13.2 C 4.8 km/h
1670 16-03-2020 19:05:00 12.9 C 8.57 g/m*3 12.9 C 6.4 km/h
1671 16-03-2020 19:10:00 12.7 C 8.46 g/m*3 12.7 C 6.4 km/h
1672 16-03-2020 19:15:00 12.6 C 8.52 g/m*3 12.6 C 6.4 km/h
1673 16-03-2020 19:20:00 12.4 C 8.52 g/m*3 12.4 C 6.4 km/h
1674 16-03-2020 19:25:00 12.3 C 8.47 g/m*3 12.3 C 6.4 km/h
1675 16-03-2020 19:30:00 12.2 C 8.52 g/m*3 12.2 C 6.4 km/h
Sensor: Nr:Datum:Temp:Abs-Feuchte:Windchill:Wind:
Aussen-T/F 1676 16-03-2020 19:35:00 12.1 C 8.47 g/m*3 12.1 C 6.4 km/h
1677 16-03-2020 19:40:00 12.1 C 8.47 g/m*3 12.1 C 6.4 km/h
1678 16-03-2020 19:45:00 11.9 C 8.47 g/m*3 11.9 C 6.4 km/h
1679 16-03-2020 19:50:00 11.8 C 8.42 g/m*3 11.8 C 6.4 km/h
1680 16-03-2020 19:55:00 11.7 C 8.37 g/m*3 11.7 C 4.8 km/h
1681 16-03-2020 20:00:00 11.6 C 8.42 g/m*3 11.6 C 4.8 km/h
1682 16-03-2020 20:05:00 11.6 C 8.42 g/m*3 11.6 C 4.8 km/h
1683 16-03-2020 20:10:00 11.4 C 8.31 g/m*3 11.4 C 4.8 km/h
1684 16-03-2020 20:15:00 11.4 C 8.42 g/m*3 11.4 C 0 km/h
1685 16-03-2020 20:20:00 11.3 C 8.26 g/m*3 11.3 C 6.4 km/h
1686 16-03-2020 20:25:00 11.3 C 8.36 g/m*3 11.3 C 4.8 km/h
1687 16-03-2020 20:30:00 11.3 C 8.36 g/m*3 11.3 C 4.8 km/h
1688 16-03-2020 20:35:00 11.2 C 8.31 g/m*3 11.2 C 4.8 km/h
1689 16-03-2020 20:40:00 11.1 C 8.16 g/m*3 11.1 C 0 km/h
1690 16-03-2020 20:45:00 10.8 C 8.11 g/m*3 10.8 C 0 km/h
1691 16-03-2020 20:50:00 10.6 C 8.1 g/m*3 10.6 C 0 km/h
1692 16-03-2020 20:55:00 10.4 C 8.1 g/m*3 9.83 C 6.4 km/h
1693 16-03-2020 21:00:00 10.3 C 8.04 g/m*3 10.3 C 4.8 km/h
1694 16-03-2020 21:05:00 10.3 C 8.14 g/m*3 10.3 C 3.2 km/h
1695 16-03-2020 21:10:00 10.3 C 8.14 g/m*3 10.3 C 0 km/h
1696 16-03-2020 21:15:00 10.3 C 8.14 g/m*3 10.3 C 0 km/h
1697 16-03-2020 21:20:00 10.3 C 8.14 g/m*3 10.3 C 4.8 km/h
1698 16-03-2020 21:25:00 10.3 C 8.14 g/m*3 9.72 C 6.4 km/h
1699 16-03-2020 21:30:00 10.2 C 8.09 g/m*3 10.2 C 0 km/h
1700 16-03-2020 21:35:00 10.2 C 8.18 g/m*3 10.2 C 0 km/h
Sensor: Nr:Datum:Temp:Abs-Feuchte:Windchill:Wind:
Aussen-T/F 1701 16-03-2020 21:40:00 10.1 C 8.13 g/m*3 10.1 C 3.2 km/h
1702 16-03-2020 21:45:00 10.1 C 8.13 g/m*3 10.1 C 4.8 km/h
1703 16-03-2020 21:50:00 10.2 C 8.18 g/m*3 9.6 C 6.4 km/h
1704 16-03-2020 21:55:00 10.2 C 8.18 g/m*3 10.2 C 1.6 km/h
1705 16-03-2020 22:00:00 10.2 C 8.18 g/m*3 10.2 C 0 km/h
1706 16-03-2020 22:05:00 10.2 C 8.18 g/m*3 10.2 C 1.6 km/h
1707 16-03-2020 22:10:00 10.2 C 8.18 g/m*3 10.2 C 3.2 km/h
1708 16-03-2020 22:15:00 10.2 C 8.18 g/m*3 10.2 C 0 km/h
1709 16-03-2020 22:20:00 10.1 C 8.13 g/m*3 10.1 C 0 km/h
1710 16-03-2020 22:25:00 10 C 8.08 g/m*3 10 C 1.6 km/h
1711 16-03-2020 22:30:00 9.9 C 8.03 g/m*3 9.25 C 6.4 km/h
1712 16-03-2020 22:35:00 9.9 C 8.12 g/m*3 9.9 C 3.2 km/h
1713 16-03-2020 22:40:00 9.8 C 7.98 g/m*3 9.8 C 0 km/h
1714 16-03-2020 22:45:00 9.7 C 8.02 g/m*3 9.7 C 0 km/h
1715 16-03-2020 22:50:00 9.6 C 7.97 g/m*3 9.6 C 0 km/h
1716 16-03-2020 22:55:00 9.6 C 7.97 g/m*3 9.6 C 4.8 km/h
1717 16-03-2020 23:00:00 9.6 C 8.06 g/m*3 9.6 C 0 km/h
1718 16-03-2020 23:05:00 9.6 C 8.06 g/m*3 9.6 C 3.2 km/h
1719 16-03-2020 23:10:00 9.6 C 8.06 g/m*3 9.6 C 1.6 km/h
1720 16-03-2020 23:15:00 9.7 C 8.11 g/m*3 9.7 C 0 km/h
1721 16-03-2020 23:20:00 9.7 C 8.11 g/m*3 9.7 C 0 km/h
1722 16-03-2020 23:25:00 9.7 C 8.11 g/m*3 9.7 C 0 km/h
1723 16-03-2020 23:30:00 9.7 C 8.11 g/m*3 9.7 C 0 km/h
1724 16-03-2020 23:35:00 9.8 C 8.16 g/m*3 9.8 C 0 km/h
1725 16-03-2020 23:40:00 9.8 C 8.26 g/m*3 9.8 C 0 km/h
Sensor: Nr:Datum:Temp:Abs-Feuchte:Windchill:Wind:
Aussen-T/F 1726 16-03-2020 23:45:00 9.8 C 8.26 g/m*3 9.8 C 0 km/h
1727 16-03-2020 23:50:00 9.8 C 8.26 g/m*3 9.8 C 0 km/h
1728 16-03-2020 23:55:00 9.8 C 8.16 g/m*3 9.8 C 0 km/h
1729 17-03-2020 00:00:00 9.8 C 8.16 g/m*3 9.8 C 0 km/h
1730 17-03-2020 00:05:00 9.8 C 8.16 g/m*3 9.8 C 0 km/h
1731 17-03-2020 00:10:00 9.8 C 8.16 g/m*3 9.8 C 0 km/h
1732 17-03-2020 00:15:00 9.7 C 8.11 g/m*3 9.7 C 0 km/h
1733 17-03-2020 00:20:00 9.8 C 8.26 g/m*3 9.8 C 0 km/h
1734 17-03-2020 00:25:00 9.8 C 8.26 g/m*3 9.8 C 0 km/h
1735 17-03-2020 00:30:00 9.8 C 8.26 g/m*3 9.8 C 0 km/h
1736 17-03-2020 00:35:00 9.8 C 8.26 g/m*3 9.8 C 0 km/h
1737 17-03-2020 00:40:00 9.8 C 8.16 g/m*3 9.8 C 0 km/h
1738 17-03-2020 00:45:00 9.7 C 8.11 g/m*3 9.7 C 0 km/h
1739 17-03-2020 00:50:00 9.7 C 8.2 g/m*3 9.7 C 0 km/h
1740 17-03-2020 00:55:00 9.6 C 8.15 g/m*3 9.6 C 0 km/h
1741 17-03-2020 01:00:00 9.6 C 8.15 g/m*3 9.6 C 0 km/h
1742 17-03-2020 01:05:00 9.5 C 8.1 g/m*3 9.5 C 0 km/h
1743 17-03-2020 01:10:00 9.5 C 8.1 g/m*3 9.5 C 0 km/h
1744 17-03-2020 01:15:00 9.5 C 8.19 g/m*3 9.5 C 0 km/h
1745 17-03-2020 01:20:00 9.5 C 8.19 g/m*3 9.5 C 0 km/h
1746 17-03-2020 01:25:00 9.4 C 8.14 g/m*3 9.4 C 0 km/h
1747 17-03-2020 01:30:00 9.4 C 8.14 g/m*3 9.4 C 0 km/h
1748 17-03-2020 01:35:00 9.3 C 8.09 g/m*3 9.3 C 0 km/h
1749 17-03-2020 01:40:00 9.3 C 8.09 g/m*3 9.3 C 0 km/h
1750 17-03-2020 01:45:00 9.3 C 8.09 g/m*3 9.3 C 0 km/h
Sensor: Nr:Datum:Temp:Abs-Feuchte:Windchill:Wind:
Aussen-T/F 1751 17-03-2020 01:50:00 9.3 C 8.09 g/m*3 9.3 C 0 km/h
1752 17-03-2020 01:55:00 9.3 C 8.09 g/m*3 9.3 C 0 km/h
1753 17-03-2020 02:00:00 9.3 C 8.09 g/m*3 9.3 C 0 km/h
1754 17-03-2020 02:05:00 9.2 C 8.04 g/m*3 9.2 C 0 km/h
1755 17-03-2020 02:10:00 9.2 C 8.04 g/m*3 9.2 C 0 km/h
1756 17-03-2020 02:15:00 9.2 C 8.13 g/m*3 9.2 C 0 km/h
1757 17-03-2020 02:20:00 9.2 C 8.13 g/m*3 9.2 C 0 km/h
1758 17-03-2020 02:25:00 9.2 C 8.13 g/m*3 9.2 C 0 km/h
1759 17-03-2020 02:30:00 9.2 C 8.13 g/m*3 9.2 C 0 km/h
1760 17-03-2020 02:35:00 9.2 C 8.13 g/m*3 9.2 C 0 km/h
1761 17-03-2020 02:40:00 9.3 C 8.18 g/m*3 9.3 C 0 km/h
1762 17-03-2020 02:45:00 9.3 C 8.18 g/m*3 9.3 C 0 km/h
1763 17-03-2020 02:50:00 9.3 C 8.18 g/m*3 9.3 C 0 km/h
1764 17-03-2020 02:55:00 9.3 C 8.18 g/m*3 9.3 C 0 km/h
1765 17-03-2020 03:00:00 9.2 C 8.13 g/m*3 9.2 C 0 km/h
1766 17-03-2020 03:05:00 9.2 C 8.13 g/m*3 9.2 C 0 km/h
1767 17-03-2020 03:10:00 9.2 C 8.13 g/m*3 9.2 C 0 km/h
1768 17-03-2020 03:15:00 9.1 C 8.07 g/m*3 9.1 C 0 km/h
1769 17-03-2020 03:20:00 9.1 C 8.07 g/m*3 9.1 C 0 km/h
1770 17-03-2020 03:25:00 9 C 8.02 g/m*3 9 C 0 km/h
1771 17-03-2020 03:30:00 8.9 C 7.97 g/m*3 8.9 C 0 km/h
1772 17-03-2020 03:35:00 8.9 C 7.97 g/m*3 8.9 C 0 km/h
1773 17-03-2020 03:40:00 8.9 C 8.06 g/m*3 8.9 C 0 km/h
1774 17-03-2020 03:45:00 8.9 C 7.97 g/m*3 8.9 C 0 km/h
1775 17-03-2020 03:50:00 8.8 C 7.92 g/m*3 8.8 C 0 km/h
Sensor: Nr:Datum:Temp:Abs-Feuchte:Windchill:Wind:
Aussen-T/F 1776 17-03-2020 03:55:00 8.7 C 7.87 g/m*3 8.7 C 0 km/h
1777 17-03-2020 04:00:00 8.6 C 7.82 g/m*3 8.6 C 0 km/h
1778 17-03-2020 04:05:00 8.6 C 7.91 g/m*3 8.6 C 4.8 km/h
1779 17-03-2020 04:10:00 8.7 C 7.96 g/m*3 8.7 C 0 km/h
1780 17-03-2020 04:15:00 8.8 C 8.09 g/m*3 8.8 C 0 km/h
1781 17-03-2020 04:20:00 9 C 8.2 g/m*3 9 C 0 km/h
1782 17-03-2020 04:25:00 9.1 C 8.25 g/m*3 9.1 C 0 km/h
1783 17-03-2020 04:30:00 9.2 C 8.3 g/m*3 9.2 C 0 km/h
1784 17-03-2020 04:35:00 9.2 C 8.22 g/m*3 9.2 C 0 km/h
1785 17-03-2020 04:40:00 9.2 C 8.22 g/m*3 9.2 C 0 km/h
1786 17-03-2020 04:45:00 9.2 C 8.22 g/m*3 9.2 C 0 km/h
1787 17-03-2020 04:50:00 9.2 C 8.22 g/m*3 9.2 C 0 km/h
1788 17-03-2020 04:55:00 9.2 C 8.22 g/m*3 9.2 C 0 km/h
1789 17-03-2020 05:00:00 9.1 C 8.16 g/m*3 9.1 C 0 km/h
1790 17-03-2020 05:05:00 9.1 C 8.16 g/m*3 9.1 C 0 km/h
1791 17-03-2020 05:10:00 9.1 C 8.16 g/m*3 9.1 C 3.2 km/h
1792 17-03-2020 05:15:00 9.1 C 8.16 g/m*3 9.1 C 1.6 km/h
1793 17-03-2020 05:20:00 9.2 C 8.13 g/m*3 9.2 C 0 km/h
1794 17-03-2020 05:25:00 9.2 C 8.13 g/m*3 9.2 C 0 km/h
1795 17-03-2020 05:30:00 9.2 C 8.13 g/m*3 9.2 C 0 km/h
1796 17-03-2020 05:35:00 9.1 C 8.07 g/m*3 9.1 C 0 km/h
1797 17-03-2020 05:40:00 9 C 8.02 g/m*3 9 C 0 km/h
1798 17-03-2020 05:45:00 9 C 8.02 g/m*3 9 C 1.6 km/h
1799 17-03-2020 05:50:00 8.9 C 7.97 g/m*3 8.9 C 3.2 km/h
1800 17-03-2020 05:55:00 8.8 C 7.92 g/m*3 8.8 C 1.6 km/h
Sensor: Nr:Datum:Temp:Abs-Feuchte:Windchill:Wind:
Aussen-T/F 1801 17-03-2020 06:00:00 8.8 C 7.92 g/m*3 8.8 C 0 km/h
1802 17-03-2020 06:05:00 8.8 C 7.92 g/m*3 8.8 C 0 km/h
1803 17-03-2020 06:10:00 8.8 C 7.92 g/m*3 8.8 C 0 km/h
1804 17-03-2020 06:15:00 8.7 C 7.87 g/m*3 8.7 C 0 km/h
1805 17-03-2020 06:20:00 8.7 C 7.87 g/m*3 8.7 C 1.6 km/h
1806 17-03-2020 06:25:00 8.6 C 7.82 g/m*3 8.6 C 0 km/h
1807 17-03-2020 06:30:00 8.6 C 7.82 g/m*3 8.6 C 0 km/h
1808 17-03-2020 06:35:00 8.6 C 7.82 g/m*3 8.6 C 0 km/h
1809 17-03-2020 06:40:00 8.6 C 7.91 g/m*3 8.6 C 0 km/h
1810 17-03-2020 06:45:00 8.6 C 7.91 g/m*3 8.6 C 0 km/h
1811 17-03-2020 06:50:00 8.6 C 7.91 g/m*3 8.6 C 0 km/h
1812 17-03-2020 06:55:00 8.6 C 7.91 g/m*3 8.6 C 0 km/h
1813 17-03-2020 07:00:00 8.6 C 7.91 g/m*3 8.6 C 3.2 km/h
1814 17-03-2020 07:05:00 8.6 C 7.91 g/m*3 8.6 C 1.6 km/h
1815 17-03-2020 07:10:00 8.8 C 8.01 g/m*3 8.8 C 3.2 km/h
1816 17-03-2020 07:15:00 8.8 C 8.01 g/m*3 8.8 C 1.6 km/h
1817 17-03-2020 07:20:00 8.9 C 7.97 g/m*3 8.9 C 1.6 km/h
1818 17-03-2020 07:25:00 9.1 C 8.07 g/m*3 9.1 C 1.6 km/h
1819 17-03-2020 07:30:00 9.2 C 8.13 g/m*3 9.2 C 0 km/h
1820 17-03-2020 07:35:00 9.3 C 8.18 g/m*3 9.3 C 0 km/h
1821 17-03-2020 07:40:00 9.4 C 8.14 g/m*3 9.4 C 1.6 km/h
1822 17-03-2020 07:45:00 9.5 C 8.19 g/m*3 9.5 C 0 km/h
1823 17-03-2020 07:50:00 9.6 C 8.15 g/m*3 9.6 C 1.6 km/h
1824 17-03-2020 07:55:00 9.6 C 8.15 g/m*3 9.6 C 0 km/h
1825 17-03-2020 08:00:00 9.7 C 8.2 g/m*3 9.7 C 0 km/h
Sensor: Nr:Datum:Temp:Abs-Feuchte:Windchill:Wind:
Aussen-T/F 1826 17-03-2020 08:05:00 9.8 C 8.16 g/m*3 9.8 C 1.6 km/h
1827 17-03-2020 08:10:00 9.8 C 8.16 g/m*3 9.8 C 1.6 km/h
1828 17-03-2020 08:15:00 9.9 C 8.12 g/m*3 9.9 C 0 km/h
1829 17-03-2020 08:20:00 10 C 8.17 g/m*3 10 C 1.6 km/h
1830 17-03-2020 08:25:00 10 C 8.08 g/m*3 9.37 C 6.4 km/h
1831 17-03-2020 08:30:00 10.1 C 8.13 g/m*3 10.1 C 0 km/h
1832 17-03-2020 08:35:00 10.1 C 8.23 g/m*3 10.1 C 0 km/h
1833 17-03-2020 08:40:00 10.1 C 8.23 g/m*3 10.1 C 0 km/h
1834 17-03-2020 08:45:00 10.1 C 8.13 g/m*3 10.1 C 0 km/h
1835 17-03-2020 08:50:00 10.1 C 8.13 g/m*3 10.1 C 4.8 km/h
1836 17-03-2020 08:55:00 10.1 C 8.13 g/m*3 10.1 C 1.6 km/h
1837 17-03-2020 09:00:00 10.1 C 8.04 g/m*3 10.1 C 0 km/h
1838 17-03-2020 09:05:00 10.2 C 8.09 g/m*3 10.2 C 1.6 km/h
1839 17-03-2020 09:10:00 10.2 C 8.09 g/m*3 10.2 C 0 km/h
1840 17-03-2020 09:15:00 10.2 C 8.09 g/m*3 10.2 C 0 km/h
1841 17-03-2020 09:20:00 10.3 C 8.14 g/m*3 10.3 C 0 km/h
1842 17-03-2020 09:25:00 10.3 C 8.14 g/m*3 10.3 C 0 km/h
1843 17-03-2020 09:30:00 10.3 C 8.04 g/m*3 10.3 C 0 km/h
1844 17-03-2020 09:35:00 10.4 C 8.1 g/m*3 10.4 C 0 km/h
1845 17-03-2020 09:40:00 10.4 C 8.19 g/m*3 10.4 C 0 km/h
1846 17-03-2020 09:45:00 10.4 C 8.1 g/m*3 10.4 C 3.2 km/h
1847 17-03-2020 09:50:00 10.4 C 8.1 g/m*3 10.4 C 0 km/h
1848 17-03-2020 09:55:00 10.5 C 8.15 g/m*3 10.5 C 0 km/h
1849 17-03-2020 10:00:00 10.6 C 8.2 g/m*3 10.6 C 1.6 km/h
1850 17-03-2020 10:05:00 10.6 C 8.2 g/m*3 10.6 C 1.6 km/h
Sensor: Nr:Datum:Temp:Abs-Feuchte:Windchill:Wind:
Aussen-T/F 1851 17-03-2020 10:10:00 10.6 C 8.2 g/m*3 10.6 C 1.6 km/h
1852 17-03-2020 10:15:00 10.7 C 8.15 g/m*3 10.7 C 1.6 km/h
1853 17-03-2020 10:20:00 10.7 C 8.25 g/m*3 10.7 C 0 km/h
1854 17-03-2020 10:25:00 10.8 C 8.2 g/m*3 10.8 C 0 km/h
1855 17-03-2020 10:30:00 10.9 C 8.36 g/m*3 10.9 C 0 km/h
1856 17-03-2020 10:35:00 11 C 8.31 g/m*3 11 C 1.6 km/h
1857 17-03-2020 10:40:00 11.1 C 8.26 g/m*3 11.1 C 0 km/h
1858 17-03-2020 10:45:00 11.2 C 8.31 g/m*3 11.2 C 1.6 km/h
1859 17-03-2020 10:50:00 11.3 C 8.26 g/m*3 11.3 C 0 km/h
1860 17-03-2020 10:55:00 11.3 C 8.26 g/m*3 11.3 C 4.8 km/h
1861 17-03-2020 11:00:00 11.4 C 8.31 g/m*3 11.4 C 3.2 km/h
1862 17-03-2020 11:05:00 11.6 C 8.32 g/m*3 11.6 C 1.6 km/h
1863 17-03-2020 11:10:00 11.7 C 8.26 g/m*3 11.7 C 3.2 km/h
1864 17-03-2020 11:15:00 11.8 C 8.31 g/m*3 11.8 C 3.2 km/h
1865 17-03-2020 11:20:00 11.8 C 8.42 g/m*3 11.8 C 3.2 km/h
1866 17-03-2020 11:25:00 11.9 C 8.37 g/m*3 11.9 C 3.2 km/h
1867 17-03-2020 11:30:00 12.1 C 8.47 g/m*3 12.1 C 1.6 km/h
1868 17-03-2020 11:35:00 12.2 C 8.42 g/m*3 12.2 C 4.8 km/h
1869 17-03-2020 11:40:00 12.4 C 8.52 g/m*3 12.4 C 3.2 km/h
1870 17-03-2020 11:45:00 12.6 C 8.52 g/m*3 12.6 C 3.2 km/h
1871 17-03-2020 11:50:00 12.6 C 8.41 g/m*3 12.6 C 0 km/h
1872 17-03-2020 11:55:00 12.6 C 8.41 g/m*3 12.6 C 3.2 km/h
1873 17-03-2020 12:00:00 12.7 C 8.46 g/m*3 12.7 C 1.6 km/h
1874 17-03-2020 12:05:00 12.9 C 8.57 g/m*3 12.9 C 1.6 km/h
1875 17-03-2020 12:10:00 13.1 C 8.44 g/m*3 13.1 C 4.8 km/h
Sensor: Nr:Datum:Temp:Abs-Feuchte:Windchill:Wind:
Aussen-T/F 1876 17-03-2020 12:15:00 13.3 C 8.43 g/m*3 13.3 C 4.8 km/h
1877 17-03-2020 12:20:00 13.5 C 8.42 g/m*3 13.5 C 3.2 km/h
1878 17-03-2020 12:25:00 13.7 C 8.41 g/m*3 13.7 C 3.2 km/h
1879 17-03-2020 12:30:00 14.1 C 8.62 g/m*3 14.1 C 8.1 km/h
1880 17-03-2020 12:35:00 14.1 C 8.5 g/m*3 14.1 C 6.4 km/h
1881 17-03-2020 12:40:00 14.2 C 8.43 g/m*3 14.2 C 6.4 km/h
1882 17-03-2020 12:45:00 14.3 C 8.48 g/m*3 14.3 C 8.1 km/h
1883 17-03-2020 12:50:00 14.5 C 8.58 g/m*3 14.5 C 6.4 km/h
1884 17-03-2020 12:55:00 14.6 C 8.63 g/m*3 14.6 C 4.8 km/h
1885 17-03-2020 13:00:00 14.6 C 8.51 g/m*3 14.6 C 3.2 km/h
1886 17-03-2020 13:05:00 14.7 C 8.56 g/m*3 14.7 C 0 km/h
1887 17-03-2020 13:10:00 14.8 C 8.74 g/m*3 14.8 C 6.4 km/h
1888 17-03-2020 13:15:00 14.9 C 8.67 g/m*3 14.9 C 4.8 km/h
1889 17-03-2020 13:20:00 15.1 C 8.64 g/m*3 15.1 C 4.8 km/h
1890 17-03-2020 13:25:00 15.2 C 8.57 g/m*3 15.2 C 8.1 km/h
1891 17-03-2020 13:30:00 15.1 C 8.51 g/m*3 15.1 C 8.1 km/h
1892 17-03-2020 13:35:00 15.1 C 8.64 g/m*3 15.1 C 6.4 km/h
1893 17-03-2020 13:40:00 15.1 C 8.39 g/m*3 15.1 C 4.8 km/h
1894 17-03-2020 13:45:00 15.1 C 8.51 g/m*3 15.1 C 6.4 km/h
1895 17-03-2020 13:50:00 15.2 C 8.31 g/m*3 15.2 C 6.4 km/h
1896 17-03-2020 13:55:00 15.4 C 8.67 g/m*3 15.4 C 1.6 km/h
1897 17-03-2020 14:00:00 15.7 C 8.7 g/m*3 15.7 C 3.2 km/h
1898 17-03-2020 14:05:00 15.9 C 8.53 g/m*3 15.9 C 3.2 km/h
1899 17-03-2020 14:10:00 15.8 C 8.35 g/m*3 15.8 C 6.4 km/h
1900 17-03-2020 14:15:00 15.7 C 8.56 g/m*3 15.7 C 0 km/h
Sensor: Nr:Datum:Temp:Abs-Feuchte:Windchill:Wind:
Aussen-T/F 1901 17-03-2020 14:20:00 15.6 C 8.38 g/m*3 15.6 C 0 km/h
1902 17-03-2020 14:25:00 15.7 C 8.43 g/m*3 15.7 C 4.8 km/h
1903 17-03-2020 14:30:00 15.7 C 8.43 g/m*3 15.7 C 8.1 km/h
1904 17-03-2020 14:35:00 15.5 C 8.2 g/m*3 15.5 C 8.1 km/h
1905 17-03-2020 14:40:00 15.4 C 8.28 g/m*3 15.4 C 8.1 km/h
1906 17-03-2020 14:45:00 15.4 C 8.41 g/m*3 15.4 C 3.2 km/h
1907 17-03-2020 14:50:00 15.4 C 8.28 g/m*3 15.4 C 6.4 km/h
1908 17-03-2020 14:55:00 15.4 C 8.28 g/m*3 15.4 C 6.4 km/h
1909 17-03-2020 15:00:00 15.6 C 8.38 g/m*3 15.6 C 3.2 km/h
1910 17-03-2020 15:05:00 15.7 C 8.3 g/m*3 15.7 C 6.4 km/h
1911 17-03-2020 15:10:00 15.8 C 8.21 g/m*3 15.8 C 6.4 km/h
1912 17-03-2020 15:15:00 15.8 C 8.08 g/m*3 15.8 C 8.1 km/h
1913 17-03-2020 15:20:00 15.8 C 7.94 g/m*3 15.8 C 6.4 km/h
1914 17-03-2020 15:25:00 15.9 C 7.99 g/m*3 15.9 C 3.2 km/h
1915 17-03-2020 15:30:00 16.1 C 7.95 g/m*3 16.1 C 4.8 km/h
1916 17-03-2020 15:35:00 16.3 C 7.91 g/m*3 16.3 C 4.8 km/h
1917 17-03-2020 15:40:00 16.5 C 7.72 g/m*3 16.5 C 4.8 km/h
1918 17-03-2020 15:45:00 16.6 C 7.77 g/m*3 16.6 C 4.8 km/h
1919 17-03-2020 15:50:00 16.8 C 7.86 g/m*3 16.8 C 4.8 km/h
1920 17-03-2020 15:55:00 16.8 C 8.01 g/m*3 16.8 C 3.2 km/h
1921 17-03-2020 16:00:00 16.9 C 7.91 g/m*3 16.9 C 4.8 km/h
1922 17-03-2020 16:05:00 17 C 7.81 g/m*3 17 C 3.2 km/h
1923 17-03-2020 16:10:00 17.1 C 8.01 g/m*3 17.1 C 6.4 km/h
1924 17-03-2020 16:15:00 17.2 C 7.91 g/m*3 17.2 C 8.1 km/h
1925 17-03-2020 16:20:00 17.3 C 8.1 g/m*3 17.3 C 4.8 km/h
Sensor: Nr:Datum:Temp:Abs-Feuchte:Windchill:Wind:
Aussen-T/F 1926 17-03-2020 16:25:00 17.4 C 8.45 g/m*3 17.4 C 3.2 km/h
1927 17-03-2020 16:30:00 17.6 C 8.1 g/m*3 17.6 C 8.1 km/h
1928 17-03-2020 16:35:00 17.7 C 8.15 g/m*3 17.7 C 1.6 km/h
1929 17-03-2020 16:40:00 17.8 C 8.04 g/m*3 17.8 C 4.8 km/h
1930 17-03-2020 16:45:00 17.8 C 7.89 g/m*3 17.8 C 6.4 km/h
1931 17-03-2020 16:50:00 18 C 8.14 g/m*3 18 C 4.8 km/h
1932 17-03-2020 16:55:00 18.2 C 8.08 g/m*3 18.2 C 8.1 km/h
1933 17-03-2020 17:00:00 18.2 C 8.08 g/m*3 18.2 C 4.8 km/h
1934 17-03-2020 17:05:00 18.2 C 7.93 g/m*3 18.2 C 4.8 km/h
1935 17-03-2020 17:10:00 18.2 C 8.24 g/m*3 18.2 C 0 km/h
1936 17-03-2020 17:15:00 18.3 C 8.44 g/m*3 18.3 C 0 km/h
1937 17-03-2020 17:20:00 18.4 C 8.49 g/m*3 18.4 C 0 km/h
1938 17-03-2020 17:25:00 18.4 C 8.18 g/m*3 18.4 C 1.6 km/h
1939 17-03-2020 17:30:00 18.2 C 8.24 g/m*3 18.2 C 3.2 km/h
1940 17-03-2020 17:35:00 18.1 C 8.03 g/m*3 18.1 C 1.6 km/h
1941 17-03-2020 17:40:00 17.9 C 7.94 g/m*3 17.9 C 1.6 km/h
1942 17-03-2020 17:45:00 17.8 C 8.5 g/m*3 17.8 C 0 km/h
1943 17-03-2020 17:50:00 17.7 C 8.45 g/m*3 17.7 C 0 km/h
1944 17-03-2020 17:55:00 17.3 C 8.84 g/m*3 17.3 C 0 km/h
1945 17-03-2020 18:00:00 17 C 8.68 g/m*3 17 C 0 km/h
1946 17-03-2020 18:05:00 16.6 C 8.76 g/m*3 16.6 C 3.2 km/h
1947 17-03-2020 18:10:00 16.2 C 8.69 g/m*3 16.2 C 3.2 km/h
1948 17-03-2020 18:15:00 15.7 C 8.7 g/m*3 15.7 C 4.8 km/h
1949 17-03-2020 18:20:00 15.2 C 8.57 g/m*3 15.2 C 4.8 km/h
1950 17-03-2020 18:25:00 14.7 C 8.56 g/m*3 14.7 C 4.8 km/h
Sensor: Nr:Datum:Temp:Abs-Feuchte:Windchill:Wind:
Aussen-T/F 1951 17-03-2020 18:30:00 14.2 C 8.43 g/m*3 14.2 C 4.8 km/h
1952 17-03-2020 18:35:00 13.7 C 8.41 g/m*3 13.7 C 4.8 km/h
1953 17-03-2020 18:40:00 13.3 C 8.32 g/m*3 13.3 C 4.8 km/h
1954 17-03-2020 18:45:00 13 C 8.28 g/m*3 13 C 4.8 km/h
1955 17-03-2020 18:50:00 12.7 C 8.24 g/m*3 12.7 C 4.8 km/h
1956 17-03-2020 18:55:00 12.4 C 8.3 g/m*3 12.4 C 4.8 km/h
1957 17-03-2020 19:00:00 12.2 C 8.2 g/m*3 12.2 C 4.8 km/h
1958 17-03-2020 19:05:00 12 C 8.21 g/m*3 12 C 4.8 km/h
1959 17-03-2020 19:10:00 11.8 C 8.21 g/m*3 11.8 C 4.8 km/h
1960 17-03-2020 19:15:00 11.7 C 8.16 g/m*3 11.7 C 4.8 km/h
1961 17-03-2020 19:20:00 11.5 C 8.16 g/m*3 11.5 C 6.4 km/h
1962 17-03-2020 19:25:00 11.4 C 8.11 g/m*3 11.4 C 4.8 km/h
1963 17-03-2020 19:30:00 11.3 C 8.06 g/m*3 11.3 C 4.8 km/h
1964 17-03-2020 19:35:00 11.2 C 8.01 g/m*3 11.2 C 0 km/h
1965 17-03-2020 19:40:00 11 C 8.01 g/m*3 11 C 4.8 km/h
1966 17-03-2020 19:45:00 10.8 C 8.01 g/m*3 10.8 C 4.8 km/h
1967 17-03-2020 19:50:00 10.7 C 7.96 g/m*3 10.7 C 4.8 km/h
1968 17-03-2020 19:55:00 10.6 C 7.91 g/m*3 10.6 C 4.8 km/h
1969 17-03-2020 20:00:00 10.4 C 7.9 g/m*3 10.4 C 0 km/h
1970 17-03-2020 20:05:00 10.3 C 7.95 g/m*3 10.3 C 0 km/h
1971 17-03-2020 20:10:00 10.2 C 7.9 g/m*3 10.2 C 0 km/h
1972 17-03-2020 20:15:00 10.1 C 7.85 g/m*3 10.1 C 4.8 km/h
1973 17-03-2020 20:20:00 10.1 C 7.94 g/m*3 9.48 C 6.4 km/h
1974 17-03-2020 20:25:00 10.1 C 7.94 g/m*3 9.48 C 6.4 km/h
1975 17-03-2020 20:30:00 10.1 C 7.94 g/m*3 8.8 C 9.7 km/h
Sensor: Nr:Datum:Temp:Abs-Feuchte:Windchill:Wind:
Aussen-T/F 1976 17-03-2020 20:35:00 10.3 C 7.95 g/m*3 9.04 C 9.7 km/h
1977 17-03-2020 20:40:00 10.3 C 7.95 g/m*3 10.3 C 3.2 km/h
1978 17-03-2020 20:45:00 10.3 C 7.85 g/m*3 10.3 C 1.6 km/h
1979 17-03-2020 20:50:00 10.2 C 7.9 g/m*3 10.2 C 1.6 km/h
1980 17-03-2020 20:55:00 10.1 C 7.85 g/m*3 10.1 C 0 km/h
1981 17-03-2020 21:00:00 10.1 C 7.85 g/m*3 10.1 C 3.2 km/h
1982 17-03-2020 21:05:00 9.9 C 7.75 g/m*3 9.9 C 1.6 km/h
1983 17-03-2020 21:10:00 9.8 C 7.79 g/m*3 9.8 C 1.6 km/h
1984 17-03-2020 21:15:00 9.7 C 7.74 g/m*3 9.7 C 0 km/h
1985 17-03-2020 21:20:00 9.6 C 7.79 g/m*3 9.6 C 0 km/h
1986 17-03-2020 21:25:00 9.5 C 7.74 g/m*3 9.5 C 0 km/h
1987 17-03-2020 21:30:00 9.4 C 7.69 g/m*3 9.4 C 0 km/h
1988 17-03-2020 21:35:00 9.3 C 7.64 g/m*3 9.3 C 0 km/h
1989 17-03-2020 21:40:00 9.2 C 7.68 g/m*3 9.2 C 0 km/h
1990 17-03-2020 21:45:00 9.1 C 7.63 g/m*3 9.1 C 0 km/h
1991 17-03-2020 21:50:00 8.9 C 7.53 g/m*3 8.9 C 0 km/h
1992 17-03-2020 21:55:00 8.8 C 7.49 g/m*3 8.8 C 0 km/h
1993 17-03-2020 22:00:00 8.7 C 7.44 g/m*3 8.7 C 0 km/h
1994 17-03-2020 22:05:00 8.6 C 7.39 g/m*3 8.6 C 0 km/h
1995 17-03-2020 22:10:00 8.3 C 7.25 g/m*3 8.3 C 0 km/h
1996 17-03-2020 22:15:00 8.2 C 7.29 g/m*3 8.2 C 0 km/h
1997 17-03-2020 22:20:00 8.1 C 7.24 g/m*3 8.1 C 0 km/h
1998 17-03-2020 22:25:00 8.1 C 7.32 g/m*3 8.1 C 0 km/h
1999 17-03-2020 22:30:00 7.9 C 7.23 g/m*3 7.9 C 0 km/h
2000 17-03-2020 22:35:00 7.8 C 7.18 g/m*3 7.8 C 0 km/h
Sensor: Nr:Datum:Temp:Abs-Feuchte:Windchill:Wind:
Aussen-T/F 2001 17-03-2020 22:40:00 7.7 C 7.14 g/m*3 7.7 C 0 km/h
2002 17-03-2020 22:45:00 7.6 C 7.09 g/m*3 7.6 C 0 km/h
2003 17-03-2020 22:50:00 7.4 C 7.08 g/m*3 7.4 C 0 km/h
2004 17-03-2020 22:55:00 7.4 C 7.08 g/m*3 7.4 C 0 km/h
2005 17-03-2020 23:00:00 7.3 C 7.03 g/m*3 7.3 C 0 km/h
2006 17-03-2020 23:05:00 7.3 C 7.11 g/m*3 7.3 C 0 km/h
2007 17-03-2020 23:10:00 7.2 C 7.06 g/m*3 7.2 C 0 km/h
2008 17-03-2020 23:15:00 7.2 C 7.06 g/m*3 7.2 C 0 km/h
2009 17-03-2020 23:20:00 7.1 C 7.02 g/m*3 7.1 C 0 km/h
2010 17-03-2020 23:25:00 7 C 6.97 g/m*3 7 C 0 km/h
2011 17-03-2020 23:30:00 7 C 7.05 g/m*3 7 C 0 km/h
2012 17-03-2020 23:35:00 6.9 C 7.01 g/m*3 6.9 C 0 km/h
2013 17-03-2020 23:40:00 6.8 C 6.88 g/m*3 6.8 C 0 km/h
2014 17-03-2020 23:45:00 6.8 C 6.96 g/m*3 6.8 C 0 km/h
2015 17-03-2020 23:50:00 6.7 C 6.91 g/m*3 6.7 C 0 km/h
2016 17-03-2020 23:55:00 6.8 C 7.04 g/m*3 6.8 C 0 km/h

Legende:
   Min
   Max


Maximal/Minimal-Werte vom 23.02.2003 - 18.03.2020

Sensor Min Max Avg
Temp
(Aussen-T/F)
-16.4 °C
20-12-2009  01:30:01
40.4 °C
25-07-2019  16:20:00
11.11 °C

Die Daten stammen von einer Davis Vantage Pro 2 Wetter-Station und werden unter Linux mit der Software wview2wettercgi und aufbereitet. Alle Angaben erfolgen ohne Gewähr für ihre Vollständigkeit oder Richtigkeit.
Kontakt: Rainer Krienke krienke@uni-koblenz.de . Meine Webseiten an der Uni Koblenz oder privat.
Version: $Revision: 0.78 $